Wetterdaten: Montag, 10.11.2025
Datum Zeit Temp. I. Temp. A. Feuchte I. Feuchte A. Luftdruck Regen Wind Richtung Richtung Sonnenschein Solar Taupunkt Windchill Windböen
10.11.2025 00:01 21,3 °C 8,4 °C 58 % 94 % 1016,3 hPa 0,0 l/m² 0,0 km/h (0 Bft) SW 232 ° 0 min 0 W/m² 7,5 °C 8,4 °C 0,0 km/h (0 Bft)
10.11.2025 00:03 21,3 °C 8,4 °C 58 % 94 % 1016,3 hPa 0,0 l/m² 0,0 km/h (0 Bft) SW 232 ° 0 min 0 W/m² 7,5 °C 8,4 °C 0,0 km/h (0 Bft)
10.11.2025 00:05 21,3 °C 8,4 °C 58 % 94 % 1016,3 hPa 0,0 l/m² 0,0 km/h (0 Bft) SW 232 ° 0 min 0 W/m² 7,5 °C 8,4 °C 0,0 km/h (0 Bft)
10.11.2025 00:07 21,3 °C 8,4 °C 58 % 94 % 1016,3 hPa 0,0 l/m² 0,0 km/h (0 Bft) SW 232 ° 0 min 0 W/m² 7,5 °C 8,4 °C 0,0 km/h (0 Bft)
10.11.2025 00:09 21,3 °C 8,4 °C 58 % 94 % 1016,4 hPa 0,0 l/m² 0,0 km/h (0 Bft) SW 232 ° 0 min 0 W/m² 7,5 °C 8,4 °C 0,0 km/h (0 Bft)
10.11.2025 00:10 21,3 °C 8,4 °C 58 % 94 % 1016,4 hPa 0,0 l/m² 0,0 km/h (0 Bft) SW 232 ° 0 min 0 W/m² 7,5 °C 8,4 °C 0,0 km/h (0 Bft)
10.11.2025 00:12 21,3 °C 8,4 °C 58 % 94 % 1016,3 hPa 0,0 l/m² 0,0 km/h (0 Bft) SW 232 ° 0 min 0 W/m² 7,5 °C 8,4 °C 0,0 km/h (0 Bft)
10.11.2025 00:14 21,3 °C 8,4 °C 58 % 94 % 1016,3 hPa 0,0 l/m² 0,0 km/h (0 Bft) SW 232 ° 0 min 0 W/m² 7,5 °C 8,4 °C 0,0 km/h (0 Bft)
10.11.2025 00:16 21,3 °C 8,4 °C 58 % 94 % 1016,3 hPa 0,0 l/m² 0,0 km/h (0 Bft) SW 232 ° 0 min 0 W/m² 7,5 °C 8,4 °C 0,0 km/h (0 Bft)
10.11.2025 00:18 21,3 °C 8,4 °C 58 % 94 % 1016,3 hPa 0,0 l/m² 0,0 km/h (0 Bft) SW 232 ° 0 min 0 W/m² 7,5 °C 8,4 °C 0,0 km/h (0 Bft)
10.11.2025 00:20 21,3 °C 8,4 °C 58 % 94 % 1016,3 hPa 0,0 l/m² 0,0 km/h (0 Bft) SW 232 ° 0 min 0 W/m² 7,5 °C 8,4 °C 0,0 km/h (0 Bft)
10.11.2025 00:21 21,3 °C 8,5 °C 58 % 94 % 1016,3 hPa 0,0 l/m² 0,1 km/h (0 Bft) SW 232 ° 0 min 0 W/m² 7,6 °C 8,5 °C 1,6 km/h (1 Bft)
10.11.2025 00:22 21,3 °C 8,5 °C 58 % 94 % 1016,3 hPa 0,0 l/m² 0,0 km/h (0 Bft) SW 232 ° 0 min 0 W/m² 7,6 °C 8,5 °C 0,0 km/h (0 Bft)
10.11.2025 00:23 21,3 °C 8,4 °C 58 % 94 % 1016,2 hPa 0,0 l/m² 0,0 km/h (0 Bft) SW 232 ° 0 min 0 W/m² 7,5 °C 8,4 °C 0,0 km/h (0 Bft)
10.11.2025 00:25 21,3 °C 8,5 °C 58 % 94 % 1016,3 hPa 0,0 l/m² 0,0 km/h (0 Bft) SW 232 ° 0 min 0 W/m² 7,6 °C 8,5 °C 0,0 km/h (0 Bft)
10.11.2025 00:27 21,3 °C 8,5 °C 58 % 94 % 1016,2 hPa 0,0 l/m² 0,0 km/h (0 Bft) SW 232 ° 0 min 0 W/m² 7,6 °C 8,5 °C 0,0 km/h (0 Bft)
10.11.2025 00:29 21,3 °C 8,5 °C 58 % 94 % 1016,2 hPa 0,0 l/m² 0,0 km/h (0 Bft) SW 232 ° 0 min 0 W/m² 7,6 °C 8,5 °C 0,0 km/h (0 Bft)
10.11.2025 00:30 21,3 °C 8,6 °C 58 % 94 % 1016,3 hPa 0,0 l/m² 0,0 km/h (0 Bft) SW 232 ° 0 min 0 W/m² 7,7 °C 8,6 °C 0,0 km/h (0 Bft)
10.11.2025 00:32 21,3 °C 8,6 °C 58 % 93 % 1016,2 hPa 0,0 l/m² 0,0 km/h (0 Bft) SW 232 ° 0 min 0 W/m² 7,5 °C 8,6 °C 0,0 km/h (0 Bft)
10.11.2025 00:34 21,3 °C 8,6 °C 58 % 93 % 1016,3 hPa 0,0 l/m² 0,0 km/h (0 Bft) SW 232 ° 0 min 0 W/m² 7,5 °C 8,6 °C 0,0 km/h (0 Bft)
10.11.2025 00:36 21,3 °C 8,6 °C 58 % 94 % 1016,2 hPa 0,0 l/m² 0,0 km/h (0 Bft) SW 232 ° 0 min 0 W/m² 7,7 °C 8,6 °C 0,0 km/h (0 Bft)
10.11.2025 00:38 21,3 °C 8,6 °C 58 % 94 % 1016,2 hPa 0,0 l/m² 0,0 km/h (0 Bft) SW 232 ° 0 min 0 W/m² 7,7 °C 8,6 °C 0,0 km/h (0 Bft)
10.11.2025 00:40 21,3 °C 8,6 °C 58 % 94 % 1016,2 hPa 0,0 l/m² 0,0 km/h (0 Bft) SW 232 ° 0 min 0 W/m² 7,7 °C 8,6 °C 0,0 km/h (0 Bft)
10.11.2025 00:41 21,3 °C 8,6 °C 58 % 94 % 1016,1 hPa 0,0 l/m² 0,0 km/h (0 Bft) SW 232 ° 0 min 0 W/m² 7,7 °C 8,6 °C 0,0 km/h (0 Bft)
10.11.2025 00:43 21,3 °C 8,6 °C 58 % 94 % 1016,1 hPa 0,0 l/m² 0,0 km/h (0 Bft) SW 232 ° 0 min 0 W/m² 7,7 °C 8,6 °C 0,0 km/h (0 Bft)
10.11.2025 00:45 21,3 °C 8,6 °C 58 % 94 % 1016,1 hPa 0,0 l/m² 0,0 km/h (0 Bft) SW 232 ° 0 min 0 W/m² 7,7 °C 8,6 °C 0,0 km/h (0 Bft)
10.11.2025 00:46 21,3 °C 8,6 °C 58 % 94 % 1016,1 hPa 0,0 l/m² 0,0 km/h (0 Bft) SW 232 ° 0 min 0 W/m² 7,7 °C 8,6 °C 0,0 km/h (0 Bft)
10.11.2025 00:47 21,3 °C 8,6 °C 58 % 94 % 1016,1 hPa 0,0 l/m² 0,0 km/h (0 Bft) SW 232 ° 0 min 0 W/m² 7,7 °C 8,6 °C 0,0 km/h (0 Bft)
10.11.2025 00:49 21,3 °C 8,6 °C 58 % 94 % 1016,1 hPa 0,0 l/m² 0,0 km/h (0 Bft) SW 232 ° 0 min 0 W/m² 7,7 °C 8,6 °C 0,0 km/h (0 Bft)
10.11.2025 00:51 21,2 °C 8,6 °C 58 % 94 % 1016,1 hPa 0,0 l/m² 0,0 km/h (0 Bft) SW 232 ° 0 min 0 W/m² 7,7 °C 8,6 °C 0,0 km/h (0 Bft)
10.11.2025 00:53 21,3 °C 8,6 °C 58 % 94 % 1016,0 hPa 0,0 l/m² 0,0 km/h (0 Bft) SW 232 ° 0 min 0 W/m² 7,7 °C 8,6 °C 0,0 km/h (0 Bft)
10.11.2025 00:55 21,2 °C 8,6 °C 58 % 94 % 1016,0 hPa 0,0 l/m² 0,0 km/h (0 Bft) SW 232 ° 0 min 0 W/m² 7,7 °C 8,6 °C 0,0 km/h (0 Bft)
10.11.2025 00:57 21,2 °C 8,6 °C 58 % 94 % 1016,0 hPa 0,2 l/m² 0,0 km/h (0 Bft) SW 232 ° 0 min 0 W/m² 7,7 °C 8,6 °C 0,0 km/h (0 Bft)
10.11.2025 00:59 21,2 °C 8,6 °C 58 % 94 % 1016,0 hPa 0,0 l/m² 0,0 km/h (0 Bft) SW 232 ° 0 min 0 W/m² 7,7 °C 8,6 °C 0,0 km/h (0 Bft)
10.11.2025 01:01 21,2 °C 8,6 °C 58 % 94 % 1016,0 hPa 0,0 l/m² 0,0 km/h (0 Bft) SW 232 ° 0 min 0 W/m² 7,7 °C 8,6 °C 0,0 km/h (0 Bft)
10.11.2025 01:02 21,2 °C 8,6 °C 58 % 94 % 1016,0 hPa 0,0 l/m² 0,0 km/h (0 Bft) SW 232 ° 0 min 0 W/m² 7,7 °C 8,6 °C 0,0 km/h (0 Bft)
10.11.2025 01:04 21,2 °C 8,6 °C 58 % 94 % 1016,0 hPa 0,0 l/m² 0,0 km/h (0 Bft) SW 232 ° 0 min 0 W/m² 7,7 °C 8,6 °C 0,0 km/h (0 Bft)
10.11.2025 01:06 21,3 °C 8,6 °C 58 % 94 % 1016,0 hPa 0,0 l/m² 0,1 km/h (0 Bft) SW 232 ° 0 min 0 W/m² 7,7 °C 8,6 °C 1,6 km/h (1 Bft)
10.11.2025 01:07 21,2 °C 8,6 °C 58 % 94 % 1016,0 hPa 0,0 l/m² 0,0 km/h (0 Bft) SW 232 ° 0 min 0 W/m² 7,7 °C 8,6 °C 0,0 km/h (0 Bft)
10.11.2025 01:10 21,2 °C 8,6 °C 58 % 94 % 1015,9 hPa 0,0 l/m² 0,7 km/h (0 Bft) SW 232 ° 0 min 0 W/m² 7,7 °C 8,6 °C 3,2 km/h (1 Bft)
10.11.2025 01:12 21,2 °C 8,7 °C 58 % 94 % 1016,0 hPa 0,0 l/m² 1,9 km/h (1 Bft) SW 232 ° 0 min 0 W/m² 7,8 °C 8,7 °C 4,8 km/h (1 Bft)
10.11.2025 01:14 21,2 °C 8,7 °C 58 % 94 % 1016,1 hPa 0,0 l/m² 0,8 km/h (0 Bft) SW 232 ° 0 min 0 W/m² 7,8 °C 8,7 °C 3,2 km/h (1 Bft)
10.11.2025 01:16 21,2 °C 8,7 °C 58 % 94 % 1016,1 hPa 0,2 l/m² 1,6 km/h (1 Bft) SW 232 ° 0 min 0 W/m² 7,8 °C 8,7 °C 3,2 km/h (1 Bft)
10.11.2025 01:18 21,2 °C 8,7 °C 58 % 94 % 1016,0 hPa 0,0 l/m² 0,5 km/h (0 Bft) SW 232 ° 0 min 0 W/m² 7,8 °C 8,7 °C 3,2 km/h (1 Bft)
10.11.2025 01:20 21,2 °C 8,7 °C 58 % 94 % 1016,0 hPa 0,0 l/m² 0,1 km/h (0 Bft) SW 232 ° 0 min 0 W/m² 7,8 °C 8,7 °C 1,6 km/h (1 Bft)
10.11.2025 01:22 21,2 °C 8,8 °C 58 % 94 % 1016,0 hPa 0,0 l/m² 0,4 km/h (0 Bft) SW 232 ° 0 min 0 W/m² 7,9 °C 8,8 °C 1,6 km/h (1 Bft)
10.11.2025 01:24 21,2 °C 8,8 °C 58 % 94 % 1015,9 hPa 0,0 l/m² 0,6 km/h (0 Bft) SW 232 ° 0 min 0 W/m² 7,9 °C 8,8 °C 3,2 km/h (1 Bft)
10.11.2025 01:26 21,2 °C 8,8 °C 58 % 94 % 1016,0 hPa 0,0 l/m² 0,0 km/h (0 Bft) SW 232 ° 0 min 0 W/m² 7,9 °C 8,8 °C 1,6 km/h (1 Bft)
10.11.2025 01:28 21,2 °C 8,8 °C 58 % 94 % 1016,0 hPa 0,0 l/m² 0,0 km/h (0 Bft) SW 232 ° 0 min 0 W/m² 7,9 °C 8,8 °C 0,0 km/h (0 Bft)
10.11.2025 01:30 21,2 °C 8,8 °C 58 % 94 % 1015,9 hPa 0,0 l/m² 0,8 km/h (0 Bft) SW 232 ° 0 min 0 W/m² 7,9 °C 8,8 °C 4,8 km/h (1 Bft)
10.11.2025 01:32 21,2 °C 8,8 °C 58 % 94 % 1016,0 hPa 0,0 l/m² 1,2 km/h (1 Bft) SW 232 ° 0 min 0 W/m² 7,9 °C 8,8 °C 3,2 km/h (1 Bft)
10.11.2025 01:34 21,2 °C 8,8 °C 58 % 94 % 1016,0 hPa 0,0 l/m² 2,7 km/h (1 Bft) SW 232 ° 0 min 0 W/m² 7,9 °C 8,8 °C 4,8 km/h (1 Bft)
10.11.2025 01:36 21,2 °C 8,8 °C 58 % 94 % 1016,0 hPa 0,0 l/m² 1,6 km/h (1 Bft) SW 232 ° 0 min 0 W/m² 7,9 °C 8,8 °C 4,8 km/h (1 Bft)
10.11.2025 01:38 21,2 °C 8,8 °C 58 % 94 % 1016,0 hPa 0,0 l/m² 4,1 km/h (1 Bft) SW 232 ° 0 min 0 W/m² 7,9 °C 8,8 °C 6,4 km/h (2 Bft)
10.11.2025 01:40 21,2 °C 8,8 °C 58 % 94 % 1016,0 hPa 0,0 l/m² 3,6 km/h (1 Bft) SW 232 ° 0 min 0 W/m² 7,9 °C 8,8 °C 6,4 km/h (2 Bft)
10.11.2025 01:42 21,2 °C 8,8 °C 58 % 94 % 1016,0 hPa 0,0 l/m² 5,4 km/h (2 Bft) SW 232 ° 0 min 0 W/m² 7,9 °C 8,8 °C 6,4 km/h (2 Bft)
10.11.2025 01:44 21,2 °C 8,8 °C 58 % 94 % 1016,0 hPa 0,0 l/m² 2,5 km/h (1 Bft) SW 232 ° 0 min 0 W/m² 7,9 °C 8,8 °C 6,4 km/h (2 Bft)
10.11.2025 01:46 21,2 °C 8,9 °C 58 % 94 % 1015,9 hPa 0,0 l/m² 3,1 km/h (1 Bft) SW 232 ° 0 min 0 W/m² 8,0 °C 8,9 °C 6,4 km/h (2 Bft)
10.11.2025 01:48 21,2 °C 8,9 °C 58 % 94 % 1015,9 hPa 0,0 l/m² 1,4 km/h (1 Bft) SW 232 ° 0 min 0 W/m² 8,0 °C 8,9 °C 4,8 km/h (1 Bft)
10.11.2025 01:50 21,2 °C 8,9 °C 58 % 94 % 1016,0 hPa 0,0 l/m² 1,7 km/h (1 Bft) SW 232 ° 0 min 0 W/m² 8,0 °C 8,9 °C 4,8 km/h (1 Bft)
10.11.2025 01:52 21,2 °C 8,9 °C 58 % 94 % 1015,8 hPa 0,0 l/m² 1,1 km/h (1 Bft) SW 232 ° 0 min 0 W/m² 8,0 °C 8,9 °C 4,8 km/h (1 Bft)
10.11.2025 01:54 21,2 °C 8,9 °C 58 % 94 % 1015,9 hPa 0,0 l/m² 1,3 km/h (1 Bft) SW 232 ° 0 min 0 W/m² 8,0 °C 8,9 °C 4,8 km/h (1 Bft)
10.11.2025 01:56 21,2 °C 8,9 °C 58 % 94 % 1015,9 hPa 0,2 l/m² 0,6 km/h (0 Bft) SW 232 ° 0 min 0 W/m² 8,0 °C 8,9 °C 3,2 km/h (1 Bft)
10.11.2025 01:58 21,2 °C 8,9 °C 58 % 94 % 1015,8 hPa 0,0 l/m² 0,8 km/h (0 Bft) SW 232 ° 0 min 0 W/m² 8,0 °C 8,9 °C 3,2 km/h (1 Bft)
10.11.2025 02:00 21,2 °C 8,9 °C 58 % 94 % 1015,8 hPa 0,0 l/m² 0,2 km/h (0 Bft) SW 232 ° 0 min 0 W/m² 8,0 °C 8,9 °C 1,6 km/h (1 Bft)
10.11.2025 02:02 21,2 °C 8,9 °C 58 % 94 % 1015,8 hPa 0,0 l/m² 0,1 km/h (0 Bft) SW 232 ° 0 min 0 W/m² 8,0 °C 8,9 °C 1,6 km/h (1 Bft)
10.11.2025 02:04 21,2 °C 8,9 °C 58 % 94 % 1015,8 hPa 0,0 l/m² 0,0 km/h (0 Bft) SW 232 ° 0 min 0 W/m² 8,0 °C 8,9 °C 0,0 km/h (0 Bft)
10.11.2025 02:06 21,2 °C 8,9 °C 58 % 94 % 1015,8 hPa 0,0 l/m² 0,0 km/h (0 Bft) SW 232 ° 0 min 0 W/m² 8,0 °C 8,9 °C 0,0 km/h (0 Bft)
10.11.2025 02:08 21,2 °C 8,9 °C 58 % 94 % 1015,9 hPa 0,0 l/m² 0,2 km/h (0 Bft) SW 232 ° 0 min 0 W/m² 8,0 °C 8,9 °C 1,6 km/h (1 Bft)
10.11.2025 02:10 21,2 °C 8,9 °C 58 % 94 % 1015,9 hPa 0,0 l/m² 0,3 km/h (0 Bft) SW 232 ° 0 min 0 W/m² 8,0 °C 8,9 °C 1,6 km/h (1 Bft)
10.11.2025 02:12 21,2 °C 8,9 °C 58 % 94 % 1015,9 hPa 0,0 l/m² 1,0 km/h (0 Bft) SW 232 ° 0 min 0 W/m² 8,0 °C 8,9 °C 4,8 km/h (1 Bft)
10.11.2025 02:14 21,2 °C 8,9 °C 58 % 94 % 1015,8 hPa 0,0 l/m² 2,0 km/h (1 Bft) SW 232 ° 0 min 0 W/m² 8,0 °C 8,9 °C 8,0 km/h (2 Bft)
10.11.2025 02:16 21,2 °C 8,8 °C 58 % 94 % 1015,9 hPa 0,0 l/m² 1,4 km/h (1 Bft) SW 232 ° 0 min 0 W/m² 7,9 °C 8,8 °C 4,8 km/h (1 Bft)
10.11.2025 02:18 21,2 °C 8,8 °C 58 % 94 % 1015,9 hPa 0,0 l/m² 4,3 km/h (1 Bft) SW 232 ° 0 min 0 W/m² 7,9 °C 8,8 °C 6,4 km/h (2 Bft)
10.11.2025 02:20 21,2 °C 8,9 °C 58 % 94 % 1015,9 hPa 0,0 l/m² 5,7 km/h (2 Bft) SW 232 ° 0 min 0 W/m² 8,0 °C 8,9 °C 8,0 km/h (2 Bft)
10.11.2025 02:22 21,2 °C 8,8 °C 58 % 94 % 1015,9 hPa 0,0 l/m² 5,0 km/h (1 Bft) SW 232 ° 0 min 0 W/m² 7,9 °C 8,8 °C 8,0 km/h (2 Bft)
10.11.2025 02:24 21,2 °C 8,8 °C 58 % 94 % 1015,9 hPa 0,0 l/m² 6,4 km/h (2 Bft) SW 232 ° 0 min 0 W/m² 7,9 °C 8,8 °C 8,0 km/h (2 Bft)
10.11.2025 02:26 21,1 °C 8,8 °C 58 % 94 % 1015,9 hPa 0,0 l/m² 4,1 km/h (1 Bft) SW 232 ° 0 min 0 W/m² 7,9 °C 8,8 °C 8,0 km/h (2 Bft)
10.11.2025 02:28 21,1 °C 8,8 °C 58 % 94 % 1015,9 hPa 0,0 l/m² 1,9 km/h (1 Bft) SW 232 ° 0 min 0 W/m² 7,9 °C 8,8 °C 6,4 km/h (2 Bft)
10.11.2025 02:30 21,1 °C 8,8 °C 58 % 94 % 1015,9 hPa 0,0 l/m² 1,0 km/h (0 Bft) SW 232 ° 0 min 0 W/m² 7,9 °C 8,8 °C 4,8 km/h (1 Bft)
10.11.2025 02:32 21,2 °C 8,8 °C 58 % 94 % 1015,9 hPa 0,0 l/m² 0,2 km/h (0 Bft) SW 232 ° 0 min 0 W/m² 7,9 °C 8,8 °C 1,6 km/h (1 Bft)
10.11.2025 02:34 21,1 °C 8,8 °C 58 % 94 % 1015,9 hPa 0,0 l/m² 0,0 km/h (0 Bft) SW 232 ° 0 min 0 W/m² 7,9 °C 8,8 °C 0,0 km/h (0 Bft)
10.11.2025 02:36 21,2 °C 8,8 °C 58 % 94 % 1015,9 hPa 0,0 l/m² 0,4 km/h (0 Bft) SW 232 ° 0 min 0 W/m² 7,9 °C 8,8 °C 3,2 km/h (1 Bft)
10.11.2025 02:38 21,2 °C 8,8 °C 58 % 94 % 1016,1 hPa 0,0 l/m² 0,0 km/h (0 Bft) SW 232 ° 0 min 0 W/m² 7,9 °C 8,8 °C 0,0 km/h (0 Bft)
10.11.2025 02:40 21,1 °C 8,8 °C 58 % 94 % 1015,9 hPa 0,0 l/m² 0,0 km/h (0 Bft) SW 232 ° 0 min 0 W/m² 7,9 °C 8,8 °C 0,0 km/h (0 Bft)
10.11.2025 02:42 21,1 °C 8,8 °C 58 % 94 % 1015,9 hPa 0,0 l/m² 0,0 km/h (0 Bft) SW 232 ° 0 min 0 W/m² 7,9 °C 8,8 °C 0,0 km/h (0 Bft)
10.11.2025 02:44 21,1 °C 8,8 °C 58 % 94 % 1016,0 hPa 0,0 l/m² 0,0 km/h (0 Bft) SW 232 ° 0 min 0 W/m² 7,9 °C 8,8 °C 0,0 km/h (0 Bft)
10.11.2025 02:46 21,1 °C 8,8 °C 58 % 94 % 1015,9 hPa 0,0 l/m² 0,0 km/h (0 Bft) SW 232 ° 0 min 0 W/m² 7,9 °C 8,8 °C 0,0 km/h (0 Bft)
10.11.2025 02:48 21,1 °C 8,8 °C 58 % 94 % 1015,9 hPa 0,0 l/m² 0,0 km/h (0 Bft) SW 232 ° 0 min 0 W/m² 7,9 °C 8,8 °C 0,0 km/h (0 Bft)
10.11.2025 02:50 21,1 °C 8,8 °C 58 % 94 % 1015,9 hPa 0,0 l/m² 0,0 km/h (0 Bft) SW 232 ° 0 min 0 W/m² 7,9 °C 8,8 °C 0,0 km/h (0 Bft)
10.11.2025 02:52 21,1 °C 8,8 °C 58 % 94 % 1015,9 hPa 0,0 l/m² 0,0 km/h (0 Bft) SW 232 ° 0 min 0 W/m² 7,9 °C 8,8 °C 0,0 km/h (0 Bft)
10.11.2025 02:54 21,1 °C 8,7 °C 58 % 94 % 1015,9 hPa 0,0 l/m² 0,0 km/h (0 Bft) SW 232 ° 0 min 0 W/m² 7,8 °C 8,7 °C 1,6 km/h (1 Bft)
10.11.2025 02:56 21,1 °C 8,7 °C 58 % 94 % 1015,8 hPa 0,0 l/m² 0,3 km/h (0 Bft) SW 232 ° 0 min 0 W/m² 7,8 °C 8,7 °C 1,6 km/h (1 Bft)
10.11.2025 02:58 21,1 °C 8,7 °C 58 % 94 % 1015,8 hPa 0,0 l/m² 0,2 km/h (0 Bft) SW 232 ° 0 min 0 W/m² 7,8 °C 8,7 °C 1,6 km/h (1 Bft)
10.11.2025 03:00 21,1 °C 8,7 °C 58 % 94 % 1015,9 hPa 0,0 l/m² 0,3 km/h (0 Bft) SW 232 ° 0 min 0 W/m² 7,8 °C 8,7 °C 3,2 km/h (1 Bft)
10.11.2025 03:02 21,1 °C 8,7 °C 58 % 94 % 1015,9 hPa 0,0 l/m² 1,6 km/h (1 Bft) SW 232 ° 0 min 0 W/m² 7,8 °C 8,7 °C 3,2 km/h (1 Bft)
10.11.2025 03:04 21,1 °C 8,7 °C 58 % 94 % 1015,8 hPa 0,0 l/m² 3,9 km/h (1 Bft) SW 232 ° 0 min 0 W/m² 7,8 °C 8,7 °C 6,4 km/h (2 Bft)
10.11.2025 03:06 21,1 °C 8,7 °C 58 % 94 % 1015,8 hPa 0,0 l/m² 4,1 km/h (1 Bft) SW 232 ° 0 min 0 W/m² 7,8 °C 8,7 °C 6,4 km/h (2 Bft)
10.11.2025 03:07 21,1 °C 8,7 °C 58 % 94 % 1015,8 hPa 0,0 l/m² 1,7 km/h (1 Bft) SW 232 ° 0 min 0 W/m² 7,8 °C 8,7 °C 3,2 km/h (1 Bft)
10.11.2025 03:08 21,1 °C 8,7 °C 58 % 94 % 1015,8 hPa 0,0 l/m² 0,9 km/h (0 Bft) SW 232 ° 0 min 0 W/m² 7,8 °C 8,7 °C 3,2 km/h (1 Bft)
10.11.2025 03:09 21,1 °C 8,7 °C 58 % 94 % 1015,8 hPa 0,0 l/m² 0,2 km/h (0 Bft) SW 232 ° 0 min 0 W/m² 7,8 °C 8,7 °C 3,2 km/h (1 Bft)
10.11.2025 03:10 21,1 °C 8,7 °C 58 % 94 % 1015,8 hPa 0,0 l/m² 1,5 km/h (1 Bft) SW 232 ° 0 min 0 W/m² 7,8 °C 8,7 °C 4,8 km/h (1 Bft)
10.11.2025 03:11 21,1 °C 8,7 °C 58 % 94 % 1015,8 hPa 0,0 l/m² 1,1 km/h (1 Bft) SW 232 ° 0 min 0 W/m² 7,8 °C 8,7 °C 3,2 km/h (1 Bft)
10.11.2025 03:12 21,1 °C 8,7 °C 58 % 94 % 1015,8 hPa 0,0 l/m² 0,1 km/h (0 Bft) SW 232 ° 0 min 0 W/m² 7,8 °C 8,7 °C 1,6 km/h (1 Bft)
10.11.2025 03:13 21,1 °C 8,7 °C 58 % 94 % 1015,8 hPa 0,0 l/m² 0,9 km/h (0 Bft) SW 232 ° 0 min 0 W/m² 7,8 °C 8,7 °C 1,6 km/h (1 Bft)
10.11.2025 03:14 21,2 °C 8,7 °C 58 % 94 % 1015,8 hPa 0,0 l/m² 0,5 km/h (0 Bft) SW 232 ° 0 min 0 W/m² 7,8 °C 8,7 °C 1,6 km/h (1 Bft)
10.11.2025 03:15 21,2 °C 8,7 °C 58 % 94 % 1015,8 hPa 0,0 l/m² 0,9 km/h (0 Bft) SW 232 ° 0 min 0 W/m² 7,8 °C 8,7 °C 3,2 km/h (1 Bft)
10.11.2025 03:16 21,1 °C 8,7 °C 58 % 94 % 1015,8 hPa 0,0 l/m² 1,1 km/h (1 Bft) SW 232 ° 0 min 0 W/m² 7,8 °C 8,7 °C 3,2 km/h (1 Bft)
10.11.2025 03:17 21,2 °C 8,7 °C 58 % 94 % 1015,8 hPa 0,0 l/m² 0,6 km/h (0 Bft) SW 232 ° 0 min 0 W/m² 7,8 °C 8,7 °C 3,2 km/h (1 Bft)
10.11.2025 03:18 21,2 °C 8,7 °C 58 % 94 % 1015,8 hPa 0,0 l/m² 0,0 km/h (0 Bft) SW 232 ° 0 min 0 W/m² 7,8 °C 8,7 °C 0,0 km/h (0 Bft)
10.11.2025 03:19 21,1 °C 8,7 °C 58 % 94 % 1015,9 hPa 0,0 l/m² 0,9 km/h (0 Bft) SW 232 ° 0 min 0 W/m² 7,8 °C 8,7 °C 3,2 km/h (1 Bft)
10.11.2025 03:20 21,1 °C 8,7 °C 58 % 94 % 1015,8 hPa 0,0 l/m² 0,1 km/h (0 Bft) SW 232 ° 0 min 0 W/m² 7,8 °C 8,7 °C 1,6 km/h (1 Bft)
10.11.2025 03:21 21,1 °C 8,7 °C 58 % 94 % 1015,8 hPa 0,0 l/m² 0,0 km/h (0 Bft) SW 232 ° 0 min 0 W/m² 7,8 °C 8,7 °C 0,0 km/h (0 Bft)
10.11.2025 03:22 21,1 °C 8,7 °C 58 % 94 % 1015,8 hPa 0,0 l/m² 0,0 km/h (0 Bft) SW 232 ° 0 min 0 W/m² 7,8 °C 8,7 °C 0,0 km/h (0 Bft)
10.11.2025 03:23 21,1 °C 8,7 °C 58 % 94 % 1015,8 hPa 0,0 l/m² 0,0 km/h (0 Bft) SW 232 ° 0 min 0 W/m² 7,8 °C 8,7 °C 0,0 km/h (0 Bft)
10.11.2025 03:24 21,1 °C 8,6 °C 58 % 94 % 1015,8 hPa 0,0 l/m² 0,0 km/h (0 Bft) SW 232 ° 0 min 0 W/m² 7,7 °C 8,6 °C 0,0 km/h (0 Bft)
10.11.2025 03:25 21,2 °C 8,7 °C 58 % 94 % 1015,9 hPa 0,0 l/m² 0,0 km/h (0 Bft) SW 232 ° 0 min 0 W/m² 7,8 °C 8,7 °C 0,0 km/h (0 Bft)
10.11.2025 03:26 21,2 °C 8,6 °C 58 % 94 % 1015,9 hPa 0,0 l/m² 0,0 km/h (0 Bft) SW 232 ° 0 min 0 W/m² 7,7 °C 8,6 °C 0,0 km/h (0 Bft)
10.11.2025 03:27 21,2 °C 8,6 °C 58 % 94 % 1015,8 hPa 0,0 l/m² 0,0 km/h (0 Bft) SW 232 ° 0 min 0 W/m² 7,7 °C 8,6 °C 0,0 km/h (0 Bft)
10.11.2025 03:28 21,2 °C 8,6 °C 58 % 94 % 1015,8 hPa 0,0 l/m² 0,1 km/h (0 Bft) SW 232 ° 0 min 0 W/m² 7,7 °C 8,6 °C 1,6 km/h (1 Bft)
10.11.2025 03:29 21,2 °C 8,6 °C 58 % 94 % 1015,7 hPa 0,0 l/m² 0,1 km/h (0 Bft) SW 232 ° 0 min 0 W/m² 7,7 °C 8,6 °C 1,6 km/h (1 Bft)
10.11.2025 03:30 21,1 °C 8,6 °C 58 % 94 % 1015,8 hPa 0,0 l/m² 0,0 km/h (0 Bft) SW 232 ° 0 min 0 W/m² 7,7 °C 8,6 °C 0,0 km/h (0 Bft)
10.11.2025 03:31 21,2 °C 8,6 °C 58 % 94 % 1015,8 hPa 0,0 l/m² 0,4 km/h (0 Bft) SW 232 ° 0 min 0 W/m² 7,7 °C 8,6 °C 1,6 km/h (1 Bft)
10.11.2025 03:32 21,2 °C 8,6 °C 58 % 94 % 1015,8 hPa 0,0 l/m² 0,0 km/h (0 Bft) SW 232 ° 0 min 0 W/m² 7,7 °C 8,6 °C 0,0 km/h (0 Bft)
10.11.2025 03:33 21,2 °C 8,6 °C 58 % 94 % 1015,8 hPa 0,0 l/m² 0,0 km/h (0 Bft) SW 232 ° 0 min 0 W/m² 7,7 °C 8,6 °C 0,0 km/h (0 Bft)
10.11.2025 03:34 21,2 °C 8,6 °C 58 % 94 % 1015,8 hPa 0,0 l/m² 0,0 km/h (0 Bft) SW 232 ° 0 min 0 W/m² 7,7 °C 8,6 °C 0,0 km/h (0 Bft)
10.11.2025 03:35 21,2 °C 8,6 °C 58 % 94 % 1015,7 hPa 0,0 l/m² 0,0 km/h (0 Bft) SW 232 ° 0 min 0 W/m² 7,7 °C 8,6 °C 0,0 km/h (0 Bft)
10.11.2025 03:36 21,2 °C 8,6 °C 58 % 94 % 1015,7 hPa 0,0 l/m² 0,0 km/h (0 Bft) SW 232 ° 0 min 0 W/m² 7,7 °C 8,6 °C 0,0 km/h (0 Bft)
10.11.2025 03:37 21,2 °C 8,6 °C 58 % 94 % 1015,8 hPa 0,0 l/m² 0,0 km/h (0 Bft) SW 232 ° 0 min 0 W/m² 7,7 °C 8,6 °C 0,0 km/h (0 Bft)
10.11.2025 03:38 21,1 °C 8,6 °C 58 % 94 % 1015,8 hPa 0,0 l/m² 0,0 km/h (0 Bft) SW 232 ° 0 min 0 W/m² 7,7 °C 8,6 °C 0,0 km/h (0 Bft)
10.11.2025 03:39 21,2 °C 8,6 °C 58 % 94 % 1015,8 hPa 0,0 l/m² 0,1 km/h (0 Bft) SW 232 ° 0 min 0 W/m² 7,7 °C 8,6 °C 1,6 km/h (1 Bft)
10.11.2025 03:40 21,2 °C 8,6 °C 58 % 94 % 1015,8 hPa 0,0 l/m² 0,0 km/h (0 Bft) SW 232 ° 0 min 0 W/m² 7,7 °C 8,6 °C 0,0 km/h (0 Bft)
10.11.2025 03:41 21,2 °C 8,6 °C 58 % 94 % 1015,8 hPa 0,0 l/m² 0,1 km/h (0 Bft) SW 232 ° 0 min 0 W/m² 7,7 °C 8,6 °C 1,6 km/h (1 Bft)
10.11.2025 03:42 21,2 °C 8,6 °C 58 % 94 % 1015,8 hPa 0,0 l/m² 0,0 km/h (0 Bft) SW 232 ° 0 min 0 W/m² 7,7 °C 8,6 °C 0,0 km/h (0 Bft)
10.11.2025 03:43 21,1 °C 8,6 °C 58 % 94 % 1015,8 hPa 0,0 l/m² 0,0 km/h (0 Bft) SW 232 ° 0 min 0 W/m² 7,7 °C 8,6 °C 0,0 km/h (0 Bft)
10.11.2025 03:44 21,1 °C 8,6 °C 58 % 94 % 1015,7 hPa 0,0 l/m² 0,0 km/h (0 Bft) SW 232 ° 0 min 0 W/m² 7,7 °C 8,6 °C 0,0 km/h (0 Bft)
10.11.2025 03:45 21,2 °C 8,6 °C 58 % 94 % 1015,8 hPa 0,0 l/m² 0,0 km/h (0 Bft) SW 232 ° 0 min 0 W/m² 7,7 °C 8,6 °C 0,0 km/h (0 Bft)
10.11.2025 03:46 21,2 °C 8,6 °C 58 % 94 % 1015,8 hPa 0,0 l/m² 0,0 km/h (0 Bft) SW 232 ° 0 min 0 W/m² 7,7 °C 8,6 °C 0,0 km/h (0 Bft)
10.11.2025 03:47 21,2 °C 8,6 °C 58 % 94 % 1015,7 hPa 0,0 l/m² 0,0 km/h (0 Bft) SW 232 ° 0 min 0 W/m² 7,7 °C 8,6 °C 0,0 km/h (0 Bft)
10.11.2025 03:48 21,2 °C 8,6 °C 58 % 94 % 1015,7 hPa 0,0 l/m² 0,0 km/h (0 Bft) SW 232 ° 0 min 0 W/m² 7,7 °C 8,6 °C 0,0 km/h (0 Bft)
10.11.2025 03:49 21,2 °C 8,6 °C 58 % 94 % 1015,7 hPa 0,0 l/m² 0,0 km/h (0 Bft) SW 232 ° 0 min 0 W/m² 7,7 °C 8,6 °C 0,0 km/h (0 Bft)
10.11.2025 03:50 21,2 °C 8,6 °C 58 % 94 % 1015,8 hPa 0,0 l/m² 0,0 km/h (0 Bft) SW 232 ° 0 min 0 W/m² 7,7 °C 8,6 °C 0,0 km/h (0 Bft)
10.11.2025 03:51 21,2 °C 8,6 °C 58 % 94 % 1015,8 hPa 0,0 l/m² 0,0 km/h (0 Bft) SW 232 ° 0 min 0 W/m² 7,7 °C 8,6 °C 0,0 km/h (0 Bft)
10.11.2025 03:52 21,2 °C 8,5 °C 58 % 94 % 1015,8 hPa 0,0 l/m² 0,0 km/h (0 Bft) SW 232 ° 0 min 0 W/m² 7,6 °C 8,5 °C 0,0 km/h (0 Bft)
10.11.2025 03:53 21,2 °C 8,5 °C 58 % 94 % 1015,8 hPa 0,0 l/m² 0,0 km/h (0 Bft) SW 232 ° 0 min 0 W/m² 7,6 °C 8,5 °C 0,0 km/h (0 Bft)
10.11.2025 03:54 21,2 °C 8,5 °C 58 % 94 % 1015,8 hPa 0,0 l/m² 0,0 km/h (0 Bft) SW 232 ° 0 min 0 W/m² 7,6 °C 8,5 °C 0,0 km/h (0 Bft)
10.11.2025 03:55 21,2 °C 8,5 °C 58 % 94 % 1015,8 hPa 0,0 l/m² 0,0 km/h (0 Bft) SW 232 ° 0 min 0 W/m² 7,6 °C 8,5 °C 0,0 km/h (0 Bft)
10.11.2025 03:56 21,2 °C 8,4 °C 58 % 94 % 1015,8 hPa 0,0 l/m² 0,0 km/h (0 Bft) SW 232 ° 0 min 0 W/m² 7,5 °C 8,4 °C 0,0 km/h (0 Bft)
10.11.2025 03:57 21,2 °C 8,4 °C 58 % 94 % 1015,8 hPa 0,0 l/m² 0,0 km/h (0 Bft) SW 232 ° 0 min 0 W/m² 7,5 °C 8,4 °C 0,0 km/h (0 Bft)
10.11.2025 03:58 21,2 °C 8,5 °C 58 % 94 % 1015,8 hPa 0,0 l/m² 0,0 km/h (0 Bft) SW 232 ° 0 min 0 W/m² 7,6 °C 8,5 °C 0,0 km/h (0 Bft)
10.11.2025 03:59 21,2 °C 8,4 °C 58 % 94 % 1015,8 hPa 0,0 l/m² 0,0 km/h (0 Bft) SW 232 ° 0 min 0 W/m² 7,5 °C 8,4 °C 0,0 km/h (0 Bft)
10.11.2025 04:00 21,2 °C 8,4 °C 58 % 94 % 1015,8 hPa 0,0 l/m² 0,1 km/h (0 Bft) SW 232 ° 0 min 0 W/m² 7,5 °C 8,4 °C 1,6 km/h (1 Bft)
10.11.2025 04:01 21,2 °C 8,4 °C 58 % 94 % 1015,8 hPa 0,0 l/m² 0,1 km/h (0 Bft) SW 232 ° 0 min 0 W/m² 7,5 °C 8,4 °C 1,6 km/h (1 Bft)
10.11.2025 04:02 21,2 °C 8,4 °C 58 % 94 % 1015,8 hPa 0,0 l/m² 0,0 km/h (0 Bft) SW 232 ° 0 min 0 W/m² 7,5 °C 8,4 °C 0,0 km/h (0 Bft)
10.11.2025 04:03 21,2 °C 8,4 °C 58 % 94 % 1015,8 hPa 0,0 l/m² 0,0 km/h (0 Bft) SW 232 ° 0 min 0 W/m² 7,5 °C 8,4 °C 0,0 km/h (0 Bft)
10.11.2025 04:04 21,2 °C 8,4 °C 58 % 94 % 1015,8 hPa 0,0 l/m² 0,0 km/h (0 Bft) SW 232 ° 0 min 0 W/m² 7,5 °C 8,4 °C 0,0 km/h (0 Bft)
10.11.2025 04:05 21,2 °C 8,4 °C 58 % 94 % 1015,8 hPa 0,0 l/m² 0,0 km/h (0 Bft) SW 232 ° 0 min 0 W/m² 7,5 °C 8,4 °C 0,0 km/h (0 Bft)
10.11.2025 04:06 21,2 °C 8,4 °C 58 % 94 % 1015,8 hPa 0,0 l/m² 0,0 km/h (0 Bft) SW 232 ° 0 min 0 W/m² 7,5 °C 8,4 °C 0,0 km/h (0 Bft)
10.11.2025 04:07 21,2 °C 8,4 °C 58 % 94 % 1015,8 hPa 0,0 l/m² 0,0 km/h (0 Bft) SW 232 ° 0 min 0 W/m² 7,5 °C 8,4 °C 0,0 km/h (0 Bft)
10.11.2025 04:08 21,2 °C 8,4 °C 58 % 94 % 1015,8 hPa 0,0 l/m² 0,0 km/h (0 Bft) SW 232 ° 0 min 0 W/m² 7,5 °C 8,4 °C 0,0 km/h (0 Bft)
10.11.2025 04:09 21,2 °C 8,4 °C 58 % 94 % 1015,7 hPa 0,0 l/m² 0,1 km/h (0 Bft) SW 232 ° 0 min 0 W/m² 7,5 °C 8,4 °C 1,6 km/h (1 Bft)
10.11.2025 04:10 21,2 °C 8,4 °C 58 % 94 % 1015,7 hPa 0,0 l/m² 0,3 km/h (0 Bft) SW 232 ° 0 min 0 W/m² 7,5 °C 8,4 °C 1,6 km/h (1 Bft)
10.11.2025 04:11 21,2 °C 8,3 °C 58 % 94 % 1015,7 hPa 0,0 l/m² 0,0 km/h (0 Bft) SW 232 ° 0 min 0 W/m² 7,4 °C 8,3 °C 0,0 km/h (0 Bft)
10.11.2025 04:12 21,2 °C 8,4 °C 58 % 94 % 1015,8 hPa 0,0 l/m² 0,0 km/h (0 Bft) SW 232 ° 0 min 0 W/m² 7,5 °C 8,4 °C 0,0 km/h (0 Bft)
10.11.2025 04:13 21,2 °C 8,3 °C 58 % 94 % 1015,8 hPa 0,0 l/m² 0,3 km/h (0 Bft) SW 232 ° 0 min 0 W/m² 7,4 °C 8,3 °C 1,6 km/h (1 Bft)
10.11.2025 04:14 21,2 °C 8,3 °C 58 % 94 % 1015,8 hPa 0,0 l/m² 0,1 km/h (0 Bft) SW 232 ° 0 min 0 W/m² 7,4 °C 8,3 °C 1,6 km/h (1 Bft)
10.11.2025 04:15 21,2 °C 8,3 °C 58 % 94 % 1015,7 hPa 0,0 l/m² 0,0 km/h (0 Bft) SW 232 ° 0 min 0 W/m² 7,4 °C 8,3 °C 0,0 km/h (0 Bft)
10.11.2025 04:16 21,2 °C 8,3 °C 58 % 94 % 1015,8 hPa 0,0 l/m² 0,0 km/h (0 Bft) SW 232 ° 0 min 0 W/m² 7,4 °C 8,3 °C 0,0 km/h (0 Bft)
10.11.2025 04:17 21,2 °C 8,3 °C 58 % 94 % 1015,7 hPa 0,0 l/m² 0,0 km/h (0 Bft) SW 232 ° 0 min 0 W/m² 7,4 °C 8,3 °C 0,0 km/h (0 Bft)
10.11.2025 04:18 21,2 °C 8,3 °C 58 % 94 % 1015,7 hPa 0,0 l/m² 0,0 km/h (0 Bft) SW 232 ° 0 min 0 W/m² 7,4 °C 8,3 °C 0,0 km/h (0 Bft)
10.11.2025 04:19 21,2 °C 8,3 °C 58 % 94 % 1015,8 hPa 0,0 l/m² 0,0 km/h (0 Bft) SW 232 ° 0 min 0 W/m² 7,4 °C 8,3 °C 0,0 km/h (0 Bft)
10.11.2025 04:20 21,2 °C 8,3 °C 58 % 94 % 1015,7 hPa 0,0 l/m² 0,0 km/h (0 Bft) SW 232 ° 0 min 0 W/m² 7,4 °C 8,3 °C 0,0 km/h (0 Bft)
10.11.2025 04:21 21,2 °C 8,3 °C 58 % 94 % 1015,8 hPa 0,0 l/m² 0,0 km/h (0 Bft) SW 232 ° 0 min 0 W/m² 7,4 °C 8,3 °C 0,0 km/h (0 Bft)
10.11.2025 04:22 21,2 °C 8,3 °C 58 % 94 % 1015,7 hPa 0,0 l/m² 0,0 km/h (0 Bft) SW 232 ° 0 min 0 W/m² 7,4 °C 8,3 °C 0,0 km/h (0 Bft)
10.11.2025 04:23 21,2 °C 8,3 °C 58 % 94 % 1015,8 hPa 0,0 l/m² 0,0 km/h (0 Bft) SW 232 ° 0 min 0 W/m² 7,4 °C 8,3 °C 0,0 km/h (0 Bft)
10.11.2025 04:24 21,2 °C 8,3 °C 58 % 94 % 1015,8 hPa 0,0 l/m² 0,0 km/h (0 Bft) SW 232 ° 0 min 0 W/m² 7,4 °C 8,3 °C 0,0 km/h (0 Bft)
10.11.2025 04:25 21,2 °C 8,3 °C 58 % 94 % 1015,8 hPa 0,0 l/m² 0,0 km/h (0 Bft) SW 232 ° 0 min 0 W/m² 7,4 °C 8,3 °C 0,0 km/h (0 Bft)
10.11.2025 04:26 21,2 °C 8,2 °C 58 % 94 % 1015,7 hPa 0,0 l/m² 0,0 km/h (0 Bft) SW 232 ° 0 min 0 W/m² 7,3 °C 8,2 °C 0,0 km/h (0 Bft)
10.11.2025 04:27 21,2 °C 8,2 °C 58 % 94 % 1015,7 hPa 0,0 l/m² 0,0 km/h (0 Bft) SW 232 ° 0 min 0 W/m² 7,3 °C 8,2 °C 0,0 km/h (0 Bft)
10.11.2025 04:28 21,2 °C 8,2 °C 58 % 94 % 1015,7 hPa 0,0 l/m² 0,0 km/h (0 Bft) SW 232 ° 0 min 0 W/m² 7,3 °C 8,2 °C 0,0 km/h (0 Bft)
10.11.2025 04:29 21,2 °C 8,2 °C 58 % 94 % 1015,7 hPa 0,0 l/m² 0,0 km/h (0 Bft) SW 232 ° 0 min 0 W/m² 7,3 °C 8,2 °C 0,0 km/h (0 Bft)
10.11.2025 04:30 21,2 °C 8,2 °C 58 % 94 % 1015,7 hPa 0,0 l/m² 0,0 km/h (0 Bft) SW 232 ° 0 min 0 W/m² 7,3 °C 8,2 °C 0,0 km/h (0 Bft)
10.11.2025 04:31 21,2 °C 8,1 °C 58 % 94 % 1015,7 hPa 0,0 l/m² 0,0 km/h (0 Bft) SW 232 ° 0 min 0 W/m² 7,2 °C 8,1 °C 0,0 km/h (0 Bft)
10.11.2025 04:32 21,2 °C 8,1 °C 58 % 94 % 1015,7 hPa 0,0 l/m² 0,0 km/h (0 Bft) SW 232 ° 0 min 0 W/m² 7,2 °C 8,1 °C 0,0 km/h (0 Bft)
10.11.2025 04:33 21,2 °C 8,1 °C 58 % 94 % 1015,7 hPa 0,0 l/m² 0,0 km/h (0 Bft) SW 232 ° 0 min 0 W/m² 7,2 °C 8,1 °C 0,0 km/h (0 Bft)
10.11.2025 04:34 21,1 °C 8,1 °C 58 % 94 % 1015,7 hPa 0,0 l/m² 0,0 km/h (0 Bft) SW 232 ° 0 min 0 W/m² 7,2 °C 8,1 °C 0,0 km/h (0 Bft)
10.11.2025 04:35 21,2 °C 8,1 °C 58 % 94 % 1015,7 hPa 0,0 l/m² 0,0 km/h (0 Bft) SW 232 ° 0 min 0 W/m² 7,2 °C 8,1 °C 0,0 km/h (0 Bft)
10.11.2025 04:36 21,2 °C 8,1 °C 58 % 94 % 1015,7 hPa 0,0 l/m² 0,0 km/h (0 Bft) SW 232 ° 0 min 0 W/m² 7,2 °C 8,1 °C 0,0 km/h (0 Bft)
10.11.2025 04:37 21,2 °C 8,1 °C 58 % 94 % 1015,6 hPa 0,0 l/m² 0,0 km/h (0 Bft) SW 232 ° 0 min 0 W/m² 7,2 °C 8,1 °C 0,0 km/h (0 Bft)
10.11.2025 04:38 21,2 °C 8,1 °C 58 % 94 % 1015,6 hPa 0,0 l/m² 0,0 km/h (0 Bft) SW 232 ° 0 min 0 W/m² 7,2 °C 8,1 °C 0,0 km/h (0 Bft)
10.11.2025 04:39 21,2 °C 8,1 °C 58 % 94 % 1015,6 hPa 0,0 l/m² 0,0 km/h (0 Bft) SW 232 ° 0 min 0 W/m² 7,2 °C 8,1 °C 0,0 km/h (0 Bft)
10.11.2025 04:40 21,2 °C 8,1 °C 58 % 94 % 1015,6 hPa 0,0 l/m² 0,0 km/h (0 Bft) SW 232 ° 0 min 0 W/m² 7,2 °C 8,1 °C 0,0 km/h (0 Bft)
10.11.2025 04:41 21,2 °C 8,0 °C 58 % 94 % 1015,7 hPa 0,0 l/m² 0,0 km/h (0 Bft) SW 232 ° 0 min 0 W/m² 7,1 °C 8,0 °C 0,0 km/h (0 Bft)
10.11.2025 04:42 21,2 °C 8,0 °C 58 % 94 % 1015,7 hPa 0,0 l/m² 0,0 km/h (0 Bft) SW 232 ° 0 min 0 W/m² 7,1 °C 8,0 °C 0,0 km/h (0 Bft)
10.11.2025 04:43 21,1 °C 8,0 °C 58 % 94 % 1015,7 hPa 0,0 l/m² 0,0 km/h (0 Bft) SW 232 ° 0 min 0 W/m² 7,1 °C 8,0 °C 0,0 km/h (0 Bft)
10.11.2025 04:44 21,2 °C 8,0 °C 58 % 94 % 1015,7 hPa 0,0 l/m² 0,0 km/h (0 Bft) SW 232 ° 0 min 0 W/m² 7,1 °C 8,0 °C 0,0 km/h (0 Bft)
10.11.2025 04:45 21,2 °C 8,0 °C 58 % 94 % 1015,7 hPa 0,0 l/m² 0,0 km/h (0 Bft) SW 232 ° 0 min 0 W/m² 7,1 °C 8,0 °C 0,0 km/h (0 Bft)
10.11.2025 04:46 21,2 °C 8,0 °C 58 % 94 % 1015,7 hPa 0,0 l/m² 0,0 km/h (0 Bft) SW 232 ° 0 min 0 W/m² 7,1 °C 8,0 °C 0,0 km/h (0 Bft)
10.11.2025 04:47 21,2 °C 8,0 °C 58 % 94 % 1015,7 hPa 0,0 l/m² 0,0 km/h (0 Bft) SW 232 ° 0 min 0 W/m² 7,1 °C 8,0 °C 0,0 km/h (0 Bft)
10.11.2025 04:48 21,2 °C 8,0 °C 58 % 94 % 1015,8 hPa 0,0 l/m² 0,3 km/h (0 Bft) SW 232 ° 0 min 0 W/m² 7,1 °C 8,0 °C 1,6 km/h (1 Bft)
10.11.2025 04:49 21,2 °C 8,0 °C 58 % 94 % 1015,7 hPa 0,0 l/m² 0,1 km/h (0 Bft) SW 232 ° 0 min 0 W/m² 7,1 °C 8,0 °C 1,6 km/h (1 Bft)
10.11.2025 04:50 21,2 °C 8,0 °C 58 % 94 % 1015,7 hPa 0,0 l/m² 0,2 km/h (0 Bft) SW 232 ° 0 min 0 W/m² 7,1 °C 8,0 °C 1,6 km/h (1 Bft)
10.11.2025 04:51 21,2 °C 8,0 °C 58 % 94 % 1015,7 hPa 0,0 l/m² 0,5 km/h (0 Bft) SW 232 ° 0 min 0 W/m² 7,1 °C 8,0 °C 1,6 km/h (1 Bft)
10.11.2025 04:52 21,2 °C 7,9 °C 58 % 94 % 1015,8 hPa 0,0 l/m² 0,0 km/h (0 Bft) SW 232 ° 0 min 0 W/m² 7,0 °C 7,9 °C 0,0 km/h (0 Bft)
10.11.2025 04:53 21,2 °C 7,9 °C 58 % 94 % 1015,8 hPa 0,0 l/m² 0,0 km/h (0 Bft) SW 232 ° 0 min 0 W/m² 7,0 °C 7,9 °C 0,0 km/h (0 Bft)
10.11.2025 04:54 21,2 °C 7,9 °C 58 % 94 % 1015,7 hPa 0,0 l/m² 0,0 km/h (0 Bft) SW 232 ° 0 min 0 W/m² 7,0 °C 7,9 °C 0,0 km/h (0 Bft)
10.11.2025 04:55 21,2 °C 7,9 °C 58 % 94 % 1015,7 hPa 0,0 l/m² 0,0 km/h (0 Bft) SW 232 ° 0 min 0 W/m² 7,0 °C 7,9 °C 0,0 km/h (0 Bft)
10.11.2025 04:56 21,2 °C 7,9 °C 58 % 94 % 1015,8 hPa 0,0 l/m² 0,0 km/h (0 Bft) SW 232 ° 0 min 0 W/m² 7,0 °C 7,9 °C 0,0 km/h (0 Bft)
10.11.2025 04:57 21,2 °C 8,0 °C 58 % 94 % 1015,7 hPa 0,0 l/m² 0,0 km/h (0 Bft) SW 232 ° 0 min 0 W/m² 7,1 °C 8,0 °C 0,0 km/h (0 Bft)
10.11.2025 04:58 21,2 °C 7,9 °C 58 % 94 % 1015,7 hPa 0,0 l/m² 0,0 km/h (0 Bft) SW 232 ° 0 min 0 W/m² 7,0 °C 7,9 °C 0,0 km/h (0 Bft)
10.11.2025 04:59 21,2 °C 7,9 °C 58 % 94 % 1015,7 hPa 0,0 l/m² 0,0 km/h (0 Bft) SW 232 ° 0 min 0 W/m² 7,0 °C 7,9 °C 0,0 km/h (0 Bft)
10.11.2025 05:00 21,2 °C 7,9 °C 58 % 94 % 1015,7 hPa 0,0 l/m² 0,0 km/h (0 Bft) SW 232 ° 0 min 0 W/m² 7,0 °C 7,9 °C 0,0 km/h (0 Bft)
10.11.2025 05:01 21,2 °C 7,9 °C 58 % 94 % 1015,7 hPa 0,0 l/m² 0,0 km/h (0 Bft) SW 232 ° 0 min 0 W/m² 7,0 °C 7,9 °C 0,0 km/h (0 Bft)
10.11.2025 05:02 21,2 °C 7,9 °C 58 % 94 % 1015,8 hPa 0,0 l/m² 0,0 km/h (0 Bft) SW 232 ° 0 min 0 W/m² 7,0 °C 7,9 °C 0,0 km/h (0 Bft)
10.11.2025 05:03 21,2 °C 7,9 °C 58 % 94 % 1015,8 hPa 0,0 l/m² 0,0 km/h (0 Bft) SW 232 ° 0 min 0 W/m² 7,0 °C 7,9 °C 0,0 km/h (0 Bft)
10.11.2025 05:04 21,2 °C 7,9 °C 58 % 94 % 1015,8 hPa 0,0 l/m² 0,0 km/h (0 Bft) SW 232 ° 0 min 0 W/m² 7,0 °C 7,9 °C 0,0 km/h (0 Bft)
10.11.2025 05:05 21,2 °C 7,9 °C 58 % 94 % 1015,8 hPa 0,0 l/m² 0,0 km/h (0 Bft) SW 232 ° 0 min 0 W/m² 7,0 °C 7,9 °C 0,0 km/h (0 Bft)
10.11.2025 05:06 21,2 °C 7,9 °C 58 % 94 % 1015,8 hPa 0,0 l/m² 0,0 km/h (0 Bft) SW 232 ° 0 min 0 W/m² 7,0 °C 7,9 °C 0,0 km/h (0 Bft)
10.11.2025 05:07 21,2 °C 7,9 °C 58 % 94 % 1015,7 hPa 0,0 l/m² 0,0 km/h (0 Bft) SW 232 ° 0 min 0 W/m² 7,0 °C 7,9 °C 0,0 km/h (0 Bft)
10.11.2025 05:08 21,2 °C 7,9 °C 58 % 94 % 1015,7 hPa 0,0 l/m² 0,0 km/h (0 Bft) SW 232 ° 0 min 0 W/m² 7,0 °C 7,9 °C 0,0 km/h (0 Bft)
10.11.2025 05:09 21,2 °C 7,9 °C 58 % 94 % 1015,7 hPa 0,0 l/m² 0,0 km/h (0 Bft) SW 232 ° 0 min 0 W/m² 7,0 °C 7,9 °C 0,0 km/h (0 Bft)
10.11.2025 05:10 21,2 °C 7,9 °C 58 % 94 % 1015,7 hPa 0,0 l/m² 0,0 km/h (0 Bft) SW 232 ° 0 min 0 W/m² 7,0 °C 7,9 °C 0,0 km/h (0 Bft)
10.11.2025 05:11 21,2 °C 7,9 °C 58 % 94 % 1015,8 hPa 0,0 l/m² 0,0 km/h (0 Bft) SW 232 ° 0 min 0 W/m² 7,0 °C 7,9 °C 0,0 km/h (0 Bft)
10.11.2025 05:12 21,2 °C 7,9 °C 58 % 94 % 1015,7 hPa 0,0 l/m² 0,0 km/h (0 Bft) SW 232 ° 0 min 0 W/m² 7,0 °C 7,9 °C 0,0 km/h (0 Bft)
10.11.2025 05:13 21,2 °C 7,9 °C 58 % 94 % 1015,7 hPa 0,0 l/m² 0,0 km/h (0 Bft) SW 232 ° 0 min 0 W/m² 7,0 °C 7,9 °C 0,0 km/h (0 Bft)
10.11.2025 05:14 21,2 °C 7,9 °C 58 % 94 % 1015,7 hPa 0,0 l/m² 0,0 km/h (0 Bft) SW 232 ° 0 min 0 W/m² 7,0 °C 7,9 °C 0,0 km/h (0 Bft)
10.11.2025 05:15 21,2 °C 7,9 °C 58 % 94 % 1015,7 hPa 0,0 l/m² 0,0 km/h (0 Bft) SW 232 ° 0 min 0 W/m² 7,0 °C 7,9 °C 0,0 km/h (0 Bft)
10.11.2025 05:16 21,2 °C 7,9 °C 58 % 94 % 1015,7 hPa 0,0 l/m² 0,0 km/h (0 Bft) SW 232 ° 0 min 0 W/m² 7,0 °C 7,9 °C 0,0 km/h (0 Bft)
10.11.2025 05:17 21,2 °C 7,9 °C 58 % 94 % 1015,6 hPa 0,0 l/m² 0,0 km/h (0 Bft) SW 232 ° 0 min 0 W/m² 7,0 °C 7,9 °C 0,0 km/h (0 Bft)
10.11.2025 05:18 21,2 °C 7,9 °C 58 % 94 % 1015,7 hPa 0,0 l/m² 0,0 km/h (0 Bft) SW 232 ° 0 min 0 W/m² 7,0 °C 7,9 °C 0,0 km/h (0 Bft)
10.11.2025 05:19 21,2 °C 7,9 °C 58 % 94 % 1015,7 hPa 0,0 l/m² 0,0 km/h (0 Bft) SW 232 ° 0 min 0 W/m² 7,0 °C 7,9 °C 0,0 km/h (0 Bft)
10.11.2025 05:20 21,2 °C 7,8 °C 58 % 94 % 1015,6 hPa 0,0 l/m² 0,0 km/h (0 Bft) SW 232 ° 0 min 0 W/m² 6,9 °C 7,8 °C 0,0 km/h (0 Bft)
10.11.2025 05:21 21,2 °C 7,8 °C 58 % 94 % 1015,7 hPa 0,0 l/m² 0,0 km/h (0 Bft) SW 232 ° 0 min 0 W/m² 6,9 °C 7,8 °C 0,0 km/h (0 Bft)
10.11.2025 05:22 21,2 °C 7,8 °C 58 % 94 % 1015,7 hPa 0,0 l/m² 0,0 km/h (0 Bft) SW 232 ° 0 min 0 W/m² 6,9 °C 7,8 °C 0,0 km/h (0 Bft)
10.11.2025 05:23 21,2 °C 7,8 °C 58 % 94 % 1015,7 hPa 0,0 l/m² 0,0 km/h (0 Bft) SW 232 ° 0 min 0 W/m² 6,9 °C 7,8 °C 0,0 km/h (0 Bft)
10.11.2025 05:24 21,2 °C 7,8 °C 58 % 94 % 1015,6 hPa 0,0 l/m² 0,0 km/h (0 Bft) SW 232 ° 0 min 0 W/m² 6,9 °C 7,8 °C 0,0 km/h (0 Bft)
10.11.2025 05:25 21,2 °C 7,8 °C 58 % 94 % 1015,6 hPa 0,0 l/m² 0,0 km/h (0 Bft) SW 232 ° 0 min 0 W/m² 6,9 °C 7,8 °C 0,0 km/h (0 Bft)
10.11.2025 05:26 21,2 °C 7,8 °C 58 % 94 % 1015,6 hPa 0,0 l/m² 0,0 km/h (0 Bft) SW 232 ° 0 min 0 W/m² 6,9 °C 7,8 °C 0,0 km/h (0 Bft)
10.11.2025 05:27 21,2 °C 7,8 °C 58 % 94 % 1015,6 hPa 0,0 l/m² 0,0 km/h (0 Bft) SW 232 ° 0 min 0 W/m² 6,9 °C 7,8 °C 0,0 km/h (0 Bft)
10.11.2025 05:28 21,2 °C 7,8 °C 58 % 94 % 1015,6 hPa 0,0 l/m² 0,0 km/h (0 Bft) SW 232 ° 0 min 0 W/m² 6,9 °C 7,8 °C 0,0 km/h (0 Bft)
10.11.2025 05:29 21,2 °C 7,8 °C 58 % 94 % 1015,7 hPa 0,0 l/m² 0,0 km/h (0 Bft) SW 232 ° 0 min 0 W/m² 6,9 °C 7,8 °C 0,0 km/h (0 Bft)
10.11.2025 05:30 21,2 °C 7,8 °C 58 % 94 % 1015,6 hPa 0,0 l/m² 0,0 km/h (0 Bft) SW 232 ° 0 min 0 W/m² 6,9 °C 7,8 °C 0,0 km/h (0 Bft)
10.11.2025 05:31 21,2 °C 7,8 °C 58 % 94 % 1015,7 hPa 0,0 l/m² 0,0 km/h (0 Bft) SW 232 ° 0 min 0 W/m² 6,9 °C 7,8 °C 0,0 km/h (0 Bft)
10.11.2025 05:32 21,2 °C 7,8 °C 58 % 94 % 1015,7 hPa 0,0 l/m² 0,0 km/h (0 Bft) SW 232 ° 0 min 0 W/m² 6,9 °C 7,8 °C 0,0 km/h (0 Bft)
10.11.2025 05:33 21,2 °C 7,8 °C 58 % 94 % 1015,7 hPa 0,0 l/m² 0,0 km/h (0 Bft) SW 232 ° 0 min 0 W/m² 6,9 °C 7,8 °C 0,0 km/h (0 Bft)
10.11.2025 05:34 21,2 °C 7,7 °C 58 % 94 % 1015,7 hPa 0,0 l/m² 0,0 km/h (0 Bft) SW 232 ° 0 min 0 W/m² 6,8 °C 7,7 °C 0,0 km/h (0 Bft)
10.11.2025 05:35 21,2 °C 7,8 °C 58 % 94 % 1015,6 hPa 0,0 l/m² 0,0 km/h (0 Bft) SW 232 ° 0 min 0 W/m² 6,9 °C 7,8 °C 0,0 km/h (0 Bft)
10.11.2025 05:36 21,2 °C 7,8 °C 58 % 94 % 1015,6 hPa 0,0 l/m² 0,0 km/h (0 Bft) SW 232 ° 0 min 0 W/m² 6,9 °C 7,8 °C 0,0 km/h (0 Bft)
10.11.2025 05:37 21,2 °C 7,7 °C 58 % 94 % 1015,7 hPa 0,0 l/m² 0,0 km/h (0 Bft) SW 232 ° 0 min 0 W/m² 6,8 °C 7,7 °C 0,0 km/h (0 Bft)
10.11.2025 05:38 21,2 °C 7,8 °C 58 % 94 % 1015,6 hPa 0,0 l/m² 0,0 km/h (0 Bft) SW 232 ° 0 min 0 W/m² 6,9 °C 7,8 °C 0,0 km/h (0 Bft)
10.11.2025 05:39 21,2 °C 7,7 °C 58 % 94 % 1015,6 hPa 0,0 l/m² 0,0 km/h (0 Bft) SW 232 ° 0 min 0 W/m² 6,8 °C 7,7 °C 0,0 km/h (0 Bft)
10.11.2025 05:40 21,2 °C 7,7 °C 58 % 94 % 1015,6 hPa 0,0 l/m² 0,0 km/h (0 Bft) SW 232 ° 0 min 0 W/m² 6,8 °C 7,7 °C 0,0 km/h (0 Bft)
10.11.2025 05:41 21,2 °C 7,7 °C 58 % 94 % 1015,7 hPa 0,0 l/m² 0,0 km/h (0 Bft) SW 232 ° 0 min 0 W/m² 6,8 °C 7,7 °C 0,0 km/h (0 Bft)
10.11.2025 05:42 21,2 °C 7,7 °C 58 % 94 % 1015,7 hPa 0,0 l/m² 0,0 km/h (0 Bft) SW 232 ° 0 min 0 W/m² 6,8 °C 7,7 °C 0,0 km/h (0 Bft)
10.11.2025 05:43 21,2 °C 7,7 °C 58 % 94 % 1015,7 hPa 0,0 l/m² 0,0 km/h (0 Bft) SW 232 ° 0 min 0 W/m² 6,8 °C 7,7 °C 0,0 km/h (0 Bft)
10.11.2025 05:44 21,2 °C 7,7 °C 58 % 94 % 1015,6 hPa 0,0 l/m² 0,0 km/h (0 Bft) SW 232 ° 0 min 0 W/m² 6,8 °C 7,7 °C 0,0 km/h (0 Bft)
10.11.2025 05:45 21,2 °C 7,7 °C 58 % 94 % 1015,6 hPa 0,0 l/m² 0,0 km/h (0 Bft) SW 232 ° 0 min 0 W/m² 6,8 °C 7,7 °C 0,0 km/h (0 Bft)
10.11.2025 05:46 21,2 °C 7,7 °C 58 % 94 % 1015,6 hPa 0,0 l/m² 0,0 km/h (0 Bft) SW 232 ° 0 min 0 W/m² 6,8 °C 7,7 °C 0,0 km/h (0 Bft)
10.11.2025 05:47 21,2 °C 7,7 °C 58 % 94 % 1015,7 hPa 0,0 l/m² 0,0 km/h (0 Bft) SW 232 ° 0 min 0 W/m² 6,8 °C 7,7 °C 0,0 km/h (0 Bft)
10.11.2025 05:48 21,2 °C 7,7 °C 58 % 94 % 1015,6 hPa 0,0 l/m² 0,0 km/h (0 Bft) SW 232 ° 0 min 0 W/m² 6,8 °C 7,7 °C 0,0 km/h (0 Bft)
10.11.2025 05:49 21,2 °C 7,7 °C 58 % 94 % 1015,7 hPa 0,0 l/m² 0,0 km/h (0 Bft) SW 232 ° 0 min 0 W/m² 6,8 °C 7,7 °C 0,0 km/h (0 Bft)
10.11.2025 05:50 21,2 °C 7,7 °C 58 % 94 % 1015,7 hPa 0,0 l/m² 0,0 km/h (0 Bft) SW 232 ° 0 min 0 W/m² 6,8 °C 7,7 °C 0,0 km/h (0 Bft)
10.11.2025 05:51 21,2 °C 7,7 °C 58 % 94 % 1015,7 hPa 0,0 l/m² 0,0 km/h (0 Bft) SW 232 ° 0 min 0 W/m² 6,8 °C 7,7 °C 0,0 km/h (0 Bft)
10.11.2025 05:52 21,2 °C 7,7 °C 58 % 94 % 1015,7 hPa 0,0 l/m² 0,0 km/h (0 Bft) SW 232 ° 0 min 0 W/m² 6,8 °C 7,7 °C 0,0 km/h (0 Bft)
10.11.2025 05:53 21,2 °C 7,7 °C 58 % 94 % 1015,7 hPa 0,0 l/m² 0,0 km/h (0 Bft) SW 232 ° 0 min 0 W/m² 6,8 °C 7,7 °C 0,0 km/h (0 Bft)
10.11.2025 05:54 21,2 °C 7,7 °C 58 % 94 % 1015,6 hPa 0,0 l/m² 0,0 km/h (0 Bft) SW 232 ° 0 min 0 W/m² 6,8 °C 7,7 °C 0,0 km/h (0 Bft)
10.11.2025 05:55 21,2 °C 7,7 °C 58 % 94 % 1015,8 hPa 0,0 l/m² 0,0 km/h (0 Bft) SW 232 ° 0 min 0 W/m² 6,8 °C 7,7 °C 0,0 km/h (0 Bft)
10.11.2025 05:56 21,2 °C 7,7 °C 58 % 94 % 1015,7 hPa 0,0 l/m² 0,0 km/h (0 Bft) SW 232 ° 0 min 0 W/m² 6,8 °C 7,7 °C 0,0 km/h (0 Bft)
10.11.2025 05:57 21,2 °C 7,7 °C 58 % 94 % 1015,7 hPa 0,0 l/m² 0,0 km/h (0 Bft) SW 232 ° 0 min 0 W/m² 6,8 °C 7,7 °C 0,0 km/h (0 Bft)
10.11.2025 05:58 21,2 °C 7,7 °C 58 % 94 % 1015,7 hPa 0,0 l/m² 0,0 km/h (0 Bft) SW 232 ° 0 min 0 W/m² 6,8 °C 7,7 °C 0,0 km/h (0 Bft)
10.11.2025 05:59 21,2 °C 7,7 °C 58 % 94 % 1015,7 hPa 0,0 l/m² 0,0 km/h (0 Bft) SW 232 ° 0 min 0 W/m² 6,8 °C 7,7 °C 0,0 km/h (0 Bft)
10.11.2025 06:00 21,2 °C 7,7 °C 58 % 94 % 1015,7 hPa 0,0 l/m² 0,0 km/h (0 Bft) SW 232 ° 0 min 0 W/m² 6,8 °C 7,7 °C 0,0 km/h (0 Bft)
10.11.2025 06:01 21,2 °C 7,7 °C 58 % 94 % 1015,7 hPa 0,0 l/m² 0,0 km/h (0 Bft) SW 232 ° 0 min 0 W/m² 6,8 °C 7,7 °C 0,0 km/h (0 Bft)
10.11.2025 06:02 21,2 °C 7,7 °C 58 % 94 % 1015,7 hPa 0,0 l/m² 0,0 km/h (0 Bft) SW 232 ° 0 min 0 W/m² 6,8 °C 7,7 °C 0,0 km/h (0 Bft)
10.11.2025 06:03 21,2 °C 7,7 °C 58 % 94 % 1015,7 hPa 0,0 l/m² 0,0 km/h (0 Bft) SW 232 ° 0 min 0 W/m² 6,8 °C 7,7 °C 0,0 km/h (0 Bft)
10.11.2025 06:04 21,2 °C 7,7 °C 58 % 94 % 1015,7 hPa 0,0 l/m² 0,0 km/h (0 Bft) SW 232 ° 0 min 0 W/m² 6,8 °C 7,7 °C 0,0 km/h (0 Bft)
10.11.2025 06:05 21,2 °C 7,7 °C 58 % 94 % 1015,7 hPa 0,0 l/m² 0,0 km/h (0 Bft) SW 232 ° 0 min 0 W/m² 6,8 °C 7,7 °C 0,0 km/h (0 Bft)
10.11.2025 06:06 21,2 °C 7,7 °C 58 % 94 % 1015,8 hPa 0,0 l/m² 0,0 km/h (0 Bft) SW 232 ° 0 min 0 W/m² 6,8 °C 7,7 °C 0,0 km/h (0 Bft)
10.11.2025 06:07 21,1 °C 7,7 °C 58 % 94 % 1015,7 hPa 0,0 l/m² 0,0 km/h (0 Bft) SW 232 ° 0 min 0 W/m² 6,8 °C 7,7 °C 0,0 km/h (0 Bft)
10.11.2025 06:08 21,2 °C 7,6 °C 58 % 94 % 1015,7 hPa 0,0 l/m² 0,0 km/h (0 Bft) SW 232 ° 0 min 0 W/m² 6,7 °C 7,6 °C 0,0 km/h (0 Bft)
10.11.2025 06:09 21,2 °C 7,6 °C 58 % 94 % 1015,7 hPa 0,0 l/m² 0,0 km/h (0 Bft) SW 232 ° 0 min 0 W/m² 6,7 °C 7,6 °C 0,0 km/h (0 Bft)
10.11.2025 06:10 21,1 °C 7,7 °C 58 % 94 % 1015,8 hPa 0,0 l/m² 0,0 km/h (0 Bft) SW 232 ° 0 min 0 W/m² 6,8 °C 7,7 °C 0,0 km/h (0 Bft)
10.11.2025 06:11 21,1 °C 7,6 °C 58 % 94 % 1015,8 hPa 0,0 l/m² 0,0 km/h (0 Bft) SW 232 ° 0 min 0 W/m² 6,7 °C 7,6 °C 0,0 km/h (0 Bft)
10.11.2025 06:12 21,2 °C 7,6 °C 58 % 94 % 1015,8 hPa 0,0 l/m² 0,0 km/h (0 Bft) SW 232 ° 0 min 0 W/m² 6,7 °C 7,6 °C 0,0 km/h (0 Bft)
10.11.2025 06:13 21,1 °C 7,6 °C 58 % 94 % 1015,8 hPa 0,0 l/m² 0,0 km/h (0 Bft) SW 232 ° 0 min 0 W/m² 6,7 °C 7,6 °C 0,0 km/h (0 Bft)
10.11.2025 06:14 21,1 °C 7,6 °C 58 % 94 % 1015,8 hPa 0,0 l/m² 0,0 km/h (0 Bft) SW 232 ° 0 min 0 W/m² 6,7 °C 7,6 °C 0,0 km/h (0 Bft)
10.11.2025 06:15 21,2 °C 7,6 °C 58 % 94 % 1015,9 hPa 0,0 l/m² 0,0 km/h (0 Bft) SW 232 ° 0 min 0 W/m² 6,7 °C 7,6 °C 0,0 km/h (0 Bft)
10.11.2025 06:16 21,2 °C 7,6 °C 58 % 94 % 1015,8 hPa 0,0 l/m² 0,0 km/h (0 Bft) SW 232 ° 0 min 0 W/m² 6,7 °C 7,6 °C 0,0 km/h (0 Bft)
10.11.2025 06:17 21,1 °C 7,6 °C 58 % 94 % 1015,7 hPa 0,0 l/m² 0,0 km/h (0 Bft) SW 232 ° 0 min 0 W/m² 6,7 °C 7,6 °C 0,0 km/h (0 Bft)
10.11.2025 06:18 21,2 °C 7,6 °C 58 % 94 % 1015,8 hPa 0,0 l/m² 0,0 km/h (0 Bft) SW 232 ° 0 min 0 W/m² 6,7 °C 7,6 °C 0,0 km/h (0 Bft)
10.11.2025 06:19 21,2 °C 7,6 °C 58 % 94 % 1015,9 hPa 0,0 l/m² 0,0 km/h (0 Bft) SW 232 ° 0 min 0 W/m² 6,7 °C 7,6 °C 0,0 km/h (0 Bft)
10.11.2025 06:20 21,2 °C 7,6 °C 58 % 94 % 1015,8 hPa 0,0 l/m² 0,0 km/h (0 Bft) SW 232 ° 0 min 0 W/m² 6,7 °C 7,6 °C 0,0 km/h (0 Bft)
10.11.2025 06:21 21,2 °C 7,6 °C 58 % 94 % 1015,8 hPa 0,0 l/m² 0,0 km/h (0 Bft) SW 232 ° 0 min 0 W/m² 6,7 °C 7,6 °C 0,0 km/h (0 Bft)
10.11.2025 06:22 21,2 °C 7,6 °C 58 % 94 % 1015,8 hPa 0,0 l/m² 0,0 km/h (0 Bft) SW 232 ° 0 min 0 W/m² 6,7 °C 7,6 °C 0,0 km/h (0 Bft)
10.11.2025 06:23 21,2 °C 7,5 °C 58 % 94 % 1015,8 hPa 0,0 l/m² 0,0 km/h (0 Bft) SW 232 ° 0 min 0 W/m² 6,6 °C 7,5 °C 0,0 km/h (0 Bft)
10.11.2025 06:24 21,1 °C 7,5 °C 58 % 94 % 1015,8 hPa 0,0 l/m² 0,0 km/h (0 Bft) SW 232 ° 0 min 0 W/m² 6,6 °C 7,5 °C 0,0 km/h (0 Bft)
10.11.2025 06:25 21,1 °C 7,5 °C 58 % 94 % 1015,8 hPa 0,0 l/m² 0,0 km/h (0 Bft) SW 232 ° 0 min 0 W/m² 6,6 °C 7,5 °C 0,0 km/h (0 Bft)
10.11.2025 06:26 21,1 °C 7,5 °C 58 % 94 % 1015,8 hPa 0,0 l/m² 0,0 km/h (0 Bft) SW 232 ° 0 min 0 W/m² 6,6 °C 7,5 °C 0,0 km/h (0 Bft)
10.11.2025 06:27 21,2 °C 7,5 °C 58 % 94 % 1015,7 hPa 0,0 l/m² 0,0 km/h (0 Bft) SW 232 ° 0 min 0 W/m² 6,6 °C 7,5 °C 0,0 km/h (0 Bft)
10.11.2025 06:28 21,1 °C 7,5 °C 58 % 94 % 1015,7 hPa 0,0 l/m² 0,0 km/h (0 Bft) SW 232 ° 0 min 0 W/m² 6,6 °C 7,5 °C 0,0 km/h (0 Bft)
10.11.2025 06:29 21,1 °C 7,4 °C 58 % 94 % 1015,7 hPa 0,0 l/m² 0,0 km/h (0 Bft) SW 232 ° 0 min 0 W/m² 6,5 °C 7,4 °C 0,0 km/h (0 Bft)
10.11.2025 06:30 21,1 °C 7,4 °C 58 % 94 % 1015,8 hPa 0,0 l/m² 0,0 km/h (0 Bft) SW 232 ° 0 min 0 W/m² 6,5 °C 7,4 °C 0,0 km/h (0 Bft)
10.11.2025 06:31 21,1 °C 7,4 °C 58 % 94 % 1015,7 hPa 0,0 l/m² 0,0 km/h (0 Bft) SW 232 ° 0 min 0 W/m² 6,5 °C 7,4 °C 0,0 km/h (0 Bft)
10.11.2025 06:32 21,1 °C 7,4 °C 58 % 94 % 1015,7 hPa 0,0 l/m² 0,0 km/h (0 Bft) SW 232 ° 0 min 0 W/m² 6,5 °C 7,4 °C 0,0 km/h (0 Bft)
10.11.2025 06:33 21,1 °C 7,4 °C 58 % 94 % 1015,7 hPa 0,0 l/m² 0,0 km/h (0 Bft) SW 232 ° 0 min 0 W/m² 6,5 °C 7,4 °C 0,0 km/h (0 Bft)
10.11.2025 06:34 21,2 °C 7,4 °C 58 % 94 % 1015,7 hPa 0,0 l/m² 0,0 km/h (0 Bft) SW 232 ° 0 min 0 W/m² 6,5 °C 7,4 °C 0,0 km/h (0 Bft)
10.11.2025 06:35 21,1 °C 7,4 °C 58 % 94 % 1015,6 hPa 0,0 l/m² 0,0 km/h (0 Bft) SW 232 ° 0 min 0 W/m² 6,5 °C 7,4 °C 0,0 km/h (0 Bft)
10.11.2025 06:36 21,2 °C 7,4 °C 58 % 94 % 1015,7 hPa 0,0 l/m² 0,0 km/h (0 Bft) SW 232 ° 0 min 0 W/m² 6,5 °C 7,4 °C 0,0 km/h (0 Bft)
10.11.2025 06:37 21,1 °C 7,4 °C 58 % 94 % 1015,7 hPa 0,0 l/m² 0,0 km/h (0 Bft) SW 232 ° 0 min 0 W/m² 6,5 °C 7,4 °C 0,0 km/h (0 Bft)
10.11.2025 06:38 21,1 °C 7,4 °C 58 % 94 % 1015,7 hPa 0,0 l/m² 0,0 km/h (0 Bft) SW 232 ° 0 min 0 W/m² 6,5 °C 7,4 °C 0,0 km/h (0 Bft)
10.11.2025 06:39 21,2 °C 7,4 °C 58 % 94 % 1015,7 hPa 0,0 l/m² 0,0 km/h (0 Bft) SW 232 ° 0 min 0 W/m² 6,5 °C 7,4 °C 0,0 km/h (0 Bft)
10.11.2025 06:40 21,1 °C 7,4 °C 58 % 94 % 1015,7 hPa 0,0 l/m² 0,0 km/h (0 Bft) SW 232 ° 0 min 0 W/m² 6,5 °C 7,4 °C 0,0 km/h (0 Bft)
10.11.2025 06:41 21,1 °C 7,4 °C 58 % 94 % 1015,7 hPa 0,0 l/m² 0,0 km/h (0 Bft) SW 232 ° 0 min 0 W/m² 6,5 °C 7,4 °C 0,0 km/h (0 Bft)
10.11.2025 06:42 21,1 °C 7,3 °C 58 % 94 % 1015,7 hPa 0,0 l/m² 0,0 km/h (0 Bft) SW 232 ° 0 min 0 W/m² 6,4 °C 7,3 °C 0,0 km/h (0 Bft)
10.11.2025 06:43 21,1 °C 7,4 °C 58 % 94 % 1015,8 hPa 0,0 l/m² 0,0 km/h (0 Bft) SW 232 ° 0 min 0 W/m² 6,5 °C 7,4 °C 0,0 km/h (0 Bft)
10.11.2025 06:45 21,2 °C 7,3 °C 58 % 94 % 1015,7 hPa 0,0 l/m² 0,0 km/h (0 Bft) SW 232 ° 0 min 0 W/m² 6,4 °C 7,3 °C 0,0 km/h (0 Bft)
10.11.2025 06:46 21,2 °C 7,3 °C 58 % 94 % 1015,8 hPa 0,0 l/m² 0,0 km/h (0 Bft) SW 232 ° 0 min 0 W/m² 6,4 °C 7,3 °C 0,0 km/h (0 Bft)
10.11.2025 06:47 21,2 °C 7,3 °C 58 % 94 % 1015,8 hPa 0,0 l/m² 0,0 km/h (0 Bft) SW 232 ° 0 min 0 W/m² 6,4 °C 7,3 °C 0,0 km/h (0 Bft)
10.11.2025 06:48 21,1 °C 7,3 °C 58 % 94 % 1015,7 hPa 0,0 l/m² 0,0 km/h (0 Bft) SW 232 ° 0 min 0 W/m² 6,4 °C 7,3 °C 0,0 km/h (0 Bft)
10.11.2025 06:49 21,1 °C 7,3 °C 58 % 94 % 1015,6 hPa 0,0 l/m² 0,0 km/h (0 Bft) SW 232 ° 0 min 0 W/m² 6,4 °C 7,3 °C 0,0 km/h (0 Bft)
10.11.2025 06:50 21,1 °C 7,3 °C 58 % 94 % 1015,7 hPa 0,0 l/m² 0,0 km/h (0 Bft) SW 232 ° 0 min 0 W/m² 6,4 °C 7,3 °C 0,0 km/h (0 Bft)
10.11.2025 06:51 21,1 °C 7,3 °C 58 % 94 % 1015,7 hPa 0,0 l/m² 0,0 km/h (0 Bft) SW 232 ° 0 min 0 W/m² 6,4 °C 7,3 °C 0,0 km/h (0 Bft)
10.11.2025 06:52 21,1 °C 7,3 °C 58 % 94 % 1015,8 hPa 0,0 l/m² 0,0 km/h (0 Bft) SW 232 ° 0 min 0 W/m² 6,4 °C 7,3 °C 0,0 km/h (0 Bft)
10.11.2025 06:53 21,1 °C 7,3 °C 58 % 94 % 1015,8 hPa 0,0 l/m² 0,0 km/h (0 Bft) SW 232 ° 0 min 0 W/m² 6,4 °C 7,3 °C 0,0 km/h (0 Bft)
10.11.2025 06:54 21,2 °C 7,3 °C 58 % 94 % 1015,7 hPa 0,0 l/m² 0,0 km/h (0 Bft) SW 232 ° 0 min 0 W/m² 6,4 °C 7,3 °C 0,0 km/h (0 Bft)
10.11.2025 06:55 21,1 °C 7,3 °C 58 % 94 % 1015,8 hPa 0,0 l/m² 0,0 km/h (0 Bft) SW 232 ° 0 min 0 W/m² 6,4 °C 7,3 °C 0,0 km/h (0 Bft)
10.11.2025 06:56 21,2 °C 7,2 °C 58 % 94 % 1015,8 hPa 0,0 l/m² 0,0 km/h (0 Bft) SW 232 ° 0 min 0 W/m² 6,3 °C 7,2 °C 0,0 km/h (0 Bft)
10.11.2025 06:57 21,2 °C 7,2 °C 58 % 94 % 1015,8 hPa 0,0 l/m² 0,0 km/h (0 Bft) SW 232 ° 0 min 0 W/m² 6,3 °C 7,2 °C 0,0 km/h (0 Bft)
10.11.2025 06:58 21,2 °C 7,3 °C 58 % 94 % 1015,8 hPa 0,0 l/m² 0,0 km/h (0 Bft) SW 232 ° 0 min 0 W/m² 6,4 °C 7,3 °C 0,0 km/h (0 Bft)
10.11.2025 06:59 21,2 °C 7,2 °C 58 % 94 % 1015,8 hPa 0,0 l/m² 0,0 km/h (0 Bft) SW 232 ° 0 min 0 W/m² 6,3 °C 7,2 °C 0,0 km/h (0 Bft)
10.11.2025 07:00 21,2 °C 7,2 °C 58 % 94 % 1015,8 hPa 0,0 l/m² 0,3 km/h (0 Bft) SW 232 ° 0 min 0 W/m² 6,3 °C 7,2 °C 1,6 km/h (1 Bft)
10.11.2025 07:02 21,2 °C 7,2 °C 58 % 94 % 1015,9 hPa 0,0 l/m² 0,0 km/h (0 Bft) SW 232 ° 0 min 0 W/m² 6,3 °C 7,2 °C 0,0 km/h (0 Bft)
10.11.2025 07:03 21,2 °C 7,2 °C 58 % 94 % 1015,9 hPa 0,0 l/m² 0,0 km/h (0 Bft) SW 232 ° 0 min 0 W/m² 6,3 °C 7,2 °C 0,0 km/h (0 Bft)
10.11.2025 07:04 21,2 °C 7,2 °C 58 % 94 % 1015,8 hPa 0,0 l/m² 0,0 km/h (0 Bft) SW 232 ° 0 min 0 W/m² 6,3 °C 7,2 °C 0,0 km/h (0 Bft)
10.11.2025 07:05 21,2 °C 7,2 °C 58 % 94 % 1015,8 hPa 0,0 l/m² 0,0 km/h (0 Bft) SW 232 ° 0 min 0 W/m² 6,3 °C 7,2 °C 0,0 km/h (0 Bft)
10.11.2025 07:06 21,2 °C 7,2 °C 58 % 94 % 1015,8 hPa 0,0 l/m² 0,1 km/h (0 Bft) SW 232 ° 0 min 0 W/m² 6,3 °C 7,2 °C 1,6 km/h (1 Bft)
10.11.2025 07:08 21,2 °C 7,2 °C 58 % 94 % 1015,8 hPa 0,0 l/m² 0,1 km/h (0 Bft) SW 232 ° 0 min 0 W/m² 6,3 °C 7,2 °C 1,6 km/h (1 Bft)
10.11.2025 07:09 21,2 °C 7,1 °C 58 % 94 % 1015,8 hPa 0,0 l/m² 0,0 km/h (0 Bft) SW 232 ° 0 min 0 W/m² 6,2 °C 7,1 °C 0,0 km/h (0 Bft)
10.11.2025 07:10 21,2 °C 7,1 °C 58 % 94 % 1015,8 hPa 0,0 l/m² 0,0 km/h (0 Bft) SW 232 ° 0 min 0 W/m² 6,2 °C 7,1 °C 0,0 km/h (0 Bft)
10.11.2025 07:11 21,2 °C 7,1 °C 58 % 94 % 1015,8 hPa 0,0 l/m² 0,0 km/h (0 Bft) SW 232 ° 0 min 0 W/m² 6,2 °C 7,1 °C 0,0 km/h (0 Bft)
10.11.2025 07:13 21,2 °C 7,1 °C 57 % 94 % 1015,8 hPa 0,0 l/m² 0,0 km/h (0 Bft) SW 232 ° 0 min 0 W/m² 6,2 °C 7,1 °C 0,0 km/h (0 Bft)
10.11.2025 07:14 21,2 °C 7,1 °C 57 % 94 % 1015,8 hPa 0,0 l/m² 0,0 km/h (0 Bft) SW 232 ° 0 min 0 W/m² 6,2 °C 7,1 °C 0,0 km/h (0 Bft)
10.11.2025 07:15 21,1 °C 7,1 °C 57 % 94 % 1015,9 hPa 0,0 l/m² 0,0 km/h (0 Bft) SW 232 ° 0 min 0 W/m² 6,2 °C 7,1 °C 0,0 km/h (0 Bft)
10.11.2025 07:16 21,1 °C 7,1 °C 57 % 94 % 1015,9 hPa 0,0 l/m² 0,0 km/h (0 Bft) SW 232 ° 0 min 0 W/m² 6,2 °C 7,1 °C 0,0 km/h (0 Bft)
10.11.2025 07:17 21,1 °C 7,1 °C 57 % 94 % 1015,9 hPa 0,0 l/m² 0,0 km/h (0 Bft) SW 232 ° 0 min 0 W/m² 6,2 °C 7,1 °C 0,0 km/h (0 Bft)
10.11.2025 07:18 21,2 °C 7,1 °C 57 % 94 % 1015,9 hPa 0,0 l/m² 0,0 km/h (0 Bft) SW 232 ° 0 min 0 W/m² 6,2 °C 7,1 °C 0,0 km/h (0 Bft)
10.11.2025 07:19 21,2 °C 7,1 °C 57 % 94 % 1015,8 hPa 0,0 l/m² 0,0 km/h (0 Bft) SW 232 ° 0 min 0 W/m² 6,2 °C 7,1 °C 0,0 km/h (0 Bft)
10.11.2025 07:20 21,2 °C 7,1 °C 57 % 94 % 1016,0 hPa 0,0 l/m² 0,0 km/h (0 Bft) SW 232 ° 0 min 0 W/m² 6,2 °C 7,1 °C 0,0 km/h (0 Bft)
10.11.2025 07:21 21,2 °C 7,1 °C 57 % 94 % 1016,0 hPa 0,0 l/m² 0,0 km/h (0 Bft) SW 232 ° 0 min 0 W/m² 6,2 °C 7,1 °C 0,0 km/h (0 Bft)
10.11.2025 07:22 21,2 °C 7,1 °C 57 % 94 % 1016,0 hPa 0,0 l/m² 0,0 km/h (0 Bft) SW 232 ° 0 min 0 W/m² 6,2 °C 7,1 °C 0,0 km/h (0 Bft)
10.11.2025 07:23 21,2 °C 7,1 °C 57 % 94 % 1016,0 hPa 0,0 l/m² 0,0 km/h (0 Bft) SW 232 ° 0 min 0 W/m² 6,2 °C 7,1 °C 0,0 km/h (0 Bft)
10.11.2025 07:24 21,2 °C 7,1 °C 57 % 94 % 1015,9 hPa 0,0 l/m² 0,0 km/h (0 Bft) SW 232 ° 0 min 0 W/m² 6,2 °C 7,1 °C 0,0 km/h (0 Bft)
10.11.2025 07:25 21,2 °C 7,1 °C 57 % 94 % 1015,9 hPa 0,0 l/m² 0,0 km/h (0 Bft) SW 232 ° 0 min 0 W/m² 6,2 °C 7,1 °C 0,0 km/h (0 Bft)
10.11.2025 07:26 21,2 °C 7,1 °C 57 % 94 % 1016,1 hPa 0,0 l/m² 0,0 km/h (0 Bft) SW 232 ° 0 min 0 W/m² 6,2 °C 7,1 °C 0,0 km/h (0 Bft)
10.11.2025 07:27 21,2 °C 7,1 °C 57 % 94 % 1016,1 hPa 0,0 l/m² 0,0 km/h (0 Bft) SW 232 ° 0 min 0 W/m² 6,2 °C 7,1 °C 0,0 km/h (0 Bft)
10.11.2025 07:28 21,2 °C 7,0 °C 57 % 94 % 1016,0 hPa 0,0 l/m² 0,0 km/h (0 Bft) SW 232 ° 0 min 0 W/m² 6,1 °C 7,0 °C 0,0 km/h (0 Bft)
10.11.2025 07:29 21,1 °C 7,1 °C 57 % 94 % 1016,1 hPa 0,0 l/m² 0,0 km/h (0 Bft) SW 232 ° 0 min 0 W/m² 6,2 °C 7,1 °C 0,0 km/h (0 Bft)
10.11.2025 07:30 21,1 °C 7,1 °C 57 % 94 % 1016,0 hPa 0,0 l/m² 0,0 km/h (0 Bft) SW 232 ° 0 min 0 W/m² 6,2 °C 7,1 °C 0,0 km/h (0 Bft)
10.11.2025 07:31 21,1 °C 7,0 °C 57 % 94 % 1016,0 hPa 0,0 l/m² 0,0 km/h (0 Bft) SW 232 ° 0 min 0 W/m² 6,1 °C 7,0 °C 0,0 km/h (0 Bft)
10.11.2025 07:32 21,2 °C 7,0 °C 57 % 94 % 1016,1 hPa 0,0 l/m² 0,0 km/h (0 Bft) SW 232 ° 0 min 0 W/m² 6,1 °C 7,0 °C 0,0 km/h (0 Bft)
10.11.2025 07:33 21,2 °C 7,0 °C 57 % 94 % 1016,1 hPa 0,0 l/m² 0,0 km/h (0 Bft) SW 232 ° 0 min 0 W/m² 6,1 °C 7,0 °C 0,0 km/h (0 Bft)
10.11.2025 07:34 21,1 °C 7,0 °C 57 % 94 % 1016,1 hPa 0,0 l/m² 0,0 km/h (0 Bft) SW 232 ° 0 min 0 W/m² 6,1 °C 7,0 °C 0,0 km/h (0 Bft)
10.11.2025 07:35 21,1 °C 7,0 °C 57 % 94 % 1016,1 hPa 0,0 l/m² 0,0 km/h (0 Bft) SW 232 ° 0 min 0 W/m² 6,1 °C 7,0 °C 0,0 km/h (0 Bft)
10.11.2025 07:36 21,2 °C 7,0 °C 57 % 94 % 1016,1 hPa 0,0 l/m² 0,0 km/h (0 Bft) SW 232 ° 0 min 0 W/m² 6,1 °C 7,0 °C 0,0 km/h (0 Bft)
10.11.2025 07:37 21,2 °C 7,0 °C 57 % 94 % 1016,1 hPa 0,0 l/m² 0,0 km/h (0 Bft) SW 232 ° 0 min 5 W/m² 6,1 °C 7,0 °C 0,0 km/h (0 Bft)
10.11.2025 07:38 21,2 °C 7,0 °C 57 % 94 % 1016,1 hPa 0,0 l/m² 0,0 km/h (0 Bft) SW 232 ° 0 min 5 W/m² 6,1 °C 7,0 °C 0,0 km/h (0 Bft)
10.11.2025 07:39 21,2 °C 7,0 °C 57 % 94 % 1016,1 hPa 0,0 l/m² 0,0 km/h (0 Bft) SW 232 ° 0 min 5 W/m² 6,1 °C 7,0 °C 0,0 km/h (0 Bft)
10.11.2025 07:40 21,2 °C 7,0 °C 57 % 94 % 1016,1 hPa 0,0 l/m² 0,0 km/h (0 Bft) SW 232 ° 0 min 7 W/m² 6,1 °C 7,0 °C 0,0 km/h (0 Bft)
10.11.2025 07:41 21,2 °C 7,0 °C 57 % 94 % 1016,1 hPa 0,0 l/m² 0,0 km/h (0 Bft) SW 232 ° 0 min 7 W/m² 6,1 °C 7,0 °C 0,0 km/h (0 Bft)
10.11.2025 07:42 21,2 °C 7,0 °C 57 % 94 % 1016,1 hPa 0,0 l/m² 0,0 km/h (0 Bft) SW 232 ° 0 min 7 W/m² 6,1 °C 7,0 °C 0,0 km/h (0 Bft)
10.11.2025 07:43 21,2 °C 7,0 °C 57 % 94 % 1016,1 hPa 0,0 l/m² 0,0 km/h (0 Bft) SW 232 ° 0 min 5 W/m² 6,1 °C 7,0 °C 0,0 km/h (0 Bft)
10.11.2025 07:44 21,2 °C 7,0 °C 57 % 94 % 1016,1 hPa 0,0 l/m² 0,0 km/h (0 Bft) SW 232 ° 0 min 7 W/m² 6,1 °C 7,0 °C 0,0 km/h (0 Bft)
10.11.2025 07:45 21,2 °C 7,0 °C 57 % 94 % 1016,1 hPa 0,0 l/m² 0,0 km/h (0 Bft) SW 232 ° 0 min 7 W/m² 6,1 °C 7,0 °C 0,0 km/h (0 Bft)
10.11.2025 07:46 21,2 °C 7,0 °C 57 % 94 % 1016,1 hPa 0,0 l/m² 0,0 km/h (0 Bft) SW 232 ° 0 min 7 W/m² 6,1 °C 7,0 °C 0,0 km/h (0 Bft)
10.11.2025 07:47 21,2 °C 7,1 °C 57 % 94 % 1016,0 hPa 0,0 l/m² 0,0 km/h (0 Bft) SW 232 ° 0 min 7 W/m² 6,2 °C 7,1 °C 0,0 km/h (0 Bft)
10.11.2025 07:48 21,2 °C 7,1 °C 57 % 94 % 1016,1 hPa 0,0 l/m² 0,0 km/h (0 Bft) SW 232 ° 0 min 7 W/m² 6,2 °C 7,1 °C 0,0 km/h (0 Bft)
10.11.2025 07:49 21,2 °C 7,0 °C 57 % 94 % 1016,1 hPa 0,0 l/m² 0,0 km/h (0 Bft) SW 232 ° 0 min 7 W/m² 6,1 °C 7,0 °C 0,0 km/h (0 Bft)
10.11.2025 07:50 21,2 °C 7,1 °C 57 % 94 % 1016,0 hPa 0,0 l/m² 0,0 km/h (0 Bft) SW 232 ° 0 min 7 W/m² 6,2 °C 7,1 °C 0,0 km/h (0 Bft)
10.11.2025 07:51 21,2 °C 7,1 °C 57 % 94 % 1016,1 hPa 0,0 l/m² 0,0 km/h (0 Bft) SW 232 ° 0 min 7 W/m² 6,2 °C 7,1 °C 0,0 km/h (0 Bft)
10.11.2025 07:52 21,2 °C 7,0 °C 57 % 94 % 1016,1 hPa 0,0 l/m² 0,0 km/h (0 Bft) SW 232 ° 0 min 9 W/m² 6,1 °C 7,0 °C 0,0 km/h (0 Bft)
10.11.2025 07:53 21,2 °C 7,0 °C 57 % 94 % 1016,1 hPa 0,0 l/m² 0,0 km/h (0 Bft) SW 232 ° 0 min 9 W/m² 6,1 °C 7,0 °C 0,0 km/h (0 Bft)
10.11.2025 07:54 21,2 °C 7,0 °C 57 % 94 % 1016,1 hPa 0,0 l/m² 0,0 km/h (0 Bft) SW 232 ° 0 min 9 W/m² 6,1 °C 7,0 °C 0,0 km/h (0 Bft)
10.11.2025 07:55 21,2 °C 7,1 °C 57 % 94 % 1016,1 hPa 0,0 l/m² 0,0 km/h (0 Bft) SW 232 ° 0 min 9 W/m² 6,2 °C 7,1 °C 0,0 km/h (0 Bft)
10.11.2025 07:57 21,2 °C 7,1 °C 57 % 94 % 1016,1 hPa 0,0 l/m² 0,0 km/h (0 Bft) SW 232 ° 0 min 11 W/m² 6,2 °C 7,1 °C 0,0 km/h (0 Bft)
10.11.2025 07:58 21,2 °C 7,1 °C 57 % 94 % 1016,1 hPa 0,0 l/m² 0,0 km/h (0 Bft) SW 232 ° 0 min 12 W/m² 6,2 °C 7,1 °C 0,0 km/h (0 Bft)
10.11.2025 07:59 21,2 °C 7,1 °C 57 % 94 % 1016,1 hPa 0,0 l/m² 0,0 km/h (0 Bft) SW 232 ° 0 min 14 W/m² 6,2 °C 7,1 °C 0,0 km/h (0 Bft)
10.11.2025 08:00 21,2 °C 7,1 °C 57 % 94 % 1016,0 hPa 0,0 l/m² 0,0 km/h (0 Bft) SW 232 ° 0 min 14 W/m² 6,2 °C 7,1 °C 0,0 km/h (0 Bft)
10.11.2025 08:02 21,2 °C 7,1 °C 57 % 94 % 1016,1 hPa 0,0 l/m² 0,0 km/h (0 Bft) SW 232 ° 0 min 18 W/m² 6,2 °C 7,1 °C 0,0 km/h (0 Bft)
10.11.2025 08:03 21,2 °C 7,1 °C 57 % 94 % 1016,1 hPa 0,0 l/m² 0,0 km/h (0 Bft) SW 232 ° 0 min 18 W/m² 6,2 °C 7,1 °C 0,0 km/h (0 Bft)
10.11.2025 08:04 21,2 °C 7,1 °C 57 % 94 % 1016,1 hPa 0,0 l/m² 0,0 km/h (0 Bft) SW 232 ° 0 min 19 W/m² 6,2 °C 7,1 °C 0,0 km/h (0 Bft)
10.11.2025 08:05 21,2 °C 7,1 °C 57 % 94 % 1016,1 hPa 0,0 l/m² 0,0 km/h (0 Bft) SW 232 ° 0 min 19 W/m² 6,2 °C 7,1 °C 0,0 km/h (0 Bft)
10.11.2025 08:06 21,2 °C 7,1 °C 57 % 94 % 1016,0 hPa 0,0 l/m² 0,0 km/h (0 Bft) SW 232 ° 0 min 21 W/m² 6,2 °C 7,1 °C 0,0 km/h (0 Bft)
10.11.2025 08:07 21,2 °C 7,1 °C 57 % 94 % 1016,0 hPa 0,0 l/m² 0,0 km/h (0 Bft) SW 232 ° 0 min 21 W/m² 6,2 °C 7,1 °C 0,0 km/h (0 Bft)
10.11.2025 08:08 21,2 °C 7,1 °C 57 % 94 % 1016,1 hPa 0,0 l/m² 0,0 km/h (0 Bft) SW 232 ° 0 min 21 W/m² 6,2 °C 7,1 °C 0,0 km/h (0 Bft)
10.11.2025 08:09 21,2 °C 7,1 °C 57 % 94 % 1016,1 hPa 0,0 l/m² 0,0 km/h (0 Bft) SW 232 ° 0 min 23 W/m² 6,2 °C 7,1 °C 0,0 km/h (0 Bft)
10.11.2025 08:10 21,2 °C 7,1 °C 57 % 94 % 1016,1 hPa 0,0 l/m² 0,0 km/h (0 Bft) SW 232 ° 0 min 23 W/m² 6,2 °C 7,1 °C 0,0 km/h (0 Bft)
10.11.2025 08:11 21,2 °C 7,1 °C 57 % 94 % 1016,1 hPa 0,0 l/m² 0,0 km/h (0 Bft) SW 232 ° 0 min 23 W/m² 6,2 °C 7,1 °C 0,0 km/h (0 Bft)
10.11.2025 08:12 21,2 °C 7,1 °C 57 % 94 % 1016,1 hPa 0,0 l/m² 0,0 km/h (0 Bft) SW 232 ° 0 min 25 W/m² 6,2 °C 7,1 °C 0,0 km/h (0 Bft)
10.11.2025 08:13 21,2 °C 7,2 °C 57 % 94 % 1016,1 hPa 0,0 l/m² 0,0 km/h (0 Bft) SW 232 ° 0 min 25 W/m² 6,3 °C 7,2 °C 0,0 km/h (0 Bft)
10.11.2025 08:14 21,2 °C 7,1 °C 57 % 94 % 1016,2 hPa 0,0 l/m² 0,0 km/h (0 Bft) SW 232 ° 0 min 25 W/m² 6,2 °C 7,1 °C 0,0 km/h (0 Bft)
10.11.2025 08:15 21,2 °C 7,1 °C 57 % 94 % 1016,1 hPa 0,0 l/m² 0,0 km/h (0 Bft) SW 232 ° 0 min 25 W/m² 6,2 °C 7,1 °C 0,0 km/h (0 Bft)
10.11.2025 08:16 21,2 °C 7,2 °C 57 % 94 % 1016,0 hPa 0,0 l/m² 0,0 km/h (0 Bft) SW 232 ° 0 min 26 W/m² 6,3 °C 7,2 °C 0,0 km/h (0 Bft)
10.11.2025 08:17 21,2 °C 7,2 °C 57 % 94 % 1016,0 hPa 0,0 l/m² 0,0 km/h (0 Bft) SW 232 ° 0 min 26 W/m² 6,3 °C 7,2 °C 0,0 km/h (0 Bft)
10.11.2025 08:18 21,2 °C 7,2 °C 57 % 94 % 1016,2 hPa 0,0 l/m² 0,0 km/h (0 Bft) SW 232 ° 0 min 26 W/m² 6,3 °C 7,2 °C 0,0 km/h (0 Bft)
10.11.2025 08:19 21,2 °C 7,2 °C 57 % 94 % 1016,2 hPa 0,0 l/m² 0,0 km/h (0 Bft) SW 232 ° 0 min 26 W/m² 6,3 °C 7,2 °C 0,0 km/h (0 Bft)
10.11.2025 08:20 21,2 °C 7,2 °C 57 % 94 % 1016,2 hPa 0,0 l/m² 0,0 km/h (0 Bft) SW 232 ° 0 min 26 W/m² 6,3 °C 7,2 °C 0,0 km/h (0 Bft)
10.11.2025 08:21 21,2 °C 7,2 °C 57 % 94 % 1016,2 hPa 0,0 l/m² 0,0 km/h (0 Bft) SW 232 ° 0 min 28 W/m² 6,3 °C 7,2 °C 0,0 km/h (0 Bft)
10.11.2025 08:22 21,2 °C 7,2 °C 57 % 94 % 1016,1 hPa 0,0 l/m² 0,0 km/h (0 Bft) SW 232 ° 0 min 28 W/m² 6,3 °C 7,2 °C 0,0 km/h (0 Bft)
10.11.2025 08:23 21,2 °C 7,2 °C 57 % 94 % 1016,2 hPa 0,0 l/m² 0,0 km/h (0 Bft) SW 232 ° 0 min 28 W/m² 6,3 °C 7,2 °C 0,0 km/h (0 Bft)
10.11.2025 08:24 21,2 °C 7,2 °C 57 % 94 % 1016,1 hPa 0,0 l/m² 0,0 km/h (0 Bft) SW 232 ° 0 min 30 W/m² 6,3 °C 7,2 °C 0,0 km/h (0 Bft)
10.11.2025 08:25 21,2 °C 7,2 °C 57 % 94 % 1016,2 hPa 0,0 l/m² 0,0 km/h (0 Bft) SW 232 ° 0 min 30 W/m² 6,3 °C 7,2 °C 0,0 km/h (0 Bft)
10.11.2025 08:26 21,2 °C 7,2 °C 57 % 94 % 1016,2 hPa 0,0 l/m² 0,0 km/h (0 Bft) SW 232 ° 0 min 30 W/m² 6,3 °C 7,2 °C 0,0 km/h (0 Bft)
10.11.2025 08:27 21,2 °C 7,2 °C 57 % 94 % 1016,2 hPa 0,0 l/m² 0,0 km/h (0 Bft) SW 232 ° 0 min 32 W/m² 6,3 °C 7,2 °C 0,0 km/h (0 Bft)
10.11.2025 08:28 21,2 °C 7,2 °C 57 % 94 % 1016,2 hPa 0,0 l/m² 0,0 km/h (0 Bft) SW 232 ° 0 min 32 W/m² 6,3 °C 7,2 °C 0,0 km/h (0 Bft)
10.11.2025 08:29 21,2 °C 7,2 °C 57 % 94 % 1016,2 hPa 0,0 l/m² 0,0 km/h (0 Bft) SW 232 ° 0 min 32 W/m² 6,3 °C 7,2 °C 0,0 km/h (0 Bft)
10.11.2025 08:30 21,2 °C 7,2 °C 57 % 94 % 1016,3 hPa 0,0 l/m² 0,0 km/h (0 Bft) SW 232 ° 0 min 33 W/m² 6,3 °C 7,2 °C 0,0 km/h (0 Bft)
10.11.2025 08:31 21,2 °C 7,2 °C 57 % 94 % 1016,2 hPa 0,0 l/m² 0,0 km/h (0 Bft) SW 232 ° 0 min 33 W/m² 6,3 °C 7,2 °C 0,0 km/h (0 Bft)
10.11.2025 08:32 21,2 °C 7,2 °C 57 % 94 % 1016,2 hPa 0,0 l/m² 0,0 km/h (0 Bft) SW 232 ° 0 min 35 W/m² 6,3 °C 7,2 °C 0,0 km/h (0 Bft)
10.11.2025 08:33 21,2 °C 7,2 °C 57 % 95 % 1016,2 hPa 0,0 l/m² 0,0 km/h (0 Bft) SW 232 ° 0 min 35 W/m² 6,5 °C 7,2 °C 0,0 km/h (0 Bft)
10.11.2025 08:34 21,2 °C 7,2 °C 57 % 95 % 1016,2 hPa 0,0 l/m² 0,0 km/h (0 Bft) SW 232 ° 0 min 35 W/m² 6,5 °C 7,2 °C 0,0 km/h (0 Bft)
10.11.2025 08:35 21,2 °C 7,2 °C 57 % 95 % 1016,2 hPa 0,0 l/m² 0,0 km/h (0 Bft) SW 232 ° 0 min 35 W/m² 6,5 °C 7,2 °C 0,0 km/h (0 Bft)
10.11.2025 08:36 21,2 °C 7,3 °C 57 % 95 % 1016,3 hPa 0,0 l/m² 0,0 km/h (0 Bft) SW 232 ° 0 min 35 W/m² 6,6 °C 7,3 °C 0,0 km/h (0 Bft)
10.11.2025 08:37 21,2 °C 7,3 °C 57 % 95 % 1016,2 hPa 0,0 l/m² 0,0 km/h (0 Bft) SW 232 ° 0 min 35 W/m² 6,6 °C 7,3 °C 0,0 km/h (0 Bft)
10.11.2025 08:38 21,2 °C 7,3 °C 57 % 95 % 1016,2 hPa 0,0 l/m² 0,0 km/h (0 Bft) SW 232 ° 0 min 35 W/m² 6,6 °C 7,3 °C 0,0 km/h (0 Bft)
10.11.2025 08:39 21,2 °C 7,3 °C 57 % 95 % 1016,3 hPa 0,0 l/m² 0,0 km/h (0 Bft) SW 232 ° 0 min 35 W/m² 6,6 °C 7,3 °C 0,0 km/h (0 Bft)
10.11.2025 08:40 21,2 °C 7,3 °C 57 % 95 % 1016,3 hPa 0,0 l/m² 0,0 km/h (0 Bft) SW 232 ° 0 min 35 W/m² 6,6 °C 7,3 °C 0,0 km/h (0 Bft)
10.11.2025 08:41 21,2 °C 7,3 °C 57 % 95 % 1016,2 hPa 0,0 l/m² 0,0 km/h (0 Bft) SW 232 ° 0 min 37 W/m² 6,6 °C 7,3 °C 0,0 km/h (0 Bft)
10.11.2025 08:42 21,2 °C 7,3 °C 57 % 95 % 1016,3 hPa 0,0 l/m² 0,0 km/h (0 Bft) SW 232 ° 0 min 37 W/m² 6,6 °C 7,3 °C 0,0 km/h (0 Bft)
10.11.2025 08:43 21,2 °C 7,4 °C 57 % 94 % 1016,3 hPa 0,0 l/m² 0,0 km/h (0 Bft) SW 232 ° 0 min 39 W/m² 6,5 °C 7,4 °C 0,0 km/h (0 Bft)
10.11.2025 08:44 21,2 °C 7,4 °C 57 % 94 % 1016,3 hPa 0,0 l/m² 0,0 km/h (0 Bft) SW 232 ° 0 min 39 W/m² 6,5 °C 7,4 °C 0,0 km/h (0 Bft)
10.11.2025 08:45 21,2 °C 7,4 °C 57 % 94 % 1016,3 hPa 0,0 l/m² 0,0 km/h (0 Bft) SW 232 ° 0 min 40 W/m² 6,5 °C 7,4 °C 0,0 km/h (0 Bft)
10.11.2025 08:46 21,2 °C 7,4 °C 57 % 94 % 1016,3 hPa 0,0 l/m² 0,0 km/h (0 Bft) SW 232 ° 0 min 42 W/m² 6,5 °C 7,4 °C 0,0 km/h (0 Bft)
10.11.2025 08:47 21,2 °C 7,4 °C 57 % 94 % 1016,3 hPa 0,0 l/m² 0,0 km/h (0 Bft) SW 232 ° 0 min 44 W/m² 6,5 °C 7,4 °C 0,0 km/h (0 Bft)
10.11.2025 08:48 21,2 °C 7,4 °C 57 % 94 % 1016,3 hPa 0,0 l/m² 0,0 km/h (0 Bft) SW 232 ° 0 min 46 W/m² 6,5 °C 7,4 °C 0,0 km/h (0 Bft)
10.11.2025 08:49 21,2 °C 7,4 °C 57 % 94 % 1016,3 hPa 0,0 l/m² 0,0 km/h (0 Bft) SW 232 ° 0 min 47 W/m² 6,5 °C 7,4 °C 0,0 km/h (0 Bft)
10.11.2025 08:50 21,2 °C 7,4 °C 57 % 94 % 1016,3 hPa 0,0 l/m² 0,0 km/h (0 Bft) SW 232 ° 0 min 49 W/m² 6,5 °C 7,4 °C 0,0 km/h (0 Bft)
10.11.2025 08:51 21,2 °C 7,5 °C 57 % 95 % 1016,3 hPa 0,0 l/m² 0,0 km/h (0 Bft) SW 232 ° 0 min 49 W/m² 6,8 °C 7,5 °C 0,0 km/h (0 Bft)
10.11.2025 08:52 21,2 °C 7,5 °C 57 % 95 % 1016,3 hPa 0,0 l/m² 0,0 km/h (0 Bft) SW 232 ° 0 min 51 W/m² 6,8 °C 7,5 °C 0,0 km/h (0 Bft)
10.11.2025 08:53 21,2 °C 7,5 °C 57 % 95 % 1016,3 hPa 0,0 l/m² 0,0 km/h (0 Bft) SW 232 ° 1 min 53 W/m² 6,8 °C 7,5 °C 0,0 km/h (0 Bft)
10.11.2025 08:54 21,2 °C 7,6 °C 57 % 95 % 1016,3 hPa 0,0 l/m² 0,0 km/h (0 Bft) SW 232 ° 1 min 54 W/m² 6,9 °C 7,6 °C 0,0 km/h (0 Bft)
10.11.2025 08:55 21,2 °C 7,6 °C 57 % 95 % 1016,2 hPa 0,0 l/m² 0,0 km/h (0 Bft) SW 232 ° 1 min 56 W/m² 6,9 °C 7,6 °C 0,0 km/h (0 Bft)
10.11.2025 08:56 21,2 °C 7,6 °C 57 % 95 % 1016,3 hPa 0,0 l/m² 0,0 km/h (0 Bft) SW 232 ° 1 min 58 W/m² 6,9 °C 7,6 °C 0,0 km/h (0 Bft)
10.11.2025 08:57 21,2 °C 7,6 °C 57 % 95 % 1016,3 hPa 0,0 l/m² 0,0 km/h (0 Bft) SW 232 ° 1 min 58 W/m² 6,9 °C 7,6 °C 0,0 km/h (0 Bft)
10.11.2025 08:58 21,2 °C 7,6 °C 57 % 95 % 1016,2 hPa 0,0 l/m² 0,0 km/h (0 Bft) SW 232 ° 1 min 60 W/m² 6,9 °C 7,6 °C 0,0 km/h (0 Bft)
10.11.2025 08:59 21,2 °C 7,6 °C 57 % 95 % 1016,2 hPa 0,0 l/m² 0,0 km/h (0 Bft) SW 232 ° 1 min 60 W/m² 6,9 °C 7,6 °C 0,0 km/h (0 Bft)
10.11.2025 09:00 21,2 °C 7,7 °C 57 % 95 % 1016,2 hPa 0,0 l/m² 0,0 km/h (0 Bft) SW 232 ° 1 min 62 W/m² 7,0 °C 7,7 °C 0,0 km/h (0 Bft)
10.11.2025 09:01 21,2 °C 7,7 °C 57 % 95 % 1016,2 hPa 0,0 l/m² 0,0 km/h (0 Bft) SW 232 ° 1 min 62 W/m² 7,0 °C 7,7 °C 0,0 km/h (0 Bft)
10.11.2025 09:03 21,2 °C 7,7 °C 57 % 95 % 1016,2 hPa 0,0 l/m² 0,0 km/h (0 Bft) SW 232 ° 2 min 63 W/m² 7,0 °C 7,7 °C 0,0 km/h (0 Bft)
10.11.2025 09:04 21,2 °C 7,7 °C 57 % 95 % 1016,2 hPa 0,0 l/m² 0,0 km/h (0 Bft) SW 232 ° 1 min 63 W/m² 7,0 °C 7,7 °C 0,0 km/h (0 Bft)
10.11.2025 09:05 21,2 °C 7,7 °C 57 % 95 % 1016,1 hPa 0,0 l/m² 0,0 km/h (0 Bft) SW 232 ° 1 min 65 W/m² 7,0 °C 7,7 °C 0,0 km/h (0 Bft)
10.11.2025 09:06 21,2 °C 7,7 °C 57 % 95 % 1016,3 hPa 0,0 l/m² 0,0 km/h (0 Bft) SW 232 ° 1 min 65 W/m² 7,0 °C 7,7 °C 0,0 km/h (0 Bft)
10.11.2025 09:08 21,2 °C 7,8 °C 57 % 95 % 1016,2 hPa 0,0 l/m² 0,0 km/h (0 Bft) SW 232 ° 2 min 65 W/m² 7,0 °C 7,8 °C 0,0 km/h (0 Bft)
10.11.2025 09:09 21,2 °C 7,8 °C 57 % 95 % 1016,2 hPa 0,0 l/m² 0,0 km/h (0 Bft) SW 232 ° 1 min 65 W/m² 7,0 °C 7,8 °C 0,0 km/h (0 Bft)
10.11.2025 09:10 21,2 °C 7,8 °C 57 % 95 % 1016,3 hPa 0,0 l/m² 0,0 km/h (0 Bft) SW 232 ° 1 min 65 W/m² 7,0 °C 7,8 °C 0,0 km/h (0 Bft)
10.11.2025 09:11 21,2 °C 7,8 °C 57 % 95 % 1016,3 hPa 0,0 l/m² 0,0 km/h (0 Bft) SW 232 ° 1 min 67 W/m² 7,0 °C 7,8 °C 0,0 km/h (0 Bft)
10.11.2025 09:13 21,2 °C 7,9 °C 57 % 95 % 1016,2 hPa 0,0 l/m² 0,0 km/h (0 Bft) SW 232 ° 2 min 69 W/m² 7,1 °C 7,9 °C 0,0 km/h (0 Bft)
10.11.2025 09:14 21,2 °C 7,9 °C 57 % 95 % 1016,2 hPa 0,0 l/m² 0,0 km/h (0 Bft) SW 232 ° 1 min 69 W/m² 7,1 °C 7,9 °C 0,0 km/h (0 Bft)
10.11.2025 09:15 21,2 °C 7,9 °C 57 % 95 % 1016,3 hPa 0,0 l/m² 0,0 km/h (0 Bft) SW 232 ° 1 min 69 W/m² 7,1 °C 7,9 °C 0,0 km/h (0 Bft)
10.11.2025 09:16 21,2 °C 7,9 °C 57 % 95 % 1016,2 hPa 0,0 l/m² 0,0 km/h (0 Bft) SW 232 ° 1 min 70 W/m² 7,1 °C 7,9 °C 0,0 km/h (0 Bft)
10.11.2025 09:17 21,2 °C 7,9 °C 57 % 95 % 1016,2 hPa 0,0 l/m² 0,0 km/h (0 Bft) SW 232 ° 1 min 70 W/m² 7,1 °C 7,9 °C 0,0 km/h (0 Bft)
10.11.2025 09:18 21,2 °C 8,0 °C 57 % 95 % 1016,3 hPa 0,0 l/m² 0,0 km/h (0 Bft) SW 232 ° 1 min 70 W/m² 7,2 °C 8,0 °C 0,0 km/h (0 Bft)
10.11.2025 09:19 21,2 °C 8,0 °C 57 % 95 % 1016,3 hPa 0,0 l/m² 0,0 km/h (0 Bft) SW 232 ° 1 min 72 W/m² 7,2 °C 8,0 °C 0,0 km/h (0 Bft)
10.11.2025 09:20 21,2 °C 8,1 °C 57 % 95 % 1016,3 hPa 0,0 l/m² 0,0 km/h (0 Bft) SW 232 ° 1 min 72 W/m² 7,3 °C 8,1 °C 0,0 km/h (0 Bft)
10.11.2025 09:21 21,2 °C 8,1 °C 57 % 95 % 1016,3 hPa 0,0 l/m² 0,0 km/h (0 Bft) SW 232 ° 1 min 72 W/m² 7,3 °C 8,1 °C 0,0 km/h (0 Bft)
10.11.2025 09:22 21,2 °C 8,1 °C 57 % 95 % 1016,3 hPa 0,0 l/m² 0,0 km/h (0 Bft) SW 232 ° 1 min 72 W/m² 7,3 °C 8,1 °C 0,0 km/h (0 Bft)
10.11.2025 09:23 21,2 °C 8,1 °C 57 % 95 % 1016,3 hPa 0,0 l/m² 0,0 km/h (0 Bft) SW 232 ° 1 min 74 W/m² 7,3 °C 8,1 °C 0,0 km/h (0 Bft)
10.11.2025 09:24 21,2 °C 8,2 °C 57 % 95 % 1016,2 hPa 0,0 l/m² 0,0 km/h (0 Bft) SW 232 ° 1 min 76 W/m² 7,4 °C 8,2 °C 0,0 km/h (0 Bft)
10.11.2025 09:25 21,2 °C 8,2 °C 57 % 95 % 1016,3 hPa 0,0 l/m² 0,0 km/h (0 Bft) SW 232 ° 1 min 76 W/m² 7,4 °C 8,2 °C 0,0 km/h (0 Bft)
10.11.2025 09:26 21,2 °C 8,2 °C 57 % 95 % 1016,3 hPa 0,0 l/m² 0,0 km/h (0 Bft) SW 232 ° 1 min 76 W/m² 7,4 °C 8,2 °C 0,0 km/h (0 Bft)
10.11.2025 09:27 21,2 °C 8,2 °C 57 % 95 % 1016,3 hPa 0,0 l/m² 0,0 km/h (0 Bft) SW 232 ° 1 min 76 W/m² 7,4 °C 8,2 °C 0,0 km/h (0 Bft)
10.11.2025 09:28 21,2 °C 8,2 °C 57 % 95 % 1016,3 hPa 0,0 l/m² 0,0 km/h (0 Bft) SW 232 ° 1 min 76 W/m² 7,4 °C 8,2 °C 0,0 km/h (0 Bft)
10.11.2025 09:29 21,2 °C 8,3 °C 57 % 95 % 1016,3 hPa 0,0 l/m² 0,0 km/h (0 Bft) SW 232 ° 1 min 76 W/m² 7,5 °C 8,3 °C 0,0 km/h (0 Bft)
10.11.2025 09:30 21,2 °C 8,3 °C 57 % 95 % 1016,3 hPa 0,0 l/m² 0,0 km/h (0 Bft) SW 232 ° 1 min 76 W/m² 7,5 °C 8,3 °C 0,0 km/h (0 Bft)
10.11.2025 09:31 21,2 °C 8,3 °C 57 % 95 % 1016,2 hPa 0,0 l/m² 0,0 km/h (0 Bft) SW 232 ° 1 min 76 W/m² 7,5 °C 8,3 °C 0,0 km/h (0 Bft)
10.11.2025 09:32 21,2 °C 8,3 °C 57 % 95 % 1016,3 hPa 0,0 l/m² 0,0 km/h (0 Bft) SW 232 ° 1 min 76 W/m² 7,5 °C 8,3 °C 0,0 km/h (0 Bft)
10.11.2025 09:33 21,2 °C 8,3 °C 57 % 95 % 1016,3 hPa 0,0 l/m² 0,0 km/h (0 Bft) SW 232 ° 1 min 76 W/m² 7,5 °C 8,3 °C 0,0 km/h (0 Bft)
10.11.2025 09:34 21,2 °C 8,3 °C 57 % 95 % 1016,2 hPa 0,0 l/m² 0,0 km/h (0 Bft) SW 232 ° 1 min 72 W/m² 7,5 °C 8,3 °C 0,0 km/h (0 Bft)
10.11.2025 09:35 21,2 °C 8,3 °C 57 % 95 % 1016,3 hPa 0,0 l/m² 0,0 km/h (0 Bft) SW 232 ° 1 min 72 W/m² 7,5 °C 8,3 °C 0,0 km/h (0 Bft)
10.11.2025 09:36 21,2 °C 8,4 °C 57 % 95 % 1016,3 hPa 0,0 l/m² 0,0 km/h (0 Bft) SW 232 ° 1 min 72 W/m² 7,6 °C 8,4 °C 0,0 km/h (0 Bft)
10.11.2025 09:37 21,2 °C 8,4 °C 57 % 95 % 1016,2 hPa 0,0 l/m² 0,0 km/h (0 Bft) SW 232 ° 1 min 70 W/m² 7,6 °C 8,4 °C 0,0 km/h (0 Bft)
10.11.2025 09:38 21,2 °C 8,4 °C 57 % 95 % 1016,3 hPa 0,0 l/m² 0,0 km/h (0 Bft) SW 232 ° 1 min 70 W/m² 7,6 °C 8,4 °C 0,0 km/h (0 Bft)
10.11.2025 09:39 21,2 °C 8,4 °C 57 % 95 % 1016,3 hPa 0,0 l/m² 0,0 km/h (0 Bft) SW 232 ° 1 min 70 W/m² 7,6 °C 8,4 °C 0,0 km/h (0 Bft)
10.11.2025 09:40 21,2 °C 8,4 °C 57 % 95 % 1016,4 hPa 0,0 l/m² 0,0 km/h (0 Bft) SW 232 ° 1 min 70 W/m² 7,6 °C 8,4 °C 0,0 km/h (0 Bft)
10.11.2025 09:41 21,2 °C 8,5 °C 57 % 95 % 1016,3 hPa 0,0 l/m² 0,0 km/h (0 Bft) SW 232 ° 1 min 69 W/m² 7,7 °C 8,5 °C 0,0 km/h (0 Bft)
10.11.2025 09:42 21,2 °C 8,5 °C 57 % 95 % 1016,3 hPa 0,0 l/m² 0,0 km/h (0 Bft) SW 232 ° 1 min 69 W/m² 7,7 °C 8,5 °C 0,0 km/h (0 Bft)
10.11.2025 09:43 21,2 °C 8,6 °C 57 % 95 % 1016,3 hPa 0,0 l/m² 0,0 km/h (0 Bft) SW 232 ° 1 min 67 W/m² 7,8 °C 8,6 °C 0,0 km/h (0 Bft)
10.11.2025 09:46 21,2 °C 8,6 °C 57 % 95 % 1016,3 hPa 0,0 l/m² 0,0 km/h (0 Bft) SW 232 ° 3 min 62 W/m² 7,8 °C 8,6 °C 0,0 km/h (0 Bft)
10.11.2025 09:47 21,2 °C 8,6 °C 57 % 95 % 1016,3 hPa 0,0 l/m² 0,0 km/h (0 Bft) SW 232 ° 1 min 62 W/m² 7,8 °C 8,6 °C 0,0 km/h (0 Bft)
10.11.2025 09:48 21,2 °C 8,6 °C 57 % 95 % 1016,3 hPa 0,0 l/m² 0,0 km/h (0 Bft) SW 232 ° 1 min 62 W/m² 7,8 °C 8,6 °C 0,0 km/h (0 Bft)
10.11.2025 09:49 21,2 °C 8,6 °C 57 % 95 % 1016,3 hPa 0,0 l/m² 0,0 km/h (0 Bft) SW 232 ° 1 min 62 W/m² 7,8 °C 8,6 °C 0,0 km/h (0 Bft)
10.11.2025 09:50 21,2 °C 8,6 °C 57 % 95 % 1016,3 hPa 0,0 l/m² 0,0 km/h (0 Bft) SW 232 ° 1 min 62 W/m² 7,8 °C 8,6 °C 0,0 km/h (0 Bft)
10.11.2025 09:51 21,2 °C 8,6 °C 57 % 95 % 1016,3 hPa 0,0 l/m² 0,0 km/h (0 Bft) SW 232 ° 1 min 63 W/m² 7,8 °C 8,6 °C 0,0 km/h (0 Bft)
10.11.2025 09:52 21,2 °C 8,6 °C 57 % 95 % 1016,3 hPa 0,0 l/m² 0,0 km/h (0 Bft) SW 232 ° 1 min 74 W/m² 7,8 °C 8,6 °C 0,0 km/h (0 Bft)
10.11.2025 09:53 21,2 °C 8,6 °C 57 % 95 % 1016,3 hPa 0,0 l/m² 0,0 km/h (0 Bft) SW 232 ° 1 min 77 W/m² 7,8 °C 8,6 °C 0,0 km/h (0 Bft)
10.11.2025 09:54 21,2 °C 8,7 °C 57 % 95 % 1016,2 hPa 0,0 l/m² 0,0 km/h (0 Bft) SW 232 ° 1 min 79 W/m² 7,9 °C 8,7 °C 0,0 km/h (0 Bft)
10.11.2025 09:55 21,2 °C 8,7 °C 57 % 95 % 1016,3 hPa 0,0 l/m² 0,0 km/h (0 Bft) SW 232 ° 1 min 179 W/m² 7,9 °C 8,7 °C 0,0 km/h (0 Bft)
10.11.2025 09:56 21,2 °C 8,7 °C 57 % 95 % 1016,3 hPa 0,0 l/m² 0,0 km/h (0 Bft) SW 232 ° 1 min 265 W/m² 7,9 °C 8,7 °C 0,0 km/h (0 Bft)
10.11.2025 09:57 21,2 °C 8,7 °C 57 % 95 % 1016,3 hPa 0,0 l/m² 0,0 km/h (0 Bft) SW 232 ° 1 min 285 W/m² 7,9 °C 8,7 °C 0,0 km/h (0 Bft)
10.11.2025 09:58 21,2 °C 8,8 °C 57 % 95 % 1016,2 hPa 0,0 l/m² 0,0 km/h (0 Bft) SW 232 ° 1 min 285 W/m² 8,0 °C 8,8 °C 0,0 km/h (0 Bft)
10.11.2025 09:59 21,2 °C 8,8 °C 57 % 95 % 1016,3 hPa 0,0 l/m² 0,0 km/h (0 Bft) SW 232 ° 1 min 287 W/m² 8,0 °C 8,8 °C 0,0 km/h (0 Bft)
10.11.2025 10:00 21,2 °C 8,8 °C 57 % 95 % 1016,2 hPa 0,0 l/m² 0,0 km/h (0 Bft) SW 232 ° 1 min 288 W/m² 8,0 °C 8,8 °C 0,0 km/h (0 Bft)
10.11.2025 10:01 21,2 °C 8,8 °C 57 % 95 % 1016,2 hPa 0,0 l/m² 0,0 km/h (0 Bft) SW 232 ° 1 min 292 W/m² 8,0 °C 8,8 °C 0,0 km/h (0 Bft)
10.11.2025 10:02 21,2 °C 8,9 °C 57 % 95 % 1016,3 hPa 0,0 l/m² 0,1 km/h (0 Bft) SW 232 ° 1 min 292 W/m² 8,1 °C 8,9 °C 1,6 km/h (1 Bft)
10.11.2025 10:03 21,2 °C 8,9 °C 57 % 95 % 1016,2 hPa 0,0 l/m² 0,1 km/h (0 Bft) SW 232 ° 1 min 299 W/m² 8,1 °C 8,9 °C 1,6 km/h (1 Bft)
10.11.2025 10:04 21,2 °C 9,0 °C 57 % 95 % 1016,2 hPa 0,0 l/m² 0,0 km/h (0 Bft) SW 232 ° 1 min 302 W/m² 8,2 °C 9,0 °C 0,0 km/h (0 Bft)
10.11.2025 10:05 21,2 °C 9,1 °C 57 % 95 % 1016,1 hPa 0,0 l/m² 0,1 km/h (0 Bft) SW 232 ° 1 min 304 W/m² 8,3 °C 9,1 °C 1,6 km/h (1 Bft)
10.11.2025 10:06 21,3 °C 9,2 °C 57 % 95 % 1016,1 hPa 0,0 l/m² 0,3 km/h (0 Bft) SW 232 ° 1 min 302 W/m² 8,4 °C 9,2 °C 1,6 km/h (1 Bft)
10.11.2025 10:07 21,3 °C 9,2 °C 57 % 95 % 1016,1 hPa 0,0 l/m² 1,2 km/h (1 Bft) SW 232 ° 1 min 306 W/m² 8,4 °C 9,2 °C 3,2 km/h (1 Bft)
10.11.2025 10:08 21,3 °C 9,3 °C 57 % 95 % 1016,1 hPa 0,0 l/m² 0,8 km/h (0 Bft) SW 232 ° 1 min 309 W/m² 8,5 °C 9,3 °C 1,6 km/h (1 Bft)
10.11.2025 10:09 21,3 °C 9,4 °C 57 % 95 % 1016,2 hPa 0,0 l/m² 1,7 km/h (1 Bft) SW 232 ° 1 min 315 W/m² 8,6 °C 9,4 °C 3,2 km/h (1 Bft)
10.11.2025 10:10 21,3 °C 9,4 °C 57 % 96 % 1016,1 hPa 0,0 l/m² 1,3 km/h (1 Bft) SW 232 ° 1 min 322 W/m² 8,8 °C 9,4 °C 3,2 km/h (1 Bft)
10.11.2025 10:11 21,3 °C 9,5 °C 57 % 96 % 1016,1 hPa 0,0 l/m² 1,6 km/h (1 Bft) SW 232 ° 1 min 325 W/m² 8,9 °C 9,5 °C 3,2 km/h (1 Bft)
10.11.2025 10:12 21,3 °C 9,6 °C 57 % 96 % 1016,1 hPa 0,0 l/m² 1,1 km/h (1 Bft) SW 232 ° 1 min 327 W/m² 9,0 °C 9,6 °C 3,2 km/h (1 Bft)
10.11.2025 10:13 21,3 °C 9,6 °C 57 % 95 % 1016,1 hPa 0,0 l/m² 1,7 km/h (1 Bft) SW 232 ° 1 min 327 W/m² 8,8 °C 9,6 °C 3,2 km/h (1 Bft)
10.11.2025 10:14 21,3 °C 9,6 °C 57 % 95 % 1016,1 hPa 0,0 l/m² 2,2 km/h (1 Bft) SW 232 ° 1 min 334 W/m² 8,8 °C 9,6 °C 4,8 km/h (1 Bft)
10.11.2025 10:15 21,3 °C 9,7 °C 57 % 95 % 1016,1 hPa 0,0 l/m² 1,3 km/h (1 Bft) SW 232 ° 1 min 343 W/m² 8,9 °C 9,7 °C 4,8 km/h (1 Bft)
10.11.2025 10:16 21,3 °C 9,7 °C 57 % 95 % 1016,2 hPa 0,0 l/m² 1,6 km/h (1 Bft) SW 232 ° 1 min 343 W/m² 8,9 °C 9,7 °C 3,2 km/h (1 Bft)
10.11.2025 10:17 21,3 °C 9,8 °C 57 % 95 % 1016,1 hPa 0,0 l/m² 0,7 km/h (0 Bft) SW 232 ° 1 min 346 W/m² 9,0 °C 9,8 °C 3,2 km/h (1 Bft)
10.11.2025 10:18 21,3 °C 9,8 °C 57 % 95 % 1016,1 hPa 0,0 l/m² 3,0 km/h (1 Bft) SW 232 ° 1 min 357 W/m² 9,0 °C 9,8 °C 6,4 km/h (2 Bft)
10.11.2025 10:19 21,4 °C 9,8 °C 57 % 95 % 1016,1 hPa 0,0 l/m² 2,3 km/h (1 Bft) SW 232 ° 1 min 362 W/m² 9,0 °C 9,8 °C 4,8 km/h (1 Bft)
10.11.2025 10:20 21,4 °C 9,9 °C 57 % 95 % 1016,1 hPa 0,0 l/m² 0,0 km/h (0 Bft) SW 232 ° 1 min 366 W/m² 9,1 °C 9,9 °C 0,0 km/h (0 Bft)
10.11.2025 10:21 21,4 °C 9,9 °C 57 % 95 % 1016,1 hPa 0,0 l/m² 1,3 km/h (1 Bft) SW 232 ° 1 min 374 W/m² 9,1 °C 9,9 °C 4,8 km/h (1 Bft)
10.11.2025 10:22 21,4 °C 9,9 °C 57 % 95 % 1016,2 hPa 0,0 l/m² 1,0 km/h (0 Bft) SW 225 ° 1 min 381 W/m² 9,1 °C 9,9 °C 4,8 km/h (1 Bft)
10.11.2025 10:23 21,4 °C 10,0 °C 57 % 95 % 1016,1 hPa 0,0 l/m² 4,6 km/h (1 Bft) SW 225 ° 1 min 388 W/m² 9,2 °C 10,0 °C 6,4 km/h (2 Bft)
10.11.2025 10:24 21,4 °C 10,1 °C 57 % 95 % 1016,1 hPa 0,0 l/m² 2,5 km/h (1 Bft) SW 225 ° 1 min 387 W/m² 9,3 °C 10,1 °C 4,8 km/h (1 Bft)
10.11.2025 10:25 21,4 °C 10,2 °C 57 % 96 % 1016,1 hPa 0,0 l/m² 2,0 km/h (1 Bft) SW 215 ° 1 min 404 W/m² 9,6 °C 10,2 °C 6,4 km/h (2 Bft)
10.11.2025 10:26 21,4 °C 10,2 °C 57 % 95 % 1016,1 hPa 0,0 l/m² 3,6 km/h (1 Bft) SW 215 ° 1 min 422 W/m² 9,4 °C 10,2 °C 4,8 km/h (1 Bft)
10.11.2025 10:27 21,4 °C 10,3 °C 57 % 96 % 1016,1 hPa 0,0 l/m² 4,0 km/h (1 Bft) SW 214 ° 1 min 445 W/m² 9,7 °C 10,3 °C 6,4 km/h (2 Bft)
10.11.2025 10:28 21,4 °C 10,3 °C 57 % 95 % 1016,1 hPa 0,0 l/m² 5,0 km/h (1 Bft) S-SW 213 ° 1 min 452 W/m² 9,5 °C 10,3 °C 6,4 km/h (2 Bft)
10.11.2025 10:29 21,4 °C 10,4 °C 57 % 95 % 1016,1 hPa 0,0 l/m² 3,9 km/h (1 Bft) S-SW 209 ° 1 min 330 W/m² 9,6 °C 10,4 °C 6,4 km/h (2 Bft)
10.11.2025 10:30 21,4 °C 10,4 °C 57 % 95 % 1016,0 hPa 0,0 l/m² 2,4 km/h (1 Bft) S-SW 209 ° 1 min 331 W/m² 9,6 °C 10,4 °C 4,8 km/h (1 Bft)
10.11.2025 10:31 21,4 °C 10,5 °C 56 % 96 % 1016,1 hPa 0,0 l/m² 1,7 km/h (1 Bft) S-SW 209 ° 1 min 332 W/m² 9,9 °C 10,5 °C 4,8 km/h (1 Bft)
10.11.2025 10:32 21,4 °C 10,6 °C 56 % 96 % 1016,2 hPa 0,0 l/m² 3,4 km/h (1 Bft) S-SW 209 ° 1 min 333 W/m² 10,0 °C 10,6 °C 4,8 km/h (1 Bft)
10.11.2025 10:33 21,4 °C 10,6 °C 56 % 96 % 1016,1 hPa 0,0 l/m² 4,2 km/h (1 Bft) S-SW 210 ° 1 min 333 W/m² 10,0 °C 10,6 °C 6,4 km/h (2 Bft)
10.11.2025 10:34 21,4 °C 10,7 °C 56 % 95 % 1016,1 hPa 0,0 l/m² 2,2 km/h (1 Bft) S-SW 210 ° 1 min 334 W/m² 9,9 °C 10,7 °C 4,8 km/h (1 Bft)
10.11.2025 10:35 21,4 °C 10,7 °C 56 % 95 % 1016,1 hPa 0,0 l/m² 0,0 km/h (0 Bft) S-SW 210 ° 1 min 258 W/m² 9,9 °C 10,7 °C 0,0 km/h (0 Bft)
10.11.2025 10:36 21,4 °C 10,7 °C 56 % 95 % 1016,1 hPa 0,0 l/m² 0,4 km/h (0 Bft) S-SW 209 ° 1 min 243 W/m² 9,9 °C 10,7 °C 3,2 km/h (1 Bft)
10.11.2025 10:37 21,4 °C 10,7 °C 56 % 95 % 1016,1 hPa 0,0 l/m² 1,7 km/h (1 Bft) S-SW 210 ° 1 min 258 W/m² 9,9 °C 10,7 °C 4,8 km/h (1 Bft)
10.11.2025 10:38 21,4 °C 10,8 °C 56 % 95 % 1016,1 hPa 0,0 l/m² 4,5 km/h (1 Bft) S-SW 210 ° 1 min 227 W/m² 10,0 °C 10,8 °C 4,8 km/h (1 Bft)
10.11.2025 10:39 21,5 °C 10,7 °C 56 % 95 % 1016,1 hPa 0,0 l/m² 3,8 km/h (1 Bft) S-SW 210 ° 1 min 204 W/m² 9,9 °C 10,7 °C 4,8 km/h (1 Bft)
10.11.2025 10:40 21,4 °C 10,8 °C 56 % 95 % 1016,2 hPa 0,0 l/m² 0,7 km/h (0 Bft) S-SW 210 ° 1 min 199 W/m² 10,0 °C 10,8 °C 1,6 km/h (1 Bft)
10.11.2025 10:41 21,5 °C 10,7 °C 56 % 95 % 1016,0 hPa 0,0 l/m² 1,1 km/h (1 Bft) S-SW 210 ° 1 min 192 W/m² 9,9 °C 10,7 °C 3,2 km/h (1 Bft)
10.11.2025 10:42 21,4 °C 10,7 °C 56 % 95 % 1016,0 hPa 0,0 l/m² 1,2 km/h (1 Bft) S-SW 210 ° 1 min 185 W/m² 9,9 °C 10,7 °C 3,2 km/h (1 Bft)
10.11.2025 10:43 21,5 °C 10,7 °C 56 % 95 % 1016,1 hPa 0,0 l/m² 1,0 km/h (0 Bft) S-SW 210 ° 1 min 179 W/m² 9,9 °C 10,7 °C 3,2 km/h (1 Bft)
10.11.2025 10:44 21,4 °C 10,7 °C 56 % 95 % 1016,1 hPa 0,0 l/m² 0,9 km/h (0 Bft) S-SW 210 ° 1 min 176 W/m² 9,9 °C 10,7 °C 3,2 km/h (1 Bft)
10.11.2025 10:45 21,4 °C 10,7 °C 56 % 95 % 1016,1 hPa 0,0 l/m² 0,1 km/h (0 Bft) S-SW 210 ° 1 min 169 W/m² 9,9 °C 10,7 °C 1,6 km/h (1 Bft)
10.11.2025 10:46 21,4 °C 10,7 °C 56 % 95 % 1016,1 hPa 0,0 l/m² 0,0 km/h (0 Bft) S-SW 210 ° 1 min 167 W/m² 9,9 °C 10,7 °C 0,0 km/h (0 Bft)
10.11.2025 10:47 21,4 °C 10,7 °C 56 % 95 % 1016,0 hPa 0,0 l/m² 0,0 km/h (0 Bft) S-SW 210 ° 1 min 165 W/m² 9,9 °C 10,7 °C 0,0 km/h (0 Bft)
10.11.2025 10:48 21,4 °C 10,7 °C 56 % 95 % 1016,1 hPa 0,0 l/m² 0,0 km/h (0 Bft) S-SW 210 ° 1 min 163 W/m² 9,9 °C 10,7 °C 0,0 km/h (0 Bft)
10.11.2025 10:49 21,4 °C 10,8 °C 56 % 95 % 1016,0 hPa 0,0 l/m² 0,0 km/h (0 Bft) S-SW 210 ° 1 min 162 W/m² 10,0 °C 10,8 °C 0,0 km/h (0 Bft)
10.11.2025 10:50 21,4 °C 10,8 °C 56 % 95 % 1016,0 hPa 0,0 l/m² 0,0 km/h (0 Bft) S-SW 210 ° 1 min 160 W/m² 10,0 °C 10,8 °C 0,0 km/h (0 Bft)
10.11.2025 10:51 21,4 °C 10,8 °C 56 % 95 % 1016,0 hPa 0,0 l/m² 0,0 km/h (0 Bft) S-SW 210 ° 1 min 156 W/m² 10,0 °C 10,8 °C 0,0 km/h (0 Bft)
10.11.2025 10:52 21,4 °C 10,8 °C 56 % 95 % 1016,0 hPa 0,0 l/m² 0,0 km/h (0 Bft) S-SW 210 ° 1 min 153 W/m² 10,0 °C 10,8 °C 0,0 km/h (0 Bft)
10.11.2025 10:53 21,4 °C 10,8 °C 56 % 95 % 1016,0 hPa 0,0 l/m² 0,0 km/h (0 Bft) S-SW 210 ° 1 min 151 W/m² 10,0 °C 10,8 °C 0,0 km/h (0 Bft)
10.11.2025 10:54 21,4 °C 10,8 °C 56 % 95 % 1016,1 hPa 0,0 l/m² 0,0 km/h (0 Bft) S-SW 210 ° 1 min 148 W/m² 10,0 °C 10,8 °C 0,0 km/h (0 Bft)
10.11.2025 10:55 21,4 °C 10,8 °C 56 % 95 % 1016,0 hPa 0,0 l/m² 0,0 km/h (0 Bft) S-SW 210 ° 1 min 146 W/m² 10,0 °C 10,8 °C 0,0 km/h (0 Bft)
10.11.2025 10:56 21,4 °C 10,9 °C 56 % 95 % 1016,0 hPa 0,0 l/m² 0,0 km/h (0 Bft) S-SW 210 ° 1 min 141 W/m² 10,1 °C 10,9 °C 0,0 km/h (0 Bft)
10.11.2025 10:57 21,4 °C 10,9 °C 56 % 95 % 1015,9 hPa 0,0 l/m² 0,0 km/h (0 Bft) S-SW 210 ° 1 min 139 W/m² 10,1 °C 10,9 °C 0,0 km/h (0 Bft)
10.11.2025 10:58 21,4 °C 10,8 °C 56 % 95 % 1016,1 hPa 0,0 l/m² 0,0 km/h (0 Bft) S-SW 210 ° 1 min 139 W/m² 10,0 °C 10,8 °C 0,0 km/h (0 Bft)
10.11.2025 10:59 21,4 °C 10,9 °C 57 % 95 % 1016,0 hPa 0,0 l/m² 0,0 km/h (0 Bft) S-SW 210 ° 1 min 139 W/m² 10,1 °C 10,9 °C 0,0 km/h (0 Bft)
10.11.2025 11:00 21,4 °C 10,9 °C 57 % 95 % 1015,9 hPa 0,0 l/m² 0,0 km/h (0 Bft) S-SW 210 ° 1 min 139 W/m² 10,1 °C 10,9 °C 0,0 km/h (0 Bft)
10.11.2025 11:01 21,4 °C 10,9 °C 56 % 95 % 1016,0 hPa 0,0 l/m² 0,0 km/h (0 Bft) S-SW 210 ° 1 min 139 W/m² 10,1 °C 10,9 °C 0,0 km/h (0 Bft)
10.11.2025 11:03 21,4 °C 10,8 °C 56 % 94 % 1015,9 hPa 0,0 l/m² 0,0 km/h (0 Bft) S-SW 210 ° 2 min 139 W/m² 9,9 °C 10,8 °C 0,0 km/h (0 Bft)
10.11.2025 11:04 21,4 °C 10,8 °C 56 % 94 % 1015,9 hPa 0,0 l/m² 0,0 km/h (0 Bft) S-SW 210 ° 1 min 141 W/m² 9,9 °C 10,8 °C 0,0 km/h (0 Bft)
10.11.2025 11:05 21,4 °C 10,8 °C 57 % 94 % 1015,9 hPa 0,0 l/m² 0,0 km/h (0 Bft) S-SW 210 ° 1 min 141 W/m² 9,9 °C 10,8 °C 0,0 km/h (0 Bft)
10.11.2025 11:06 21,4 °C 10,8 °C 57 % 94 % 1015,9 hPa 0,0 l/m² 0,0 km/h (0 Bft) S-SW 210 ° 1 min 142 W/m² 9,9 °C 10,8 °C 0,0 km/h (0 Bft)
10.11.2025 11:08 21,4 °C 10,9 °C 56 % 95 % 1015,9 hPa 0,0 l/m² 0,0 km/h (0 Bft) S-SW 210 ° 2 min 144 W/m² 10,1 °C 10,9 °C 0,0 km/h (0 Bft)
10.11.2025 11:09 21,4 °C 10,9 °C 56 % 94 % 1015,9 hPa 0,0 l/m² 0,0 km/h (0 Bft) S-SW 210 ° 1 min 146 W/m² 10,0 °C 10,9 °C 0,0 km/h (0 Bft)
10.11.2025 11:10 21,3 °C 10,9 °C 57 % 94 % 1015,9 hPa 0,0 l/m² 0,0 km/h (0 Bft) S-SW 210 ° 1 min 146 W/m² 10,0 °C 10,9 °C 0,0 km/h (0 Bft)
10.11.2025 11:12 21,3 °C 10,9 °C 57 % 94 % 1015,9 hPa 0,0 l/m² 0,0 km/h (0 Bft) S-SW 210 ° 2 min 148 W/m² 10,0 °C 10,9 °C 0,0 km/h (0 Bft)
10.11.2025 11:13 21,3 °C 10,9 °C 57 % 94 % 1015,9 hPa 0,0 l/m² 0,0 km/h (0 Bft) S-SW 210 ° 1 min 149 W/m² 10,0 °C 10,9 °C 0,0 km/h (0 Bft)
10.11.2025 11:14 21,3 °C 10,9 °C 57 % 94 % 1015,8 hPa 0,0 l/m² 0,0 km/h (0 Bft) S-SW 210 ° 1 min 151 W/m² 10,0 °C 10,9 °C 0,0 km/h (0 Bft)
10.11.2025 11:15 21,3 °C 10,9 °C 57 % 94 % 1015,8 hPa 0,0 l/m² 0,0 km/h (0 Bft) S-SW 210 ° 1 min 151 W/m² 10,0 °C 10,9 °C 0,0 km/h (0 Bft)
10.11.2025 11:16 21,3 °C 10,9 °C 57 % 94 % 1015,8 hPa 0,0 l/m² 0,1 km/h (0 Bft) S-SW 210 ° 1 min 151 W/m² 10,0 °C 10,9 °C 1,6 km/h (1 Bft)
10.11.2025 11:17 21,3 °C 10,9 °C 57 % 94 % 1015,8 hPa 0,0 l/m² 0,0 km/h (0 Bft) S-SW 210 ° 1 min 153 W/m² 10,0 °C 10,9 °C 0,0 km/h (0 Bft)
10.11.2025 11:18 21,3 °C 10,9 °C 57 % 94 % 1015,8 hPa 0,0 l/m² 0,9 km/h (0 Bft) S-SW 213 ° 1 min 153 W/m² 10,0 °C 10,9 °C 1,6 km/h (1 Bft)
10.11.2025 11:19 21,3 °C 10,9 °C 57 % 94 % 1015,8 hPa 0,0 l/m² 0,4 km/h (0 Bft) S-SW 213 ° 1 min 153 W/m² 10,0 °C 10,9 °C 3,2 km/h (1 Bft)
10.11.2025 11:20 21,3 °C 10,9 °C 57 % 95 % 1015,8 hPa 0,0 l/m² 0,0 km/h (0 Bft) S-SW 213 ° 1 min 155 W/m² 10,1 °C 10,9 °C 0,0 km/h (0 Bft)
10.11.2025 11:21 21,3 °C 11,0 °C 57 % 94 % 1015,7 hPa 0,0 l/m² 1,5 km/h (1 Bft) S-SW 213 ° 1 min 156 W/m² 10,1 °C 11,0 °C 4,8 km/h (1 Bft)
10.11.2025 11:22 21,3 °C 10,9 °C 57 % 94 % 1015,8 hPa 0,0 l/m² 4,7 km/h (1 Bft) S-SW 213 ° 1 min 158 W/m² 10,0 °C 10,9 °C 6,4 km/h (2 Bft)
10.11.2025 11:23 21,3 °C 11,0 °C 57 % 94 % 1015,8 hPa 0,0 l/m² 2,5 km/h (1 Bft) S-SW 213 ° 1 min 160 W/m² 10,1 °C 11,0 °C 6,4 km/h (2 Bft)
10.11.2025 11:24 21,3 °C 10,9 °C 57 % 94 % 1015,8 hPa 0,0 l/m² 6,8 km/h (2 Bft) S-SW 197 ° 1 min 162 W/m² 10,0 °C 10,6 °C 8,0 km/h (2 Bft)
10.11.2025 11:25 21,3 °C 11,0 °C 57 % 94 % 1015,8 hPa 0,0 l/m² 5,0 km/h (1 Bft) S-SW 197 ° 1 min 163 W/m² 10,1 °C 11,0 °C 6,4 km/h (2 Bft)
10.11.2025 11:26 21,3 °C 10,9 °C 57 % 94 % 1015,7 hPa 0,0 l/m² 4,3 km/h (1 Bft) S-SW 197 ° 1 min 169 W/m² 10,0 °C 10,9 °C 6,4 km/h (2 Bft)
10.11.2025 11:27 21,3 °C 10,9 °C 57 % 94 % 1015,8 hPa 0,0 l/m² 6,8 km/h (2 Bft) S-SW 205 ° 1 min 172 W/m² 10,0 °C 10,6 °C 8,0 km/h (2 Bft)
10.11.2025 11:28 21,3 °C 10,9 °C 57 % 94 % 1015,7 hPa 0,0 l/m² 5,0 km/h (1 Bft) S-SW 204 ° 1 min 178 W/m² 10,0 °C 10,9 °C 6,4 km/h (2 Bft)
10.11.2025 11:29 21,3 °C 10,9 °C 57 % 94 % 1015,8 hPa 0,0 l/m² 3,9 km/h (1 Bft) S-SW 205 ° 1 min 176 W/m² 10,0 °C 10,9 °C 6,4 km/h (2 Bft)
10.11.2025 11:30 21,3 °C 10,9 °C 57 % 94 % 1015,7 hPa 0,0 l/m² 6,2 km/h (2 Bft) S-SW 205 ° 1 min 174 W/m² 10,0 °C 10,9 °C 6,4 km/h (2 Bft)
10.11.2025 11:31 21,3 °C 10,9 °C 57 % 94 % 1015,7 hPa 0,0 l/m² 4,8 km/h (1 Bft) S-SW 205 ° 1 min 190 W/m² 10,0 °C 10,9 °C 6,4 km/h (2 Bft)
10.11.2025 11:32 21,3 °C 10,9 °C 57 % 94 % 1015,7 hPa 0,0 l/m² 5,4 km/h (2 Bft) S-SW 207 ° 1 min 193 W/m² 10,0 °C 10,9 °C 6,4 km/h (2 Bft)
10.11.2025 11:33 21,3 °C 10,9 °C 57 % 94 % 1015,7 hPa 0,0 l/m² 6,2 km/h (2 Bft) S-SW 207 ° 1 min 220 W/m² 10,0 °C 10,9 °C 8,0 km/h (2 Bft)
10.11.2025 11:34 21,3 °C 10,9 °C 57 % 94 % 1015,7 hPa 0,0 l/m² 6,4 km/h (2 Bft) S-SW 207 ° 1 min 250 W/m² 10,0 °C 10,9 °C 8,0 km/h (2 Bft)
10.11.2025 11:35 21,3 °C 10,9 °C 57 % 94 % 1015,6 hPa 0,0 l/m² 6,6 km/h (2 Bft) S-SW 206 ° 1 min 237 W/m² 10,0 °C 10,8 °C 8,0 km/h (2 Bft)
10.11.2025 11:36 21,3 °C 10,9 °C 57 % 94 % 1015,7 hPa 0,0 l/m² 7,6 km/h (2 Bft) S-SW 197 ° 1 min 209 W/m² 10,0 °C 10,1 °C 9,7 km/h (2 Bft)
10.11.2025 11:37 21,3 °C 10,9 °C 57 % 94 % 1015,7 hPa 0,0 l/m² 9,5 km/h (2 Bft) SW 223 ° 1 min 209 W/m² 10,0 °C 8,9 °C 11,3 km/h (2 Bft)
10.11.2025 11:38 21,3 °C 10,9 °C 57 % 94 % 1015,6 hPa 0,0 l/m² 8,0 km/h (2 Bft) SW 219 ° 1 min 482 W/m² 10,0 °C 9,8 °C 11,3 km/h (2 Bft)
10.11.2025 11:39 21,3 °C 10,9 °C 57 % 94 % 1015,6 hPa 0,0 l/m² 6,8 km/h (2 Bft) SW 218 ° 1 min 482 W/m² 10,0 °C 10,6 °C 9,7 km/h (2 Bft)
10.11.2025 11:40 21,3 °C 10,9 °C 57 % 94 % 1015,6 hPa 0,0 l/m² 5,7 km/h (2 Bft) SW 217 ° 1 min 304 W/m² 10,0 °C 10,9 °C 6,4 km/h (2 Bft)
10.11.2025 11:42 21,3 °C 11,0 °C 57 % 94 % 1015,7 hPa 0,0 l/m² 7,6 km/h (2 Bft) SW 218 ° 2 min 457 W/m² 10,1 °C 10,2 °C 9,7 km/h (2 Bft)
10.11.2025 11:43 21,3 °C 11,0 °C 57 % 94 % 1015,7 hPa 0,0 l/m² 7,4 km/h (2 Bft) S-SW 212 ° 1 min 443 W/m² 10,1 °C 10,3 °C 8,0 km/h (2 Bft)
10.11.2025 11:44 21,3 °C 11,0 °C 57 % 94 % 1015,7 hPa 0,0 l/m² 9,2 km/h (2 Bft) SW 221 ° 1 min 445 W/m² 10,1 °C 9,2 °C 11,3 km/h (2 Bft)
10.11.2025 11:45 21,3 °C 11,0 °C 57 % 94 % 1015,7 hPa 0,0 l/m² 9,1 km/h (2 Bft) SW 214 ° 1 min 439 W/m² 10,1 °C 9,2 °C 11,3 km/h (2 Bft)
10.11.2025 11:46 21,3 °C 11,1 °C 57 % 94 % 1015,6 hPa 0,0 l/m² 8,9 km/h (2 Bft) S-SW 211 ° 1 min 432 W/m² 10,2 °C 9,4 °C 11,3 km/h (2 Bft)
10.11.2025 11:47 21,3 °C 11,1 °C 57 % 94 % 1015,6 hPa 0,0 l/m² 7,4 km/h (2 Bft) S-SW 205 ° 1 min 427 W/m² 10,2 °C 10,4 °C 9,7 km/h (2 Bft)
10.11.2025 11:48 21,3 °C 11,1 °C 57 % 94 % 1015,6 hPa 0,0 l/m² 5,8 km/h (2 Bft) S-SW 204 ° 1 min 424 W/m² 10,2 °C 11,1 °C 8,0 km/h (2 Bft)
10.11.2025 11:49 21,3 °C 11,2 °C 57 % 94 % 1015,6 hPa 0,0 l/m² 8,8 km/h (2 Bft) SW 217 ° 1 min 417 W/m² 10,3 °C 9,6 °C 11,3 km/h (2 Bft)
10.11.2025 11:50 21,3 °C 11,2 °C 57 % 94 % 1015,6 hPa 0,0 l/m² 7,8 km/h (2 Bft) SW 220 ° 1 min 415 W/m² 10,3 °C 10,2 °C 11,3 km/h (2 Bft)
10.11.2025 11:51 21,4 °C 11,2 °C 57 % 94 % 1015,7 hPa 0,0 l/m² 10,1 km/h (2 Bft) SW 215 ° 1 min 413 W/m² 10,3 °C 8,9 °C 11,3 km/h (2 Bft)
10.11.2025 11:52 21,4 °C 11,2 °C 57 % 94 % 1015,6 hPa 0,0 l/m² 9,9 km/h (2 Bft) S-SW 207 ° 1 min 413 W/m² 10,3 °C 9,0 °C 12,9 km/h (3 Bft)
10.11.2025 11:53 21,4 °C 11,2 °C 57 % 94 % 1015,6 hPa 0,0 l/m² 8,1 km/h (2 Bft) S-SW 207 ° 1 min 411 W/m² 10,3 °C 10,0 °C 11,3 km/h (2 Bft)
10.11.2025 11:54 21,4 °C 11,2 °C 57 % 94 % 1015,6 hPa 0,0 l/m² 8,5 km/h (2 Bft) S-SW 209 ° 1 min 413 W/m² 10,3 °C 9,8 °C 9,7 km/h (2 Bft)
10.11.2025 11:55 21,3 °C 11,2 °C 57 % 93 % 1015,5 hPa 0,0 l/m² 7,0 km/h (2 Bft) S-SW 211 ° 1 min 413 W/m² 10,1 °C 10,8 °C 8,0 km/h (2 Bft)
10.11.2025 11:56 21,4 °C 11,3 °C 56 % 93 % 1015,7 hPa 0,0 l/m² 3,2 km/h (1 Bft) S-SW 211 ° 1 min 415 W/m² 10,2 °C 11,3 °C 6,4 km/h (2 Bft)
10.11.2025 11:57 21,4 °C 11,3 °C 57 % 93 % 1015,6 hPa 0,0 l/m² 0,9 km/h (0 Bft) S-SW 211 ° 1 min 422 W/m² 10,2 °C 11,3 °C 3,2 km/h (1 Bft)
10.11.2025 11:58 21,4 °C 11,3 °C 57 % 93 % 1015,6 hPa 0,0 l/m² 5,8 km/h (2 Bft) S-SW 206 ° 1 min 425 W/m² 10,2 °C 11,3 °C 8,0 km/h (2 Bft)
10.11.2025 11:59 21,4 °C 11,4 °C 56 % 93 % 1015,6 hPa 0,0 l/m² 4,9 km/h (1 Bft) S-SW 207 ° 1 min 425 W/m² 10,3 °C 11,4 °C 6,4 km/h (2 Bft)
10.11.2025 12:00 21,4 °C 11,4 °C 57 % 93 % 1015,6 hPa 0,0 l/m² 2,7 km/h (1 Bft) S-SW 207 ° 1 min 427 W/m² 10,3 °C 11,4 °C 4,8 km/h (1 Bft)
10.11.2025 12:01 21,4 °C 11,4 °C 56 % 93 % 1015,6 hPa 0,0 l/m² 3,2 km/h (1 Bft) S-SW 202 ° 1 min 436 W/m² 10,3 °C 11,4 °C 6,4 km/h (2 Bft)
10.11.2025 12:07 21,4 °C 11,7 °C 57 % 93 % 1015,5 hPa 0,0 l/m² 5,1 km/h (1 Bft) S-SW 206 ° 6 min 431 W/m² 10,6 °C 11,7 °C 6,4 km/h (2 Bft)
10.11.2025 12:09 21,4 °C 11,8 °C 56 % 93 % 1015,5 hPa 0,0 l/m² 2,6 km/h (1 Bft) S-SW 206 ° 2 min 457 W/m² 10,7 °C 11,8 °C 6,4 km/h (2 Bft)
10.11.2025 12:10 21,4 °C 11,8 °C 56 % 93 % 1015,5 hPa 0,0 l/m² 2,1 km/h (1 Bft) S-SW 206 ° 1 min 454 W/m² 10,7 °C 11,8 °C 3,2 km/h (1 Bft)
10.11.2025 12:13 21,4 °C 11,9 °C 56 % 92 % 1015,5 hPa 0,0 l/m² 0,3 km/h (0 Bft) S-SW 206 ° 3 min 404 W/m² 10,6 °C 11,9 °C 3,2 km/h (1 Bft)
10.11.2025 12:15 21,4 °C 12,1 °C 56 % 92 % 1015,6 hPa 0,0 l/m² 0,6 km/h (0 Bft) S-SW 206 ° 2 min 404 W/m² 10,8 °C 12,1 °C 3,2 km/h (1 Bft)
10.11.2025 12:17 21,4 °C 12,2 °C 56 % 92 % 1015,5 hPa 0,0 l/m² 0,5 km/h (0 Bft) S-SW 206 ° 2 min 396 W/m² 10,9 °C 12,2 °C 3,2 km/h (1 Bft)
10.11.2025 12:19 21,4 °C 12,2 °C 56 % 92 % 1015,5 hPa 0,0 l/m² 0,7 km/h (0 Bft) S-SW 206 ° 2 min 383 W/m² 10,9 °C 12,2 °C 1,6 km/h (1 Bft)
10.11.2025 12:20 21,4 °C 12,3 °C 56 % 92 % 1015,5 hPa 0,0 l/m² 0,0 km/h (0 Bft) S-SW 206 ° 1 min 381 W/m² 11,0 °C 12,3 °C 0,0 km/h (0 Bft)
10.11.2025 12:21 21,4 °C 12,4 °C 56 % 92 % 1015,4 hPa 0,0 l/m² 0,1 km/h (0 Bft) S-SW 206 ° 1 min 378 W/m² 11,1 °C 12,4 °C 1,6 km/h (1 Bft)
10.11.2025 12:22 21,4 °C 12,4 °C 56 % 92 % 1015,4 hPa 0,0 l/m² 0,2 km/h (0 Bft) S-SW 206 ° 1 min 373 W/m² 11,1 °C 12,4 °C 1,6 km/h (1 Bft)
10.11.2025 12:24 21,4 °C 12,5 °C 56 % 91 % 1015,4 hPa 0,0 l/m² 0,0 km/h (0 Bft) S-SW 206 ° 2 min 381 W/m² 11,1 °C 12,5 °C 0,0 km/h (0 Bft)
10.11.2025 12:25 21,4 °C 12,6 °C 56 % 91 % 1015,5 hPa 0,0 l/m² 1,9 km/h (1 Bft) S-SW 206 ° 1 min 380 W/m² 11,2 °C 12,6 °C 4,8 km/h (1 Bft)
10.11.2025 12:27 21,4 °C 12,7 °C 56 % 91 % 1015,4 hPa 0,0 l/m² 0,3 km/h (0 Bft) S-SW 206 ° 2 min 378 W/m² 11,3 °C 12,7 °C 3,2 km/h (1 Bft)
10.11.2025 12:29 21,4 °C 12,7 °C 56 % 90 % 1015,4 hPa 0,0 l/m² 0,1 km/h (0 Bft) S-SW 206 ° 2 min 334 W/m² 11,1 °C 12,7 °C 1,6 km/h (1 Bft)
10.11.2025 12:30 21,4 °C 12,7 °C 56 % 90 % 1015,4 hPa 0,0 l/m² 0,0 km/h (0 Bft) S-SW 206 ° 1 min 390 W/m² 11,1 °C 12,7 °C 0,0 km/h (0 Bft)
10.11.2025 12:31 21,5 °C 12,8 °C 56 % 90 % 1015,4 hPa 0,0 l/m² 0,0 km/h (0 Bft) S-SW 206 ° 1 min 394 W/m² 11,2 °C 12,8 °C 0,0 km/h (0 Bft)
10.11.2025 12:32 21,5 °C 12,8 °C 56 % 89 % 1015,4 hPa 0,0 l/m² 0,0 km/h (0 Bft) S-SW 206 ° 1 min 388 W/m² 11,0 °C 12,8 °C 0,0 km/h (0 Bft)
10.11.2025 12:34 21,4 °C 12,9 °C 56 % 89 % 1015,4 hPa 0,0 l/m² 0,0 km/h (0 Bft) S-SW 206 ° 2 min 376 W/m² 11,1 °C 12,9 °C 0,0 km/h (0 Bft)
10.11.2025 12:35 21,4 °C 12,9 °C 56 % 89 % 1015,3 hPa 0,0 l/m² 0,0 km/h (0 Bft) S-SW 206 ° 1 min 376 W/m² 11,1 °C 12,9 °C 0,0 km/h (0 Bft)
10.11.2025 12:37 21,4 °C 13,1 °C 56 % 88 % 1015,3 hPa 0,0 l/m² 0,0 km/h (0 Bft) S-SW 206 ° 2 min 399 W/m² 11,2 °C 13,1 °C 0,0 km/h (0 Bft)
10.11.2025 12:39 21,5 °C 13,2 °C 56 % 87 % 1015,4 hPa 0,0 l/m² 2,8 km/h (1 Bft) S-SO 152 ° 2 min 394 W/m² 11,1 °C 13,2 °C 8,0 km/h (2 Bft)
10.11.2025 12:40 21,5 °C 13,2 °C 56 % 87 % 1015,3 hPa 0,0 l/m² 5,6 km/h (2 Bft) S-SW 209 ° 1 min 392 W/m² 11,1 °C 13,2 °C 9,7 km/h (2 Bft)
10.11.2025 12:41 21,5 °C 13,3 °C 56 % 87 % 1015,2 hPa 0,0 l/m² 6,4 km/h (2 Bft) S-SW 205 ° 1 min 396 W/m² 11,2 °C 13,3 °C 8,0 km/h (2 Bft)
10.11.2025 12:42 21,5 °C 13,3 °C 56 % 87 % 1015,2 hPa 0,0 l/m² 5,1 km/h (1 Bft) S-SW 192 ° 1 min 390 W/m² 11,2 °C 13,3 °C 8,0 km/h (2 Bft)
10.11.2025 12:44 21,5 °C 13,4 °C 56 % 86 % 1015,3 hPa 0,0 l/m² 5,2 km/h (1 Bft) S 190 ° 2 min 380 W/m² 11,1 °C 13,4 °C 6,4 km/h (2 Bft)
10.11.2025 12:45 21,5 °C 13,4 °C 56 % 85 % 1015,3 hPa 0,0 l/m² 4,8 km/h (1 Bft) S 190 ° 1 min 374 W/m² 10,9 °C 13,4 °C 6,4 km/h (2 Bft)
10.11.2025 12:47 21,5 °C 13,5 °C 56 % 85 % 1015,3 hPa 0,0 l/m² 4,8 km/h (1 Bft) S-SW 193 ° 2 min 364 W/m² 11,0 °C 13,5 °C 8,0 km/h (2 Bft)
10.11.2025 12:49 21,6 °C 13,6 °C 56 % 85 % 1015,3 hPa 0,0 l/m² 3,8 km/h (1 Bft) S-SW 193 ° 2 min 357 W/m² 11,1 °C 13,6 °C 6,4 km/h (2 Bft)
10.11.2025 12:50 21,5 °C 13,6 °C 56 % 84 % 1015,3 hPa 0,0 l/m² 1,7 km/h (1 Bft) S-SW 193 ° 1 min 355 W/m² 10,9 °C 13,6 °C 4,8 km/h (1 Bft)
10.11.2025 12:51 21,6 °C 13,6 °C 56 % 84 % 1015,2 hPa 0,0 l/m² 3,6 km/h (1 Bft) S-SW 193 ° 1 min 343 W/m² 10,9 °C 13,6 °C 4,8 km/h (1 Bft)
10.11.2025 12:52 21,6 °C 13,6 °C 56 % 84 % 1015,2 hPa 0,0 l/m² 0,8 km/h (0 Bft) S-SW 193 ° 1 min 343 W/m² 10,9 °C 13,6 °C 1,6 km/h (1 Bft)
10.11.2025 12:53 21,6 °C 13,6 °C 56 % 83 % 1015,3 hPa 0,0 l/m² 3,2 km/h (1 Bft) S-SW 193 ° 1 min 237 W/m² 10,8 °C 13,6 °C 4,8 km/h (1 Bft)
10.11.2025 12:54 21,6 °C 13,6 °C 56 % 83 % 1015,3 hPa 0,0 l/m² 3,4 km/h (1 Bft) S-SW 193 ° 1 min 343 W/m² 10,8 °C 13,6 °C 4,8 km/h (1 Bft)
10.11.2025 12:56 21,6 °C 13,6 °C 56 % 83 % 1015,3 hPa 0,0 l/m² 4,0 km/h (1 Bft) S-SW 192 ° 2 min 352 W/m² 10,8 °C 13,6 °C 8,0 km/h (2 Bft)
10.11.2025 12:57 21,6 °C 13,6 °C 56 % 82 % 1015,3 hPa 0,0 l/m² 0,1 km/h (0 Bft) S-SW 192 ° 1 min 352 W/m² 10,6 °C 13,6 °C 1,6 km/h (1 Bft)
10.11.2025 12:58 21,6 °C 13,6 °C 56 % 82 % 1015,3 hPa 0,0 l/m² 1,0 km/h (0 Bft) S-SW 192 ° 1 min 353 W/m² 10,6 °C 13,6 °C 3,2 km/h (1 Bft)
10.11.2025 13:00 21,6 °C 13,6 °C 56 % 82 % 1015,2 hPa 0,0 l/m² 2,1 km/h (1 Bft) S 190 ° 2 min 264 W/m² 10,6 °C 13,6 °C 4,8 km/h (1 Bft)
10.11.2025 13:01 21,6 °C 13,6 °C 56 % 82 % 1015,2 hPa 0,0 l/m² 1,6 km/h (1 Bft) S 190 ° 1 min 264 W/m² 10,6 °C 13,6 °C 3,2 km/h (1 Bft)
10.11.2025 13:02 21,6 °C 13,6 °C 56 % 82 % 1015,2 hPa 0,0 l/m² 2,9 km/h (1 Bft) S 190 ° 1 min 352 W/m² 10,6 °C 13,6 °C 4,8 km/h (1 Bft)
10.11.2025 13:04 21,6 °C 13,7 °C 56 % 81 % 1015,3 hPa 0,0 l/m² 2,8 km/h (1 Bft) S 190 ° 2 min 343 W/m² 10,5 °C 13,7 °C 4,8 km/h (1 Bft)
10.11.2025 13:05 21,6 °C 13,7 °C 56 % 81 % 1015,2 hPa 0,0 l/m² 0,5 km/h (0 Bft) S 190 ° 1 min 343 W/m² 10,5 °C 13,7 °C 1,6 km/h (1 Bft)
10.11.2025 13:06 21,6 °C 13,7 °C 56 % 81 % 1015,3 hPa 0,0 l/m² 0,5 km/h (0 Bft) S 190 ° 1 min 343 W/m² 10,5 °C 13,7 °C 1,6 km/h (1 Bft)
10.11.2025 13:08 21,6 °C 13,7 °C 56 % 81 % 1015,2 hPa 0,0 l/m² 2,3 km/h (1 Bft) S 190 ° 2 min 221 W/m² 10,5 °C 13,7 °C 4,8 km/h (1 Bft)
10.11.2025 13:09 21,6 °C 13,7 °C 56 % 81 % 1015,1 hPa 0,0 l/m² 1,0 km/h (0 Bft) S 190 ° 1 min 221 W/m² 10,5 °C 13,7 °C 3,2 km/h (1 Bft)
10.11.2025 13:10 21,6 °C 13,7 °C 56 % 81 % 1015,2 hPa 0,0 l/m² 0,9 km/h (0 Bft) S 190 ° 1 min 413 W/m² 10,5 °C 13,7 °C 1,6 km/h (1 Bft)
10.11.2025 13:11 21,6 °C 13,7 °C 56 % 81 % 1015,2 hPa 0,0 l/m² 0,0 km/h (0 Bft) N 0 ° 1 min 420 W/m² 10,5 °C 13,7 °C 0,0 km/h (0 Bft)
10.11.2025 13:12 21,6 °C 13,7 °C 56 % 81 % 1015,2 hPa 0,0 l/m² 0,0 km/h (0 Bft) S 180 ° 1 min 429 W/m² 10,5 °C 13,7 °C 3,2 km/h (1 Bft)
10.11.2025 13:18 21,6 °C 13,8 °C 56 % 80 % 1015,1 hPa 0,0 l/m² 1,1 km/h (1 Bft) S 190 ° 6 min 445 W/m² 10,4 °C 13,8 °C 3,2 km/h (1 Bft)
10.11.2025 13:20 21,6 °C 13,8 °C 56 % 79 % 1015,1 hPa 0,0 l/m² 3,5 km/h (1 Bft) S 189 ° 2 min 448 W/m² 10,2 °C 13,8 °C 6,4 km/h (2 Bft)
10.11.2025 13:21 21,6 °C 13,8 °C 56 % 79 % 1015,1 hPa 0,0 l/m² 2,0 km/h (1 Bft) S 189 ° 1 min 445 W/m² 10,2 °C 13,8 °C 3,2 km/h (1 Bft)
10.11.2025 13:22 21,6 °C 13,8 °C 56 % 79 % 1015,1 hPa 0,0 l/m² 0,1 km/h (0 Bft) S 189 ° 1 min 448 W/m² 10,2 °C 13,8 °C 1,6 km/h (1 Bft)
10.11.2025 13:24 21,6 °C 13,9 °C 56 % 78 % 1015,1 hPa 0,0 l/m² 2,5 km/h (1 Bft) S 188 ° 2 min 329 W/m² 10,1 °C 13,9 °C 4,8 km/h (1 Bft)
10.11.2025 13:26 21,6 °C 13,9 °C 56 % 77 % 1015,1 hPa 0,0 l/m² 3,0 km/h (1 Bft) S 174 ° 2 min 327 W/m² 9,9 °C 13,9 °C 6,4 km/h (2 Bft)
10.11.2025 13:28 21,6 °C 13,9 °C 56 % 77 % 1015,1 hPa 0,0 l/m² 0,2 km/h (0 Bft) S 175 ° 2 min 431 W/m² 9,9 °C 13,9 °C 1,6 km/h (1 Bft)
10.11.2025 13:30 21,6 °C 14,0 °C 56 % 78 % 1015,0 hPa 0,0 l/m² 4,5 km/h (1 Bft) S-SW 201 ° 2 min 439 W/m² 10,2 °C 14,0 °C 8,0 km/h (2 Bft)
10.11.2025 13:31 21,6 °C 14,0 °C 56 % 78 % 1015,0 hPa 0,0 l/m² 6,9 km/h (2 Bft) S-SW 213 ° 1 min 436 W/m² 10,2 °C 13,7 °C 8,0 km/h (2 Bft)
10.11.2025 13:32 21,6 °C 14,1 °C 56 % 77 % 1015,0 hPa 0,0 l/m² 5,7 km/h (2 Bft) S-SW 213 ° 1 min 431 W/m² 10,1 °C 14,1 °C 8,0 km/h (2 Bft)
10.11.2025 13:33 21,6 °C 14,1 °C 56 % 77 % 1015,0 hPa 0,0 l/m² 7,1 km/h (2 Bft) S-SW 205 ° 1 min 427 W/m² 10,1 °C 13,7 °C 9,7 km/h (2 Bft)
10.11.2025 13:34 21,6 °C 14,1 °C 56 % 78 % 1014,9 hPa 0,0 l/m² 6,3 km/h (2 Bft) S-SW 205 ° 1 min 422 W/m² 10,3 °C 14,1 °C 9,7 km/h (2 Bft)
10.11.2025 13:36 21,6 °C 14,1 °C 56 % 78 % 1014,9 hPa 0,0 l/m² 5,8 km/h (2 Bft) S-SW 193 ° 2 min 401 W/m² 10,3 °C 14,1 °C 11,3 km/h (2 Bft)
10.11.2025 13:38 21,6 °C 14,1 °C 56 % 78 % 1015,0 hPa 0,0 l/m² 7,3 km/h (2 Bft) S 182 ° 2 min 385 W/m² 10,3 °C 13,6 °C 9,7 km/h (2 Bft)
10.11.2025 13:40 21,6 °C 14,1 °C 56 % 78 % 1014,9 hPa 0,0 l/m² 5,4 km/h (2 Bft) S 180 ° 2 min 366 W/m² 10,3 °C 14,1 °C 8,0 km/h (2 Bft)
10.11.2025 13:41 21,6 °C 14,1 °C 56 % 78 % 1014,9 hPa 0,0 l/m² 7,1 km/h (2 Bft) S 182 ° 1 min 353 W/m² 10,3 °C 13,7 °C 11,3 km/h (2 Bft)
10.11.2025 13:42 21,6 °C 14,1 °C 56 % 78 % 1014,9 hPa 0,0 l/m² 7,4 km/h (2 Bft) S 186 ° 1 min 346 W/m² 10,3 °C 13,5 °C 8,0 km/h (2 Bft)
10.11.2025 13:43 21,6 °C 14,1 °C 56 % 77 % 1015,0 hPa 0,0 l/m² 6,8 km/h (2 Bft) SW 222 ° 1 min 338 W/m² 10,1 °C 13,9 °C 8,0 km/h (2 Bft)
10.11.2025 13:44 21,7 °C 14,0 °C 56 % 77 % 1014,9 hPa 0,0 l/m² 8,6 km/h (2 Bft) S-SW 213 ° 1 min 327 W/m² 10,0 °C 12,7 °C 11,3 km/h (2 Bft)
10.11.2025 13:46 21,6 °C 13,9 °C 56 % 78 % 1014,9 hPa 0,0 l/m² 7,3 km/h (2 Bft) S-SW 212 ° 2 min 304 W/m² 10,1 °C 13,4 °C 9,7 km/h (2 Bft)
10.11.2025 13:48 21,6 °C 13,9 °C 56 % 78 % 1014,9 hPa 0,0 l/m² 9,0 km/h (2 Bft) S-SW 209 ° 2 min 297 W/m² 10,1 °C 12,4 °C 11,3 km/h (2 Bft)
10.11.2025 13:50 21,6 °C 13,9 °C 56 % 78 % 1014,9 hPa 0,0 l/m² 9,1 km/h (2 Bft) S-SW 202 ° 2 min 295 W/m² 10,1 °C 12,4 °C 11,3 km/h (2 Bft)
10.11.2025 13:52 21,6 °C 13,8 °C 56 % 78 % 1014,9 hPa 0,0 l/m² 9,5 km/h (2 Bft) S-SW 213 ° 2 min 290 W/m² 10,0 °C 12,0 °C 11,3 km/h (2 Bft)
10.11.2025 13:53 21,6 °C 13,7 °C 56 % 78 % 1014,9 hPa 0,0 l/m² 8,1 km/h (2 Bft) S-SW 213 ° 1 min 288 W/m² 9,9 °C 12,7 °C 9,7 km/h (2 Bft)
10.11.2025 13:54 21,6 °C 13,7 °C 56 % 78 % 1014,9 hPa 0,0 l/m² 7,5 km/h (2 Bft) S-SW 211 ° 1 min 288 W/m² 9,9 °C 13,0 °C 9,7 km/h (2 Bft)
10.11.2025 13:56 21,6 °C 13,6 °C 56 % 78 % 1014,9 hPa 0,0 l/m² 9,0 km/h (2 Bft) S-SW 201 ° 2 min 285 W/m² 9,8 °C 12,1 °C 11,3 km/h (2 Bft)
10.11.2025 13:58 21,6 °C 13,6 °C 56 % 77 % 1014,9 hPa 0,0 l/m² 9,4 km/h (2 Bft) S-SW 200 ° 2 min 281 W/m² 9,6 °C 11,9 °C 11,3 km/h (2 Bft)
10.11.2025 14:00 21,6 °C 13,4 °C 56 % 78 % 1014,9 hPa 0,0 l/m² 9,6 km/h (2 Bft) SW 217 ° 2 min 276 W/m² 9,6 °C 11,6 °C 11,3 km/h (2 Bft)
10.11.2025 14:01 21,6 °C 13,4 °C 56 % 78 % 1014,9 hPa 0,0 l/m² 8,6 km/h (2 Bft) SW 215 ° 1 min 274 W/m² 9,6 °C 12,1 °C 11,3 km/h (2 Bft)
10.11.2025 14:02 21,6 °C 13,3 °C 56 % 78 % 1014,9 hPa 0,0 l/m² 10,3 km/h (2 Bft) SW 216 ° 1 min 269 W/m² 9,5 °C 11,1 °C 11,3 km/h (2 Bft)
10.11.2025 14:03 21,7 °C 13,3 °C 56 % 77 % 1014,9 hPa 0,0 l/m² 10,4 km/h (2 Bft) S-SW 213 ° 1 min 271 W/m² 9,4 °C 11,0 °C 12,9 km/h (3 Bft)
10.11.2025 14:04 21,6 °C 13,3 °C 56 % 77 % 1014,9 hPa 0,0 l/m² 9,2 km/h (2 Bft) S-SW 213 ° 1 min 271 W/m² 9,4 °C 11,7 °C 11,3 km/h (2 Bft)
10.11.2025 14:06 21,7 °C 13,2 °C 56 % 77 % 1014,8 hPa 0,0 l/m² 7,4 km/h (2 Bft) SW 220 ° 2 min 214 W/m² 9,3 °C 12,6 °C 9,7 km/h (2 Bft)
10.11.2025 14:08 21,7 °C 13,2 °C 56 % 77 % 1014,9 hPa 0,0 l/m² 8,7 km/h (2 Bft) SW 215 ° 2 min 262 W/m² 9,3 °C 11,8 °C 11,3 km/h (2 Bft)
10.11.2025 14:10 21,7 °C 13,2 °C 56 % 77 % 1014,8 hPa 0,0 l/m² 8,5 km/h (2 Bft) S-SW 210 ° 2 min 239 W/m² 9,3 °C 11,9 °C 11,3 km/h (2 Bft)
10.11.2025 14:12 21,7 °C 13,1 °C 56 % 78 % 1014,9 hPa 0,0 l/m² 7,9 km/h (2 Bft) S-SW 210 ° 2 min 241 W/m² 9,4 °C 12,2 °C 9,7 km/h (2 Bft)
10.11.2025 14:13 21,7 °C 13,1 °C 56 % 77 % 1014,9 hPa 0,0 l/m² 7,1 km/h (2 Bft) SW 214 ° 1 min 246 W/m² 9,2 °C 12,7 °C 11,3 km/h (2 Bft)
10.11.2025 14:14 21,6 °C 13,1 °C 56 % 78 % 1014,8 hPa 0,0 l/m² 9,1 km/h (2 Bft) SW 216 ° 1 min 248 W/m² 9,4 °C 11,5 °C 11,3 km/h (2 Bft)
10.11.2025 14:16 21,7 °C 13,1 °C 56 % 78 % 1014,9 hPa 0,0 l/m² 8,1 km/h (2 Bft) SW 217 ° 2 min 244 W/m² 9,4 °C 12,0 °C 11,3 km/h (2 Bft)
10.11.2025 14:18 21,7 °C 13,1 °C 56 % 78 % 1014,8 hPa 0,0 l/m² 8,1 km/h (2 Bft) S-SW 210 ° 2 min 243 W/m² 9,4 °C 12,0 °C 11,3 km/h (2 Bft)
10.11.2025 14:20 21,7 °C 13,1 °C 56 % 79 % 1014,8 hPa 0,0 l/m² 7,3 km/h (2 Bft) SW 225 ° 2 min 237 W/m² 9,5 °C 12,5 °C 11,3 km/h (2 Bft)
10.11.2025 14:21 21,7 °C 13,1 °C 56 % 79 % 1014,9 hPa 0,0 l/m² 8,6 km/h (2 Bft) SW 223 ° 1 min 236 W/m² 9,5 °C 11,8 °C 11,3 km/h (2 Bft)
10.11.2025 14:22 21,7 °C 13,1 °C 56 % 79 % 1014,9 hPa 0,0 l/m² 9,6 km/h (2 Bft) SW 217 ° 1 min 230 W/m² 9,5 °C 11,2 °C 11,3 km/h (2 Bft)
10.11.2025 14:24 21,7 °C 13,1 °C 56 % 79 % 1014,8 hPa 0,0 l/m² 9,8 km/h (2 Bft) SW 221 ° 2 min 227 W/m² 9,5 °C 11,1 °C 12,9 km/h (3 Bft)
10.11.2025 14:25 21,7 °C 13,1 °C 56 % 79 % 1014,8 hPa 0,0 l/m² 9,4 km/h (2 Bft) SW 219 ° 1 min 225 W/m² 9,5 °C 11,3 °C 11,3 km/h (2 Bft)
10.11.2025 14:27 21,7 °C 13,0 °C 56 % 79 % 1014,8 hPa 0,0 l/m² 7,8 km/h (2 Bft) S-SW 213 ° 2 min 220 W/m² 9,4 °C 12,1 °C 11,3 km/h (2 Bft)
10.11.2025 14:29 21,6 °C 13,1 °C 56 % 79 % 1014,8 hPa 0,0 l/m² 7,1 km/h (2 Bft) SW 233 ° 2 min 176 W/m² 9,5 °C 12,7 °C 9,7 km/h (2 Bft)
10.11.2025 14:31 21,7 °C 13,0 °C 56 % 80 % 1014,8 hPa 0,0 l/m² 9,6 km/h (2 Bft) SW 223 ° 2 min 204 W/m² 9,6 °C 11,1 °C 12,9 km/h (3 Bft)
10.11.2025 14:32 21,7 °C 13,0 °C 56 % 80 % 1014,8 hPa 0,0 l/m² 8,9 km/h (2 Bft) SW 223 ° 1 min 209 W/m² 9,6 °C 11,5 °C 11,3 km/h (2 Bft)
10.11.2025 14:33 21,7 °C 13,0 °C 56 % 80 % 1014,8 hPa 0,0 l/m² 8,0 km/h (2 Bft) SW 220 ° 1 min 209 W/m² 9,6 °C 12,0 °C 11,3 km/h (2 Bft)
10.11.2025 14:35 21,6 °C 13,0 °C 56 % 80 % 1014,8 hPa 0,0 l/m² 6,9 km/h (2 Bft) S-SW 208 ° 2 min 207 W/m² 9,6 °C 12,7 °C 9,7 km/h (2 Bft)
10.11.2025 14:37 21,6 °C 12,9 °C 56 % 80 % 1014,7 hPa 0,0 l/m² 8,1 km/h (2 Bft) S-SW 201 ° 2 min 202 W/m² 9,5 °C 11,8 °C 11,3 km/h (2 Bft)
10.11.2025 14:39 21,7 °C 12,9 °C 56 % 80 % 1014,8 hPa 0,0 l/m² 9,1 km/h (2 Bft) S-SW 205 ° 2 min 195 W/m² 9,5 °C 11,3 °C 12,9 km/h (3 Bft)
10.11.2025 14:40 21,6 °C 12,9 °C 56 % 80 % 1014,8 hPa 0,0 l/m² 9,5 km/h (2 Bft) S-SW 201 ° 1 min 193 W/m² 9,5 °C 11,1 °C 11,3 km/h (2 Bft)
10.11.2025 14:41 21,6 °C 12,9 °C 56 % 80 % 1014,7 hPa 0,0 l/m² 10,4 km/h (2 Bft) S 188 ° 1 min 190 W/m² 9,5 °C 10,6 °C 12,9 km/h (3 Bft)
10.11.2025 14:42 21,6 °C 12,9 °C 56 % 80 % 1014,7 hPa 0,0 l/m² 12,0 km/h (2 Bft) S-SW 205 ° 1 min 188 W/m² 9,5 °C 9,9 °C 14,5 km/h (3 Bft)
10.11.2025 14:44 21,6 °C 12,8 °C 56 % 80 % 1014,7 hPa 0,0 l/m² 9,0 km/h (2 Bft) SW 221 ° 2 min 183 W/m² 9,4 °C 11,2 °C 12,9 km/h (3 Bft)
10.11.2025 14:45 21,6 °C 12,8 °C 56 % 80 % 1014,8 hPa 0,0 l/m² 8,4 km/h (2 Bft) SW 226 ° 1 min 179 W/m² 9,4 °C 11,6 °C 9,7 km/h (2 Bft)
10.11.2025 14:47 21,6 °C 12,8 °C 56 % 81 % 1014,7 hPa 0,0 l/m² 8,4 km/h (2 Bft) SW 217 ° 2 min 174 W/m² 9,6 °C 11,6 °C 11,3 km/h (2 Bft)
10.11.2025 14:49 21,6 °C 12,8 °C 56 % 80 % 1014,7 hPa 0,0 l/m² 8,4 km/h (2 Bft) SW 216 ° 2 min 171 W/m² 9,4 °C 11,6 °C 11,3 km/h (2 Bft)
10.11.2025 14:50 21,6 °C 12,8 °C 56 % 80 % 1014,7 hPa 0,0 l/m² 6,7 km/h (2 Bft) S-SW 213 ° 1 min 165 W/m² 9,4 °C 12,6 °C 9,7 km/h (2 Bft)
10.11.2025 14:51 21,6 °C 12,8 °C 56 % 81 % 1014,8 hPa 0,0 l/m² 5,6 km/h (2 Bft) S-SW 213 ° 1 min 162 W/m² 9,6 °C 12,8 °C 6,4 km/h (2 Bft)
10.11.2025 14:52 21,6 °C 12,8 °C 56 % 81 % 1014,8 hPa 0,0 l/m² 5,1 km/h (1 Bft) S-SW 213 ° 1 min 158 W/m² 9,6 °C 12,8 °C 6,4 km/h (2 Bft)
10.11.2025 14:54 21,6 °C 12,8 °C 57 % 81 % 1014,7 hPa 0,0 l/m² 4,7 km/h (1 Bft) S-SW 213 ° 2 min 151 W/m² 9,6 °C 12,8 °C 6,4 km/h (2 Bft)
10.11.2025 14:55 21,6 °C 12,8 °C 56 % 81 % 1014,7 hPa 0,0 l/m² 5,3 km/h (1 Bft) S-SW 213 ° 1 min 149 W/m² 9,6 °C 12,8 °C 6,4 km/h (2 Bft)
10.11.2025 14:57 21,6 °C 12,8 °C 57 % 81 % 1014,7 hPa 0,0 l/m² 6,3 km/h (2 Bft) S-SW 213 ° 2 min 144 W/m² 9,6 °C 12,8 °C 8,0 km/h (2 Bft)
10.11.2025 14:58 21,6 °C 12,8 °C 57 % 81 % 1014,7 hPa 0,0 l/m² 5,9 km/h (2 Bft) S-SW 213 ° 1 min 144 W/m² 9,6 °C 12,8 °C 8,0 km/h (2 Bft)
10.11.2025 14:59 21,6 °C 12,8 °C 57 % 81 % 1014,7 hPa 0,0 l/m² 5,3 km/h (1 Bft) S-SW 213 ° 1 min 144 W/m² 9,6 °C 12,8 °C 6,4 km/h (2 Bft)
10.11.2025 15:01 21,6 °C 12,8 °C 57 % 81 % 1014,7 hPa 0,0 l/m² 3,0 km/h (1 Bft) S-SW 213 ° 2 min 141 W/m² 9,6 °C 12,8 °C 6,4 km/h (2 Bft)
10.11.2025 15:02 21,6 °C 12,8 °C 57 % 81 % 1014,7 hPa 0,0 l/m² 4,4 km/h (1 Bft) S-SW 213 ° 1 min 134 W/m² 9,6 °C 12,8 °C 4,8 km/h (1 Bft)
10.11.2025 15:03 21,6 °C 12,8 °C 57 % 81 % 1014,7 hPa 0,0 l/m² 3,3 km/h (1 Bft) S-SW 213 ° 1 min 132 W/m² 9,6 °C 12,8 °C 4,8 km/h (1 Bft)
10.11.2025 15:05 21,6 °C 12,8 °C 57 % 81 % 1014,7 hPa 0,0 l/m² 4,1 km/h (1 Bft) S-SW 213 ° 2 min 127 W/m² 9,6 °C 12,8 °C 4,8 km/h (1 Bft)
10.11.2025 15:07 21,6 °C 12,8 °C 57 % 81 % 1014,7 hPa 0,0 l/m² 4,3 km/h (1 Bft) S-SW 213 ° 2 min 109 W/m² 9,6 °C 12,8 °C 6,4 km/h (2 Bft)
10.11.2025 15:09 21,6 °C 12,8 °C 57 % 81 % 1014,7 hPa 0,0 l/m² 4,4 km/h (1 Bft) S-SW 213 ° 2 min 123 W/m² 9,6 °C 12,8 °C 4,8 km/h (1 Bft)
10.11.2025 15:10 21,6 °C 12,8 °C 57 % 81 % 1014,7 hPa 0,0 l/m² 6,7 km/h (2 Bft) S-SW 213 ° 1 min 120 W/m² 9,6 °C 12,6 °C 9,7 km/h (2 Bft)
10.11.2025 15:11 21,6 °C 12,8 °C 57 % 81 % 1014,7 hPa 0,0 l/m² 4,9 km/h (1 Bft) S-SW 213 ° 1 min 118 W/m² 9,6 °C 12,8 °C 8,0 km/h (2 Bft)
10.11.2025 15:13 21,6 °C 12,8 °C 57 % 81 % 1014,7 hPa 0,0 l/m² 5,7 km/h (2 Bft) S-SW 213 ° 2 min 91 W/m² 9,6 °C 12,8 °C 8,0 km/h (2 Bft)
10.11.2025 15:15 21,6 °C 12,8 °C 57 % 81 % 1014,6 hPa 0,0 l/m² 3,7 km/h (1 Bft) S-SW 213 ° 2 min 107 W/m² 9,6 °C 12,8 °C 8,0 km/h (2 Bft)
10.11.2025 15:17 21,6 °C 12,7 °C 57 % 81 % 1014,7 hPa 0,0 l/m² 3,1 km/h (1 Bft) S-SW 213 ° 2 min 104 W/m² 9,5 °C 12,7 °C 6,4 km/h (2 Bft)
10.11.2025 15:19 21,6 °C 12,7 °C 57 % 81 % 1014,7 hPa 0,0 l/m² 6,0 km/h (2 Bft) SW 219 ° 2 min 98 W/m² 9,5 °C 12,7 °C 8,0 km/h (2 Bft)
10.11.2025 15:20 21,6 °C 12,7 °C 57 % 81 % 1014,7 hPa 0,0 l/m² 4,8 km/h (1 Bft) SW 219 ° 1 min 93 W/m² 9,5 °C 12,7 °C 8,0 km/h (2 Bft)
10.11.2025 15:21 21,6 °C 12,7 °C 57 % 81 % 1014,7 hPa 0,0 l/m² 6,2 km/h (2 Bft) SW 219 ° 1 min 91 W/m² 9,5 °C 12,7 °C 8,0 km/h (2 Bft)
10.11.2025 15:23 21,6 °C 12,7 °C 57 % 81 % 1014,7 hPa 0,0 l/m² 5,6 km/h (2 Bft) SW 220 ° 2 min 86 W/m² 9,5 °C 12,7 °C 8,0 km/h (2 Bft)
10.11.2025 15:25 21,6 °C 12,7 °C 57 % 81 % 1014,7 hPa 0,0 l/m² 5,1 km/h (1 Bft) SW 220 ° 2 min 63 W/m² 9,5 °C 12,7 °C 8,0 km/h (2 Bft)
10.11.2025 15:27 21,6 °C 12,6 °C 57 % 81 % 1014,7 hPa 0,0 l/m² 3,2 km/h (1 Bft) SW 221 ° 0 min 42 W/m² 9,4 °C 12,6 °C 6,4 km/h (2 Bft)
10.11.2025 15:29 21,6 °C 12,6 °C 57 % 81 % 1014,6 hPa 0,0 l/m² 5,4 km/h (2 Bft) SW 225 ° 0 min 39 W/m² 9,4 °C 12,6 °C 8,0 km/h (2 Bft)
10.11.2025 15:30 21,6 °C 12,6 °C 57 % 81 % 1014,7 hPa 0,0 l/m² 4,4 km/h (1 Bft) SW 225 ° 0 min 39 W/m² 9,4 °C 12,6 °C 6,4 km/h (2 Bft)
10.11.2025 15:31 21,6 °C 12,5 °C 57 % 81 % 1014,7 hPa 0,0 l/m² 2,4 km/h (1 Bft) SW 225 ° 0 min 37 W/m² 9,3 °C 12,5 °C 3,2 km/h (1 Bft)
10.11.2025 15:33 21,6 °C 12,4 °C 57 % 81 % 1014,7 hPa 0,0 l/m² 4,0 km/h (1 Bft) SW 227 ° 0 min 35 W/m² 9,2 °C 12,4 °C 6,4 km/h (2 Bft)
10.11.2025 15:35 21,6 °C 12,4 °C 57 % 81 % 1014,6 hPa 0,0 l/m² 4,3 km/h (1 Bft) SW 227 ° 0 min 33 W/m² 9,2 °C 12,4 °C 6,4 km/h (2 Bft)
10.11.2025 15:37 21,6 °C 12,4 °C 57 % 81 % 1014,7 hPa 0,0 l/m² 2,7 km/h (1 Bft) SW 227 ° 0 min 30 W/m² 9,2 °C 12,4 °C 4,8 km/h (1 Bft)
10.11.2025 15:39 21,6 °C 12,3 °C 57 % 80 % 1014,7 hPa 0,0 l/m² 2,8 km/h (1 Bft) SW 227 ° 0 min 28 W/m² 8,9 °C 12,3 °C 4,8 km/h (1 Bft)
10.11.2025 15:40 21,6 °C 12,3 °C 57 % 80 % 1014,7 hPa 0,0 l/m² 3,3 km/h (1 Bft) SW 227 ° 0 min 28 W/m² 8,9 °C 12,3 °C 4,8 km/h (1 Bft)
10.11.2025 15:41 21,6 °C 12,2 °C 57 % 80 % 1014,7 hPa 0,0 l/m² 3,0 km/h (1 Bft) SW 227 ° 0 min 28 W/m² 8,9 °C 12,2 °C 4,8 km/h (1 Bft)
10.11.2025 15:43 21,6 °C 12,2 °C 57 % 80 % 1014,7 hPa 0,0 l/m² 2,4 km/h (1 Bft) SW 227 ° 0 min 30 W/m² 8,9 °C 12,2 °C 4,8 km/h (1 Bft)
10.11.2025 15:44 21,6 °C 12,1 °C 57 % 80 % 1014,7 hPa 0,0 l/m² 0,0 km/h (0 Bft) SW 227 ° 0 min 33 W/m² 8,8 °C 12,1 °C 4,8 km/h (1 Bft)
10.11.2025 15:45 21,6 °C 12,1 °C 57 % 81 % 1014,6 hPa 0,0 l/m² 0,0 km/h (0 Bft) SW 227 ° 0 min 37 W/m² 8,9 °C 12,1 °C 0,0 km/h (0 Bft)
10.11.2025 15:46 21,6 °C 12,1 °C 57 % 81 % 1014,6 hPa 0,0 l/m² 0,0 km/h (0 Bft) SW 227 ° 0 min 42 W/m² 8,9 °C 12,1 °C 0,0 km/h (0 Bft)
10.11.2025 15:47 21,6 °C 12,1 °C 57 % 81 % 1014,7 hPa 0,0 l/m² 0,0 km/h (0 Bft) SW 227 ° 0 min 42 W/m² 8,9 °C 12,1 °C 0,0 km/h (0 Bft)
10.11.2025 15:49 21,6 °C 12,0 °C 57 % 81 % 1014,6 hPa 0,0 l/m² 0,0 km/h (0 Bft) SW 227 ° 0 min 39 W/m² 8,8 °C 12,0 °C 1,6 km/h (1 Bft)
10.11.2025 15:50 21,6 °C 11,9 °C 57 % 81 % 1014,6 hPa 0,0 l/m² 0,0 km/h (0 Bft) SW 227 ° 0 min 37 W/m² 8,7 °C 11,9 °C 0,0 km/h (0 Bft)
10.11.2025 15:51 21,6 °C 11,9 °C 57 % 81 % 1014,6 hPa 0,0 l/m² 0,0 km/h (0 Bft) SW 227 ° 0 min 37 W/m² 8,7 °C 11,9 °C 0,0 km/h (0 Bft)
10.11.2025 15:53 21,6 °C 11,9 °C 57 % 81 % 1014,6 hPa 0,0 l/m² 0,0 km/h (0 Bft) SW 227 ° 0 min 35 W/m² 8,7 °C 11,9 °C 0,0 km/h (0 Bft)
10.11.2025 15:55 21,6 °C 11,8 °C 57 % 81 % 1014,5 hPa 0,0 l/m² 0,0 km/h (0 Bft) SW 227 ° 0 min 32 W/m² 8,6 °C 11,8 °C 0,0 km/h (0 Bft)
10.11.2025 15:57 21,6 °C 11,8 °C 57 % 81 % 1014,5 hPa 0,0 l/m² 0,0 km/h (0 Bft) SW 227 ° 0 min 30 W/m² 8,6 °C 11,8 °C 0,0 km/h (0 Bft)
10.11.2025 15:59 21,6 °C 11,8 °C 57 % 82 % 1014,6 hPa 0,0 l/m² 0,0 km/h (0 Bft) SW 227 ° 0 min 28 W/m² 8,8 °C 11,8 °C 0,0 km/h (0 Bft)
10.11.2025 16:00 21,5 °C 11,8 °C 57 % 81 % 1014,6 hPa 0,0 l/m² 0,0 km/h (0 Bft) SW 227 ° 0 min 26 W/m² 8,6 °C 11,8 °C 0,0 km/h (0 Bft)
10.11.2025 16:01 21,5 °C 11,7 °C 57 % 81 % 1014,6 hPa 0,0 l/m² 0,0 km/h (0 Bft) SW 227 ° 0 min 25 W/m² 8,5 °C 11,7 °C 0,0 km/h (0 Bft)
10.11.2025 16:03 21,6 °C 11,7 °C 57 % 82 % 1014,6 hPa 0,0 l/m² 0,0 km/h (0 Bft) SW 227 ° 0 min 23 W/m² 8,7 °C 11,7 °C 0,0 km/h (0 Bft)
10.11.2025 16:05 21,5 °C 11,6 °C 57 % 82 % 1014,6 hPa 0,0 l/m² 0,0 km/h (0 Bft) SW 227 ° 0 min 19 W/m² 8,6 °C 11,6 °C 0,0 km/h (0 Bft)
10.11.2025 16:07 21,5 °C 11,6 °C 57 % 82 % 1014,6 hPa 0,0 l/m² 0,0 km/h (0 Bft) SW 227 ° 0 min 18 W/m² 8,6 °C 11,6 °C 0,0 km/h (0 Bft)
10.11.2025 16:08 21,5 °C 11,6 °C 57 % 82 % 1014,6 hPa 0,0 l/m² 0,0 km/h (0 Bft) SW 227 ° 0 min 18 W/m² 8,6 °C 11,6 °C 0,0 km/h (0 Bft)
10.11.2025 16:09 21,5 °C 11,6 °C 57 % 82 % 1014,6 hPa 0,0 l/m² 0,7 km/h (0 Bft) SW 227 ° 0 min 16 W/m² 8,6 °C 11,6 °C 3,2 km/h (1 Bft)
10.11.2025 16:11 21,5 °C 11,5 °C 57 % 82 % 1014,5 hPa 0,0 l/m² 0,1 km/h (0 Bft) SW 227 ° 0 min 16 W/m² 8,5 °C 11,5 °C 1,6 km/h (1 Bft)
10.11.2025 16:13 21,5 °C 11,5 °C 57 % 82 % 1014,5 hPa 0,0 l/m² 0,0 km/h (0 Bft) SW 227 ° 0 min 14 W/m² 8,5 °C 11,5 °C 0,0 km/h (0 Bft)
10.11.2025 16:15 21,5 °C 11,4 °C 57 % 82 % 1014,6 hPa 0,0 l/m² 0,0 km/h (0 Bft) SW 227 ° 0 min 12 W/m² 8,4 °C 11,4 °C 1,6 km/h (1 Bft)
10.11.2025 16:17 21,5 °C 11,4 °C 57 % 82 % 1014,5 hPa 0,0 l/m² 0,0 km/h (0 Bft) SW 227 ° 0 min 11 W/m² 8,4 °C 11,4 °C 0,0 km/h (0 Bft)
10.11.2025 16:19 21,5 °C 11,3 °C 57 % 82 % 1014,5 hPa 0,0 l/m² 0,0 km/h (0 Bft) SW 227 ° 0 min 9 W/m² 8,3 °C 11,3 °C 0,0 km/h (0 Bft)
10.11.2025 16:20 21,4 °C 11,3 °C 57 % 82 % 1014,6 hPa 0,0 l/m² 0,0 km/h (0 Bft) SW 227 ° 0 min 7 W/m² 8,3 °C 11,3 °C 0,0 km/h (0 Bft)
10.11.2025 16:21 21,4 °C 11,3 °C 57 % 82 % 1014,6 hPa 0,0 l/m² 0,0 km/h (0 Bft) SW 227 ° 0 min 7 W/m² 8,3 °C 11,3 °C 0,0 km/h (0 Bft)
10.11.2025 16:23 21,5 °C 11,2 °C 57 % 82 % 1014,6 hPa 0,0 l/m² 0,0 km/h (0 Bft) SW 227 ° 0 min 7 W/m² 8,2 °C 11,2 °C 0,0 km/h (0 Bft)
10.11.2025 16:25 21,5 °C 11,2 °C 57 % 82 % 1014,6 hPa 0,0 l/m² 0,0 km/h (0 Bft) SW 227 ° 0 min 5 W/m² 8,2 °C 11,2 °C 0,0 km/h (0 Bft)
10.11.2025 16:27 21,4 °C 11,1 °C 57 % 81 % 1014,5 hPa 0,0 l/m² 0,0 km/h (0 Bft) SW 227 ° 0 min 5 W/m² 8,0 °C 11,1 °C 0,0 km/h (0 Bft)
10.11.2025 16:29 21,4 °C 10,9 °C 57 % 81 % 1014,5 hPa 0,0 l/m² 0,0 km/h (0 Bft) SW 227 ° 0 min 0 W/m² 7,8 °C 10,9 °C 0,0 km/h (0 Bft)
10.11.2025 16:30 21,4 °C 10,9 °C 57 % 81 % 1014,5 hPa 0,0 l/m² 0,0 km/h (0 Bft) SW 227 ° 0 min 0 W/m² 7,8 °C 10,9 °C 0,0 km/h (0 Bft)
10.11.2025 16:31 21,4 °C 10,9 °C 57 % 81 % 1014,5 hPa 0,0 l/m² 1,0 km/h (0 Bft) SW 227 ° 0 min 0 W/m² 7,8 °C 10,9 °C 3,2 km/h (1 Bft)
10.11.2025 16:33 21,4 °C 10,8 °C 57 % 81 % 1014,5 hPa 0,0 l/m² 0,9 km/h (0 Bft) SW 227 ° 0 min 0 W/m² 7,7 °C 10,8 °C 1,6 km/h (1 Bft)
10.11.2025 16:35 21,4 °C 10,7 °C 57 % 82 % 1014,5 hPa 0,0 l/m² 1,2 km/h (1 Bft) SW 227 ° 0 min 0 W/m² 7,8 °C 10,7 °C 1,6 km/h (1 Bft)
10.11.2025 16:37 21,4 °C 10,6 °C 57 % 82 % 1014,5 hPa 0,0 l/m² 0,9 km/h (0 Bft) SW 227 ° 0 min 0 W/m² 7,7 °C 10,6 °C 1,6 km/h (1 Bft)
10.11.2025 16:39 21,4 °C 10,5 °C 57 % 82 % 1014,5 hPa 0,0 l/m² 0,0 km/h (0 Bft) SW 227 ° 0 min 0 W/m² 7,6 °C 10,5 °C 0,0 km/h (0 Bft)
10.11.2025 16:40 21,4 °C 10,4 °C 57 % 82 % 1014,5 hPa 0,0 l/m² 0,0 km/h (0 Bft) SW 227 ° 0 min 0 W/m² 7,5 °C 10,4 °C 0,0 km/h (0 Bft)
10.11.2025 16:41 21,4 °C 10,4 °C 57 % 82 % 1014,5 hPa 0,0 l/m² 0,0 km/h (0 Bft) SW 227 ° 0 min 0 W/m² 7,5 °C 10,4 °C 0,0 km/h (0 Bft)
10.11.2025 16:42 21,4 °C 10,4 °C 57 % 82 % 1014,5 hPa 0,0 l/m² 0,0 km/h (0 Bft) SW 227 ° 0 min 0 W/m² 7,5 °C 10,4 °C 0,0 km/h (0 Bft)
10.11.2025 16:43 21,4 °C 10,3 °C 56 % 82 % 1014,5 hPa 0,0 l/m² 0,0 km/h (0 Bft) SW 227 ° 0 min 0 W/m² 7,4 °C 10,3 °C 0,0 km/h (0 Bft)
10.11.2025 16:44 21,4 °C 10,3 °C 56 % 83 % 1014,5 hPa 0,0 l/m² 0,0 km/h (0 Bft) SW 227 ° 0 min 0 W/m² 7,5 °C 10,3 °C 0,0 km/h (0 Bft)
10.11.2025 16:45 21,4 °C 10,3 °C 56 % 83 % 1014,5 hPa 0,0 l/m² 0,0 km/h (0 Bft) SW 227 ° 0 min 0 W/m² 7,5 °C 10,3 °C 0,0 km/h (0 Bft)
10.11.2025 16:46 21,4 °C 10,3 °C 56 % 83 % 1014,5 hPa 0,0 l/m² 0,0 km/h (0 Bft) SW 227 ° 0 min 0 W/m² 7,5 °C 10,3 °C 0,0 km/h (0 Bft)
10.11.2025 16:47 21,4 °C 10,2 °C 56 % 83 % 1014,5 hPa 0,0 l/m² 0,0 km/h (0 Bft) SW 227 ° 0 min 0 W/m² 7,4 °C 10,2 °C 0,0 km/h (0 Bft)
10.11.2025 16:48 21,4 °C 10,2 °C 56 % 83 % 1014,4 hPa 0,0 l/m² 0,0 km/h (0 Bft) SW 227 ° 0 min 0 W/m² 7,4 °C 10,2 °C 0,0 km/h (0 Bft)
10.11.2025 16:49 21,4 °C 10,1 °C 56 % 83 % 1014,5 hPa 0,0 l/m² 0,0 km/h (0 Bft) SW 227 ° 0 min 0 W/m² 7,3 °C 10,1 °C 0,0 km/h (0 Bft)
10.11.2025 16:50 21,4 °C 10,1 °C 56 % 82 % 1014,4 hPa 0,0 l/m² 0,0 km/h (0 Bft) SW 227 ° 0 min 0 W/m² 7,2 °C 10,1 °C 0,0 km/h (0 Bft)
10.11.2025 16:51 21,4 °C 10,1 °C 56 % 83 % 1014,4 hPa 0,0 l/m² 0,0 km/h (0 Bft) SW 227 ° 0 min 0 W/m² 7,3 °C 10,1 °C 0,0 km/h (0 Bft)
10.11.2025 16:52 21,4 °C 10,0 °C 56 % 83 % 1014,4 hPa 0,0 l/m² 0,0 km/h (0 Bft) SW 227 ° 0 min 0 W/m² 7,2 °C 10,0 °C 0,0 km/h (0 Bft)
10.11.2025 16:53 21,4 °C 9,9 °C 56 % 83 % 1014,4 hPa 0,0 l/m² 0,0 km/h (0 Bft) SW 227 ° 0 min 0 W/m² 7,2 °C 9,9 °C 0,0 km/h (0 Bft)
10.11.2025 16:54 21,4 °C 9,9 °C 56 % 83 % 1014,4 hPa 0,0 l/m² 0,0 km/h (0 Bft) SW 227 ° 0 min 0 W/m² 7,2 °C 9,9 °C 0,0 km/h (0 Bft)
10.11.2025 16:55 21,3 °C 9,8 °C 56 % 83 % 1014,5 hPa 0,0 l/m² 0,0 km/h (0 Bft) SW 227 ° 0 min 0 W/m² 7,1 °C 9,8 °C 0,0 km/h (0 Bft)
10.11.2025 16:56 21,4 °C 9,8 °C 56 % 83 % 1014,4 hPa 0,0 l/m² 0,0 km/h (0 Bft) SW 227 ° 0 min 0 W/m² 7,1 °C 9,8 °C 0,0 km/h (0 Bft)
10.11.2025 16:57 21,4 °C 9,8 °C 56 % 83 % 1014,5 hPa 0,0 l/m² 0,0 km/h (0 Bft) SW 227 ° 0 min 0 W/m² 7,1 °C 9,8 °C 0,0 km/h (0 Bft)
10.11.2025 16:58 21,4 °C 9,7 °C 56 % 83 % 1014,4 hPa 0,0 l/m² 0,0 km/h (0 Bft) SW 227 ° 0 min 0 W/m² 7,0 °C 9,7 °C 0,0 km/h (0 Bft)
10.11.2025 16:59 21,4 °C 9,7 °C 56 % 83 % 1014,4 hPa 0,0 l/m² 0,0 km/h (0 Bft) SW 227 ° 0 min 0 W/m² 7,0 °C 9,7 °C 0,0 km/h (0 Bft)
10.11.2025 17:00 21,3 °C 9,6 °C 56 % 82 % 1014,3 hPa 0,0 l/m² 0,0 km/h (0 Bft) SW 227 ° 0 min 0 W/m² 6,7 °C 9,6 °C 0,0 km/h (0 Bft)
10.11.2025 17:01 21,4 °C 9,6 °C 56 % 82 % 1014,4 hPa 0,0 l/m² 0,0 km/h (0 Bft) SW 227 ° 0 min 0 W/m² 6,7 °C 9,6 °C 0,0 km/h (0 Bft)
10.11.2025 17:03 21,3 °C 9,4 °C 56 % 82 % 1014,4 hPa 0,0 l/m² 0,0 km/h (0 Bft) SW 227 ° 0 min 0 W/m² 6,5 °C 9,4 °C 0,0 km/h (0 Bft)
10.11.2025 17:04 21,3 °C 9,3 °C 56 % 82 % 1014,4 hPa 0,0 l/m² 0,0 km/h (0 Bft) SW 227 ° 0 min 0 W/m² 6,4 °C 9,3 °C 0,0 km/h (0 Bft)
10.11.2025 17:05 21,3 °C 9,3 °C 56 % 82 % 1014,4 hPa 0,0 l/m² 0,0 km/h (0 Bft) SW 227 ° 0 min 0 W/m² 6,4 °C 9,3 °C 0,0 km/h (0 Bft)
10.11.2025 17:06 21,3 °C 9,2 °C 56 % 82 % 1014,5 hPa 0,0 l/m² 0,0 km/h (0 Bft) SW 227 ° 0 min 0 W/m² 6,3 °C 9,2 °C 0,0 km/h (0 Bft)
10.11.2025 17:08 21,3 °C 9,1 °C 56 % 82 % 1014,6 hPa 0,0 l/m² 0,0 km/h (0 Bft) SW 227 ° 0 min 0 W/m² 6,2 °C 9,1 °C 0,0 km/h (0 Bft)
10.11.2025 17:09 21,3 °C 9,1 °C 56 % 82 % 1014,6 hPa 0,0 l/m² 0,0 km/h (0 Bft) SW 227 ° 0 min 0 W/m² 6,2 °C 9,1 °C 0,0 km/h (0 Bft)
10.11.2025 17:10 21,4 °C 9,0 °C 56 % 82 % 1014,5 hPa 0,0 l/m² 0,0 km/h (0 Bft) SW 227 ° 0 min 0 W/m² 6,1 °C 9,0 °C 0,0 km/h (0 Bft)
10.11.2025 17:11 21,3 °C 8,9 °C 56 % 82 % 1014,5 hPa 0,0 l/m² 0,0 km/h (0 Bft) SW 227 ° 0 min 0 W/m² 6,0 °C 8,9 °C 0,0 km/h (0 Bft)
10.11.2025 17:12 21,3 °C 8,9 °C 56 % 82 % 1014,6 hPa 0,0 l/m² 0,0 km/h (0 Bft) SW 227 ° 0 min 0 W/m² 6,0 °C 8,9 °C 0,0 km/h (0 Bft)
10.11.2025 17:13 21,3 °C 8,8 °C 56 % 82 % 1014,7 hPa 0,0 l/m² 1,3 km/h (1 Bft) SW 227 ° 0 min 0 W/m² 5,9 °C 8,8 °C 3,2 km/h (1 Bft)
10.11.2025 17:14 21,4 °C 8,8 °C 56 % 82 % 1014,7 hPa 0,0 l/m² 1,9 km/h (1 Bft) SW 227 ° 0 min 0 W/m² 5,9 °C 8,8 °C 3,2 km/h (1 Bft)
10.11.2025 17:15 21,3 °C 8,7 °C 56 % 83 % 1014,7 hPa 0,0 l/m² 1,0 km/h (0 Bft) SW 227 ° 0 min 0 W/m² 6,0 °C 8,7 °C 1,6 km/h (1 Bft)
10.11.2025 17:16 21,4 °C 8,7 °C 56 % 83 % 1014,7 hPa 0,0 l/m² 0,0 km/h (0 Bft) SW 227 ° 0 min 0 W/m² 6,0 °C 8,7 °C 0,0 km/h (0 Bft)
10.11.2025 17:17 21,3 °C 8,6 °C 56 % 83 % 1014,6 hPa 0,0 l/m² 0,0 km/h (0 Bft) SW 227 ° 0 min 0 W/m² 5,9 °C 8,6 °C 0,0 km/h (0 Bft)
10.11.2025 17:18 21,3 °C 8,6 °C 56 % 83 % 1014,6 hPa 0,0 l/m² 0,0 km/h (0 Bft) SW 227 ° 0 min 0 W/m² 5,9 °C 8,6 °C 0,0 km/h (0 Bft)
10.11.2025 17:19 21,3 °C 8,6 °C 56 % 83 % 1014,6 hPa 0,0 l/m² 0,0 km/h (0 Bft) SW 227 ° 0 min 0 W/m² 5,9 °C 8,6 °C 0,0 km/h (0 Bft)
10.11.2025 17:20 21,4 °C 8,5 °C 56 % 83 % 1014,7 hPa 0,0 l/m² 0,0 km/h (0 Bft) SW 227 ° 0 min 0 W/m² 5,8 °C 8,5 °C 0,0 km/h (0 Bft)
10.11.2025 17:21 21,3 °C 8,4 °C 56 % 83 % 1014,6 hPa 0,0 l/m² 0,0 km/h (0 Bft) SW 227 ° 0 min 0 W/m² 5,7 °C 8,4 °C 0,0 km/h (0 Bft)
10.11.2025 17:22 21,3 °C 8,4 °C 55 % 83 % 1014,7 hPa 0,0 l/m² 0,0 km/h (0 Bft) SW 227 ° 0 min 0 W/m² 5,7 °C 8,4 °C 0,0 km/h (0 Bft)
10.11.2025 17:23 21,3 °C 8,3 °C 56 % 83 % 1014,6 hPa 0,0 l/m² 0,0 km/h (0 Bft) SW 227 ° 0 min 0 W/m² 5,6 °C 8,3 °C 0,0 km/h (0 Bft)
10.11.2025 17:24 21,3 °C 8,3 °C 56 % 83 % 1014,6 hPa 0,0 l/m² 0,0 km/h (0 Bft) SW 227 ° 0 min 0 W/m² 5,6 °C 8,3 °C 0,0 km/h (0 Bft)
10.11.2025 17:25 21,3 °C 8,2 °C 56 % 83 % 1014,7 hPa 0,0 l/m² 0,0 km/h (0 Bft) SW 227 ° 0 min 0 W/m² 5,5 °C 8,2 °C 0,0 km/h (0 Bft)
10.11.2025 17:26 21,3 °C 8,1 °C 56 % 83 % 1014,7 hPa 0,0 l/m² 0,0 km/h (0 Bft) SW 227 ° 0 min 0 W/m² 5,4 °C 8,1 °C 0,0 km/h (0 Bft)
10.11.2025 17:27 21,3 °C 8,1 °C 56 % 83 % 1014,6 hPa 0,0 l/m² 0,0 km/h (0 Bft) SW 227 ° 0 min 0 W/m² 5,4 °C 8,1 °C 0,0 km/h (0 Bft)
10.11.2025 17:28 21,3 °C 8,0 °C 56 % 83 % 1014,7 hPa 0,0 l/m² 0,0 km/h (0 Bft) SW 227 ° 0 min 0 W/m² 5,3 °C 8,0 °C 0,0 km/h (0 Bft)
10.11.2025 17:29 21,3 °C 7,9 °C 56 % 83 % 1014,6 hPa 0,0 l/m² 0,0 km/h (0 Bft) SW 227 ° 0 min 0 W/m² 5,2 °C 7,9 °C 0,0 km/h (0 Bft)
10.11.2025 17:30 21,3 °C 7,9 °C 56 % 83 % 1014,6 hPa 0,0 l/m² 0,0 km/h (0 Bft) SW 227 ° 0 min 0 W/m² 5,2 °C 7,9 °C 0,0 km/h (0 Bft)
10.11.2025 17:31 21,3 °C 7,8 °C 56 % 83 % 1014,6 hPa 0,0 l/m² 0,0 km/h (0 Bft) SW 227 ° 0 min 0 W/m² 5,1 °C 7,8 °C 0,0 km/h (0 Bft)
10.11.2025 17:32 21,3 °C 7,8 °C 56 % 83 % 1014,6 hPa 0,0 l/m² 0,0 km/h (0 Bft) SW 227 ° 0 min 0 W/m² 5,1 °C 7,8 °C 0,0 km/h (0 Bft)
10.11.2025 17:33 21,3 °C 7,7 °C 56 % 83 % 1014,6 hPa 0,0 l/m² 0,0 km/h (0 Bft) SW 227 ° 0 min 0 W/m² 5,0 °C 7,7 °C 0,0 km/h (0 Bft)
10.11.2025 17:34 21,3 °C 7,7 °C 56 % 83 % 1014,6 hPa 0,0 l/m² 0,0 km/h (0 Bft) SW 227 ° 0 min 0 W/m² 5,0 °C 7,7 °C 0,0 km/h (0 Bft)
10.11.2025 17:35 21,3 °C 7,6 °C 56 % 83 % 1014,6 hPa 0,0 l/m² 0,0 km/h (0 Bft) SW 227 ° 0 min 0 W/m² 4,9 °C 7,6 °C 0,0 km/h (0 Bft)
10.11.2025 17:36 21,3 °C 7,6 °C 56 % 83 % 1014,7 hPa 0,0 l/m² 0,0 km/h (0 Bft) SW 227 ° 0 min 0 W/m² 4,9 °C 7,6 °C 0,0 km/h (0 Bft)
10.11.2025 17:37 21,3 °C 7,6 °C 56 % 84 % 1014,6 hPa 0,0 l/m² 0,0 km/h (0 Bft) SW 227 ° 0 min 0 W/m² 5,1 °C 7,6 °C 0,0 km/h (0 Bft)
10.11.2025 17:38 21,3 °C 7,6 °C 56 % 84 % 1014,6 hPa 0,0 l/m² 0,0 km/h (0 Bft) SW 227 ° 0 min 0 W/m² 5,1 °C 7,6 °C 0,0 km/h (0 Bft)
10.11.2025 17:39 21,3 °C 7,4 °C 56 % 84 % 1014,6 hPa 0,0 l/m² 0,0 km/h (0 Bft) SW 227 ° 0 min 0 W/m² 4,9 °C 7,4 °C 0,0 km/h (0 Bft)
10.11.2025 17:40 21,3 °C 7,4 °C 56 % 84 % 1014,7 hPa 0,0 l/m² 0,0 km/h (0 Bft) SW 227 ° 0 min 0 W/m² 4,9 °C 7,4 °C 0,0 km/h (0 Bft)
10.11.2025 17:41 21,3 °C 7,4 °C 56 % 84 % 1014,7 hPa 0,0 l/m² 0,0 km/h (0 Bft) SW 227 ° 0 min 0 W/m² 4,9 °C 7,4 °C 0,0 km/h (0 Bft)
10.11.2025 17:42 21,3 °C 7,3 °C 56 % 84 % 1014,6 hPa 0,0 l/m² 0,0 km/h (0 Bft) SW 227 ° 0 min 0 W/m² 4,8 °C 7,3 °C 0,0 km/h (0 Bft)
10.11.2025 17:43 21,3 °C 7,3 °C 56 % 84 % 1014,6 hPa 0,0 l/m² 0,0 km/h (0 Bft) SW 227 ° 0 min 0 W/m² 4,8 °C 7,3 °C 0,0 km/h (0 Bft)
10.11.2025 17:44 21,3 °C 7,3 °C 56 % 84 % 1014,6 hPa 0,0 l/m² 0,8 km/h (0 Bft) SW 227 ° 0 min 0 W/m² 4,8 °C 7,3 °C 1,6 km/h (1 Bft)
10.11.2025 17:45 21,3 °C 7,3 °C 56 % 84 % 1014,6 hPa 0,0 l/m² 0,1 km/h (0 Bft) SW 227 ° 0 min 0 W/m² 4,8 °C 7,3 °C 1,6 km/h (1 Bft)
10.11.2025 17:46 21,3 °C 7,2 °C 56 % 85 % 1014,6 hPa 0,0 l/m² 0,3 km/h (0 Bft) SW 227 ° 0 min 0 W/m² 4,9 °C 7,2 °C 1,6 km/h (1 Bft)
10.11.2025 17:47 21,3 °C 7,2 °C 56 % 85 % 1014,6 hPa 0,0 l/m² 0,0 km/h (0 Bft) SW 227 ° 0 min 0 W/m² 4,9 °C 7,2 °C 0,0 km/h (0 Bft)
10.11.2025 17:48 21,3 °C 7,1 °C 56 % 85 % 1014,6 hPa 0,0 l/m² 0,0 km/h (0 Bft) SW 227 ° 0 min 0 W/m² 4,8 °C 7,1 °C 0,0 km/h (0 Bft)
10.11.2025 17:49 21,3 °C 7,1 °C 56 % 85 % 1014,6 hPa 0,0 l/m² 0,0 km/h (0 Bft) SW 227 ° 0 min 0 W/m² 4,8 °C 7,1 °C 0,0 km/h (0 Bft)
10.11.2025 17:50 21,3 °C 7,1 °C 56 % 85 % 1014,6 hPa 0,0 l/m² 0,0 km/h (0 Bft) SW 227 ° 0 min 0 W/m² 4,8 °C 7,1 °C 0,0 km/h (0 Bft)
10.11.2025 17:51 21,3 °C 7,0 °C 56 % 85 % 1014,7 hPa 0,0 l/m² 0,0 km/h (0 Bft) SW 227 ° 0 min 0 W/m² 4,7 °C 7,0 °C 0,0 km/h (0 Bft)
10.11.2025 17:52 21,3 °C 6,9 °C 56 % 86 % 1014,6 hPa 0,0 l/m² 0,0 km/h (0 Bft) SW 227 ° 0 min 0 W/m² 4,7 °C 6,9 °C 0,0 km/h (0 Bft)
10.11.2025 17:53 21,3 °C 6,9 °C 56 % 86 % 1014,6 hPa 0,0 l/m² 0,0 km/h (0 Bft) SW 227 ° 0 min 0 W/m² 4,7 °C 6,9 °C 0,0 km/h (0 Bft)
10.11.2025 17:54 21,3 °C 6,9 °C 56 % 86 % 1014,6 hPa 0,0 l/m² 0,7 km/h (0 Bft) SW 227 ° 0 min 0 W/m² 4,7 °C 6,9 °C 1,6 km/h (1 Bft)
10.11.2025 17:55 21,3 °C 6,9 °C 56 % 86 % 1014,6 hPa 0,0 l/m² 1,4 km/h (1 Bft) SW 227 ° 0 min 0 W/m² 4,7 °C 6,9 °C 1,6 km/h (1 Bft)
10.11.2025 17:56 21,3 °C 6,8 °C 56 % 86 % 1014,6 hPa 0,0 l/m² 2,3 km/h (1 Bft) SW 227 ° 0 min 0 W/m² 4,6 °C 6,8 °C 3,2 km/h (1 Bft)
10.11.2025 17:57 21,3 °C 6,8 °C 56 % 86 % 1014,5 hPa 0,0 l/m² 3,8 km/h (1 Bft) S-SW 213 ° 0 min 0 W/m² 4,6 °C 6,8 °C 4,8 km/h (1 Bft)
10.11.2025 17:58 21,3 °C 6,8 °C 56 % 86 % 1014,5 hPa 0,0 l/m² 4,4 km/h (1 Bft) S 181 ° 0 min 0 W/m² 4,6 °C 6,8 °C 4,8 km/h (1 Bft)
10.11.2025 17:59 21,3 °C 6,8 °C 56 % 86 % 1014,5 hPa 0,0 l/m² 4,5 km/h (1 Bft) S 180 ° 0 min 0 W/m² 4,6 °C 6,8 °C 4,8 km/h (1 Bft)
10.11.2025 18:00 21,3 °C 6,7 °C 56 % 86 % 1014,5 hPa 0,0 l/m² 3,6 km/h (1 Bft) S 180 ° 0 min 0 W/m² 4,5 °C 6,7 °C 4,8 km/h (1 Bft)
10.11.2025 18:01 21,3 °C 6,7 °C 56 % 86 % 1014,6 hPa 0,0 l/m² 2,7 km/h (1 Bft) S 180 ° 0 min 0 W/m² 4,5 °C 6,7 °C 3,2 km/h (1 Bft)
10.11.2025 18:02 21,3 °C 6,7 °C 56 % 86 % 1014,5 hPa 0,0 l/m² 0,6 km/h (0 Bft) S 180 ° 0 min 0 W/m² 4,5 °C 6,7 °C 1,6 km/h (1 Bft)
10.11.2025 18:03 21,3 °C 6,6 °C 56 % 86 % 1014,5 hPa 0,0 l/m² 0,0 km/h (0 Bft) S 180 ° 0 min 0 W/m² 4,4 °C 6,6 °C 0,0 km/h (0 Bft)
10.11.2025 18:04 21,3 °C 6,6 °C 56 % 86 % 1014,5 hPa 0,0 l/m² 0,0 km/h (0 Bft) S 180 ° 0 min 0 W/m² 4,4 °C 6,6 °C 0,0 km/h (0 Bft)
10.11.2025 18:05 21,3 °C 6,6 °C 56 % 86 % 1014,5 hPa 0,0 l/m² 0,0 km/h (0 Bft) S 180 ° 0 min 0 W/m² 4,4 °C 6,6 °C 0,0 km/h (0 Bft)
10.11.2025 18:06 21,3 °C 6,5 °C 56 % 87 % 1014,5 hPa 0,0 l/m² 0,0 km/h (0 Bft) S 180 ° 0 min 0 W/m² 4,5 °C 6,5 °C 0,0 km/h (0 Bft)
10.11.2025 18:07 21,3 °C 6,6 °C 56 % 87 % 1014,5 hPa 0,0 l/m² 0,0 km/h (0 Bft) S 180 ° 0 min 0 W/m² 4,6 °C 6,6 °C 0,0 km/h (0 Bft)
10.11.2025 18:08 21,3 °C 6,4 °C 56 % 87 % 1014,6 hPa 0,0 l/m² 0,0 km/h (0 Bft) S 180 ° 0 min 0 W/m² 4,4 °C 6,4 °C 0,0 km/h (0 Bft)
10.11.2025 18:09 21,3 °C 6,4 °C 56 % 87 % 1014,5 hPa 0,0 l/m² 0,0 km/h (0 Bft) S 180 ° 0 min 0 W/m² 4,4 °C 6,4 °C 0,0 km/h (0 Bft)
10.11.2025 18:10 21,3 °C 6,4 °C 56 % 87 % 1014,6 hPa 0,0 l/m² 0,0 km/h (0 Bft) S 180 ° 0 min 0 W/m² 4,4 °C 6,4 °C 0,0 km/h (0 Bft)
10.11.2025 18:11 21,3 °C 6,4 °C 56 % 87 % 1014,6 hPa 0,0 l/m² 0,0 km/h (0 Bft) S 180 ° 0 min 0 W/m² 4,4 °C 6,4 °C 0,0 km/h (0 Bft)
10.11.2025 18:12 21,3 °C 6,4 °C 56 % 87 % 1014,6 hPa 0,0 l/m² 0,0 km/h (0 Bft) S 180 ° 0 min 0 W/m² 4,4 °C 6,4 °C 0,0 km/h (0 Bft)
10.11.2025 18:13 21,3 °C 6,4 °C 56 % 87 % 1014,6 hPa 0,0 l/m² 0,0 km/h (0 Bft) S 180 ° 0 min 0 W/m² 4,4 °C 6,4 °C 0,0 km/h (0 Bft)
10.11.2025 18:14 21,3 °C 6,3 °C 56 % 87 % 1014,5 hPa 0,0 l/m² 0,0 km/h (0 Bft) S 180 ° 0 min 0 W/m² 4,3 °C 6,3 °C 0,0 km/h (0 Bft)
10.11.2025 18:15 21,3 °C 6,3 °C 56 % 87 % 1014,6 hPa 0,0 l/m² 0,0 km/h (0 Bft) S 180 ° 0 min 0 W/m² 4,3 °C 6,3 °C 0,0 km/h (0 Bft)
10.11.2025 18:16 21,3 °C 6,3 °C 56 % 87 % 1014,7 hPa 0,0 l/m² 0,0 km/h (0 Bft) S 180 ° 0 min 0 W/m² 4,3 °C 6,3 °C 0,0 km/h (0 Bft)
10.11.2025 18:17 21,3 °C 6,3 °C 56 % 87 % 1014,7 hPa 0,0 l/m² 0,0 km/h (0 Bft) S 180 ° 0 min 0 W/m² 4,3 °C 6,3 °C 0,0 km/h (0 Bft)
10.11.2025 18:18 21,3 °C 6,3 °C 56 % 87 % 1014,8 hPa 0,0 l/m² 0,0 km/h (0 Bft) S 180 ° 0 min 0 W/m² 4,3 °C 6,3 °C 0,0 km/h (0 Bft)
10.11.2025 18:19 21,3 °C 6,3 °C 56 % 87 % 1014,7 hPa 0,0 l/m² 0,0 km/h (0 Bft) S 180 ° 0 min 0 W/m² 4,3 °C 6,3 °C 0,0 km/h (0 Bft)
10.11.2025 18:20 21,3 °C 6,2 °C 56 % 87 % 1014,7 hPa 0,0 l/m² 0,0 km/h (0 Bft) S 180 ° 0 min 0 W/m² 4,2 °C 6,2 °C 0,0 km/h (0 Bft)
10.11.2025 18:21 21,3 °C 6,2 °C 56 % 87 % 1014,7 hPa 0,0 l/m² 0,0 km/h (0 Bft) S 180 ° 0 min 0 W/m² 4,2 °C 6,2 °C 0,0 km/h (0 Bft)
10.11.2025 18:22 21,3 °C 6,2 °C 56 % 87 % 1014,8 hPa 0,0 l/m² 0,0 km/h (0 Bft) S 180 ° 0 min 0 W/m² 4,2 °C 6,2 °C 0,0 km/h (0 Bft)
10.11.2025 18:23 21,3 °C 6,2 °C 56 % 87 % 1014,7 hPa 0,0 l/m² 0,0 km/h (0 Bft) S 180 ° 0 min 0 W/m² 4,2 °C 6,2 °C 0,0 km/h (0 Bft)
10.11.2025 18:24 21,3 °C 6,2 °C 56 % 87 % 1014,8 hPa 0,0 l/m² 0,0 km/h (0 Bft) S 180 ° 0 min 0 W/m² 4,2 °C 6,2 °C 0,0 km/h (0 Bft)
10.11.2025 18:25 21,3 °C 6,1 °C 56 % 87 % 1014,8 hPa 0,0 l/m² 0,0 km/h (0 Bft) S 180 ° 0 min 0 W/m² 4,1 °C 6,1 °C 0,0 km/h (0 Bft)
10.11.2025 18:26 21,3 °C 6,1 °C 56 % 87 % 1014,7 hPa 0,0 l/m² 0,0 km/h (0 Bft) S 180 ° 0 min 0 W/m² 4,1 °C 6,1 °C 0,0 km/h (0 Bft)
10.11.2025 18:27 21,3 °C 6,1 °C 56 % 87 % 1014,7 hPa 0,0 l/m² 0,0 km/h (0 Bft) S 180 ° 0 min 0 W/m² 4,1 °C 6,1 °C 0,0 km/h (0 Bft)
10.11.2025 18:28 21,3 °C 6,1 °C 56 % 87 % 1014,7 hPa 0,0 l/m² 0,0 km/h (0 Bft) S 180 ° 0 min 0 W/m² 4,1 °C 6,1 °C 0,0 km/h (0 Bft)
10.11.2025 18:29 21,3 °C 6,1 °C 56 % 87 % 1014,7 hPa 0,0 l/m² 0,0 km/h (0 Bft) S 180 ° 0 min 0 W/m² 4,1 °C 6,1 °C 0,0 km/h (0 Bft)
10.11.2025 18:30 21,3 °C 6,1 °C 56 % 87 % 1014,7 hPa 0,0 l/m² 0,0 km/h (0 Bft) S 180 ° 0 min 0 W/m² 4,1 °C 6,1 °C 0,0 km/h (0 Bft)
10.11.2025 18:31 21,3 °C 6,0 °C 56 % 87 % 1014,7 hPa 0,0 l/m² 0,0 km/h (0 Bft) S 180 ° 0 min 0 W/m² 4,0 °C 6,0 °C 0,0 km/h (0 Bft)
10.11.2025 18:32 21,3 °C 6,0 °C 56 % 87 % 1014,7 hPa 0,0 l/m² 0,0 km/h (0 Bft) S 180 ° 0 min 0 W/m² 4,0 °C 6,0 °C 0,0 km/h (0 Bft)
10.11.2025 18:33 21,3 °C 5,9 °C 56 % 87 % 1014,7 hPa 0,0 l/m² 0,0 km/h (0 Bft) S 180 ° 0 min 0 W/m² 3,9 °C 5,9 °C 0,0 km/h (0 Bft)
10.11.2025 18:34 21,3 °C 5,9 °C 56 % 87 % 1014,7 hPa 0,0 l/m² 0,0 km/h (0 Bft) S 180 ° 0 min 0 W/m² 3,9 °C 5,9 °C 0,0 km/h (0 Bft)
10.11.2025 18:35 21,3 °C 5,9 °C 56 % 87 % 1014,7 hPa 0,0 l/m² 0,0 km/h (0 Bft) S 180 ° 0 min 0 W/m² 3,9 °C 5,9 °C 0,0 km/h (0 Bft)
10.11.2025 18:36 21,3 °C 5,9 °C 56 % 87 % 1014,7 hPa 0,0 l/m² 0,0 km/h (0 Bft) S 180 ° 0 min 0 W/m² 3,9 °C 5,9 °C 0,0 km/h (0 Bft)
10.11.2025 18:37 21,3 °C 5,9 °C 56 % 87 % 1014,8 hPa 0,0 l/m² 0,0 km/h (0 Bft) S 180 ° 0 min 0 W/m² 3,9 °C 5,9 °C 0,0 km/h (0 Bft)
10.11.2025 18:38 21,3 °C 5,9 °C 56 % 87 % 1014,8 hPa 0,0 l/m² 0,0 km/h (0 Bft) S 180 ° 0 min 0 W/m² 3,9 °C 5,9 °C 0,0 km/h (0 Bft)
10.11.2025 18:39 21,3 °C 5,8 °C 56 % 88 % 1014,8 hPa 0,0 l/m² 0,0 km/h (0 Bft) S 180 ° 0 min 0 W/m² 4,0 °C 5,8 °C 0,0 km/h (0 Bft)
10.11.2025 18:40 21,3 °C 5,8 °C 56 % 88 % 1014,7 hPa 0,0 l/m² 0,0 km/h (0 Bft) S 180 ° 0 min 0 W/m² 4,0 °C 5,8 °C 0,0 km/h (0 Bft)
10.11.2025 18:41 21,3 °C 5,8 °C 56 % 88 % 1014,7 hPa 0,0 l/m² 0,0 km/h (0 Bft) S 180 ° 0 min 0 W/m² 4,0 °C 5,8 °C 0,0 km/h (0 Bft)
10.11.2025 18:42 21,3 °C 5,8 °C 56 % 87 % 1014,7 hPa 0,0 l/m² 0,0 km/h (0 Bft) S 180 ° 0 min 0 W/m² 3,8 °C 5,8 °C 0,0 km/h (0 Bft)
10.11.2025 18:43 21,4 °C 5,7 °C 56 % 87 % 1014,8 hPa 0,0 l/m² 0,0 km/h (0 Bft) S 180 ° 0 min 0 W/m² 3,7 °C 5,7 °C 0,0 km/h (0 Bft)
10.11.2025 18:44 21,4 °C 5,7 °C 56 % 87 % 1014,7 hPa 0,0 l/m² 0,0 km/h (0 Bft) S 180 ° 0 min 0 W/m² 3,7 °C 5,7 °C 0,0 km/h (0 Bft)
10.11.2025 18:45 21,4 °C 5,7 °C 56 % 87 % 1014,7 hPa 0,0 l/m² 0,0 km/h (0 Bft) S 180 ° 0 min 0 W/m² 3,7 °C 5,7 °C 0,0 km/h (0 Bft)
10.11.2025 18:46 21,4 °C 5,7 °C 56 % 87 % 1014,7 hPa 0,0 l/m² 0,0 km/h (0 Bft) S 180 ° 0 min 0 W/m² 3,7 °C 5,7 °C 0,0 km/h (0 Bft)
10.11.2025 18:47 21,4 °C 5,7 °C 56 % 87 % 1014,8 hPa 0,0 l/m² 0,0 km/h (0 Bft) S 180 ° 0 min 0 W/m² 3,7 °C 5,7 °C 0,0 km/h (0 Bft)
10.11.2025 18:48 21,4 °C 5,6 °C 56 % 87 % 1014,7 hPa 0,0 l/m² 0,0 km/h (0 Bft) S 180 ° 0 min 0 W/m² 3,6 °C 5,6 °C 0,0 km/h (0 Bft)
10.11.2025 18:49 21,4 °C 5,6 °C 56 % 87 % 1014,6 hPa 0,0 l/m² 0,0 km/h (0 Bft) S 180 ° 0 min 0 W/m² 3,6 °C 5,6 °C 0,0 km/h (0 Bft)
10.11.2025 18:50 21,3 °C 5,6 °C 56 % 88 % 1014,7 hPa 0,0 l/m² 0,5 km/h (0 Bft) S 180 ° 0 min 0 W/m² 3,8 °C 5,6 °C 1,6 km/h (1 Bft)
10.11.2025 18:51 21,4 °C 5,6 °C 56 % 88 % 1014,7 hPa 0,0 l/m² 1,5 km/h (1 Bft) S 180 ° 0 min 0 W/m² 3,8 °C 5,6 °C 1,6 km/h (1 Bft)
10.11.2025 18:52 21,4 °C 5,6 °C 56 % 88 % 1014,7 hPa 0,0 l/m² 1,8 km/h (1 Bft) S 180 ° 0 min 0 W/m² 3,8 °C 5,6 °C 3,2 km/h (1 Bft)
10.11.2025 18:53 21,4 °C 5,5 °C 56 % 88 % 1014,6 hPa 0,0 l/m² 0,2 km/h (0 Bft) S 180 ° 0 min 0 W/m² 3,7 °C 5,5 °C 1,6 km/h (1 Bft)
10.11.2025 18:54 21,4 °C 5,4 °C 56 % 88 % 1014,7 hPa 0,0 l/m² 0,0 km/h (0 Bft) S 180 ° 0 min 0 W/m² 3,6 °C 5,4 °C 0,0 km/h (0 Bft)
10.11.2025 18:55 21,4 °C 5,4 °C 56 % 88 % 1014,7 hPa 0,0 l/m² 0,0 km/h (0 Bft) S 180 ° 0 min 0 W/m² 3,6 °C 5,4 °C 0,0 km/h (0 Bft)
10.11.2025 18:56 21,4 °C 5,4 °C 56 % 88 % 1014,7 hPa 0,0 l/m² 0,0 km/h (0 Bft) S 180 ° 0 min 0 W/m² 3,6 °C 5,4 °C 0,0 km/h (0 Bft)
10.11.2025 18:57 21,4 °C 5,4 °C 56 % 88 % 1014,7 hPa 0,0 l/m² 0,0 km/h (0 Bft) S 180 ° 0 min 0 W/m² 3,6 °C 5,4 °C 0,0 km/h (0 Bft)
10.11.2025 18:58 21,4 °C 5,3 °C 56 % 88 % 1014,7 hPa 0,0 l/m² 0,0 km/h (0 Bft) S 180 ° 0 min 0 W/m² 3,5 °C 5,3 °C 0,0 km/h (0 Bft)
10.11.2025 18:59 21,4 °C 5,3 °C 56 % 88 % 1014,6 hPa 0,0 l/m² 0,0 km/h (0 Bft) S 180 ° 0 min 0 W/m² 3,5 °C 5,3 °C 0,0 km/h (0 Bft)
10.11.2025 19:00 21,4 °C 5,3 °C 56 % 88 % 1014,7 hPa 0,0 l/m² 0,0 km/h (0 Bft) S 180 ° 0 min 0 W/m² 3,5 °C 5,3 °C 0,0 km/h (0 Bft)
10.11.2025 19:01 21,4 °C 5,3 °C 56 % 88 % 1014,6 hPa 0,0 l/m² 0,0 km/h (0 Bft) S 180 ° 0 min 0 W/m² 3,5 °C 5,3 °C 0,0 km/h (0 Bft)
10.11.2025 19:03 21,4 °C 5,3 °C 56 % 88 % 1014,6 hPa 0,0 l/m² 0,0 km/h (0 Bft) S 180 ° 0 min 0 W/m² 3,5 °C 5,3 °C 0,0 km/h (0 Bft)
10.11.2025 19:04 21,4 °C 5,2 °C 56 % 88 % 1014,6 hPa 0,0 l/m² 0,0 km/h (0 Bft) S 180 ° 0 min 0 W/m² 3,4 °C 5,2 °C 0,0 km/h (0 Bft)
10.11.2025 19:05 21,4 °C 5,2 °C 56 % 88 % 1014,7 hPa 0,0 l/m² 0,0 km/h (0 Bft) S 180 ° 0 min 0 W/m² 3,4 °C 5,2 °C 0,0 km/h (0 Bft)
10.11.2025 19:06 21,4 °C 5,2 °C 56 % 88 % 1014,6 hPa 0,0 l/m² 0,0 km/h (0 Bft) S 180 ° 0 min 0 W/m² 3,4 °C 5,2 °C 0,0 km/h (0 Bft)
10.11.2025 19:07 21,4 °C 5,2 °C 56 % 88 % 1014,6 hPa 0,0 l/m² 0,0 km/h (0 Bft) S 180 ° 0 min 0 W/m² 3,4 °C 5,2 °C 0,0 km/h (0 Bft)
10.11.2025 19:08 21,4 °C 5,2 °C 56 % 88 % 1014,7 hPa 0,0 l/m² 0,0 km/h (0 Bft) S 180 ° 0 min 0 W/m² 3,4 °C 5,2 °C 0,0 km/h (0 Bft)
10.11.2025 19:09 21,4 °C 5,2 °C 56 % 88 % 1014,5 hPa 0,0 l/m² 0,0 km/h (0 Bft) S 180 ° 0 min 0 W/m² 3,4 °C 5,2 °C 0,0 km/h (0 Bft)
10.11.2025 19:10 21,4 °C 5,2 °C 57 % 88 % 1014,5 hPa 0,0 l/m² 0,0 km/h (0 Bft) S 180 ° 0 min 0 W/m² 3,4 °C 5,2 °C 0,0 km/h (0 Bft)
10.11.2025 19:11 21,4 °C 5,1 °C 56 % 88 % 1014,5 hPa 0,0 l/m² 0,0 km/h (0 Bft) S 180 ° 0 min 0 W/m² 3,3 °C 5,1 °C 0,0 km/h (0 Bft)
10.11.2025 19:12 21,4 °C 5,1 °C 56 % 88 % 1014,5 hPa 0,0 l/m² 0,0 km/h (0 Bft) S 180 ° 0 min 0 W/m² 3,3 °C 5,1 °C 0,0 km/h (0 Bft)
10.11.2025 19:13 21,4 °C 5,1 °C 56 % 88 % 1014,5 hPa 0,0 l/m² 0,0 km/h (0 Bft) S 180 ° 0 min 0 W/m² 3,3 °C 5,1 °C 0,0 km/h (0 Bft)
10.11.2025 19:14 21,4 °C 5,1 °C 56 % 88 % 1014,5 hPa 0,0 l/m² 0,0 km/h (0 Bft) S 180 ° 0 min 0 W/m² 3,3 °C 5,1 °C 0,0 km/h (0 Bft)
10.11.2025 19:15 21,4 °C 5,0 °C 56 % 88 % 1014,5 hPa 0,0 l/m² 0,0 km/h (0 Bft) S 180 ° 0 min 0 W/m² 3,2 °C 5,0 °C 0,0 km/h (0 Bft)
10.11.2025 19:16 21,4 °C 5,0 °C 56 % 88 % 1014,5 hPa 0,0 l/m² 0,0 km/h (0 Bft) S 180 ° 0 min 0 W/m² 3,2 °C 5,0 °C 0,0 km/h (0 Bft)
10.11.2025 19:17 21,4 °C 4,9 °C 56 % 88 % 1014,5 hPa 0,0 l/m² 0,0 km/h (0 Bft) S 180 ° 0 min 0 W/m² 3,1 °C 4,9 °C 0,0 km/h (0 Bft)
10.11.2025 19:18 21,4 °C 4,9 °C 56 % 88 % 1014,6 hPa 0,0 l/m² 0,0 km/h (0 Bft) S 180 ° 0 min 0 W/m² 3,1 °C 4,9 °C 0,0 km/h (0 Bft)
10.11.2025 19:19 21,4 °C 4,9 °C 56 % 88 % 1014,6 hPa 0,0 l/m² 0,0 km/h (0 Bft) S 180 ° 0 min 0 W/m² 3,1 °C 4,9 °C 0,0 km/h (0 Bft)
10.11.2025 19:20 21,4 °C 4,9 °C 56 % 88 % 1014,5 hPa 0,0 l/m² 0,0 km/h (0 Bft) S 180 ° 0 min 0 W/m² 3,1 °C 4,9 °C 0,0 km/h (0 Bft)
10.11.2025 19:21 21,4 °C 4,9 °C 57 % 88 % 1014,4 hPa 0,0 l/m² 0,0 km/h (0 Bft) S 180 ° 0 min 0 W/m² 3,1 °C 4,9 °C 0,0 km/h (0 Bft)
10.11.2025 19:22 21,4 °C 4,9 °C 57 % 88 % 1014,5 hPa 0,0 l/m² 0,0 km/h (0 Bft) S 180 ° 0 min 0 W/m² 3,1 °C 4,9 °C 0,0 km/h (0 Bft)
10.11.2025 19:23 21,4 °C 4,8 °C 57 % 88 % 1014,5 hPa 0,0 l/m² 0,0 km/h (0 Bft) S 180 ° 0 min 0 W/m² 3,0 °C 4,8 °C 0,0 km/h (0 Bft)
10.11.2025 19:24 21,4 °C 4,8 °C 57 % 88 % 1014,5 hPa 0,0 l/m² 0,0 km/h (0 Bft) S 180 ° 0 min 0 W/m² 3,0 °C 4,8 °C 0,0 km/h (0 Bft)
10.11.2025 19:25 21,4 °C 4,8 °C 56 % 88 % 1014,5 hPa 0,0 l/m² 0,0 km/h (0 Bft) S 180 ° 0 min 0 W/m² 3,0 °C 4,8 °C 0,0 km/h (0 Bft)
10.11.2025 19:26 21,4 °C 4,8 °C 56 % 88 % 1014,5 hPa 0,0 l/m² 0,0 km/h (0 Bft) S 180 ° 0 min 0 W/m² 3,0 °C 4,8 °C 0,0 km/h (0 Bft)
10.11.2025 19:27 21,4 °C 4,8 °C 56 % 89 % 1014,5 hPa 0,0 l/m² 0,0 km/h (0 Bft) S 180 ° 0 min 0 W/m² 3,1 °C 4,8 °C 0,0 km/h (0 Bft)
10.11.2025 19:28 21,4 °C 4,8 °C 56 % 89 % 1014,5 hPa 0,0 l/m² 0,0 km/h (0 Bft) S 180 ° 0 min 0 W/m² 3,1 °C 4,8 °C 0,0 km/h (0 Bft)
10.11.2025 19:29 21,4 °C 4,7 °C 56 % 89 % 1014,5 hPa 0,0 l/m² 0,0 km/h (0 Bft) S 180 ° 0 min 0 W/m² 3,0 °C 4,7 °C 0,0 km/h (0 Bft)
10.11.2025 19:30 21,4 °C 4,7 °C 56 % 89 % 1014,5 hPa 0,0 l/m² 0,0 km/h (0 Bft) S 180 ° 0 min 0 W/m² 3,0 °C 4,7 °C 0,0 km/h (0 Bft)
10.11.2025 19:31 21,4 °C 4,7 °C 56 % 89 % 1014,5 hPa 0,0 l/m² 0,0 km/h (0 Bft) S 180 ° 0 min 0 W/m² 3,0 °C 4,7 °C 0,0 km/h (0 Bft)
10.11.2025 19:32 21,4 °C 4,7 °C 56 % 89 % 1014,5 hPa 0,0 l/m² 0,0 km/h (0 Bft) S 180 ° 0 min 0 W/m² 3,0 °C 4,7 °C 0,0 km/h (0 Bft)
10.11.2025 19:33 21,4 °C 4,7 °C 56 % 89 % 1014,5 hPa 0,0 l/m² 0,0 km/h (0 Bft) S 180 ° 0 min 0 W/m² 3,0 °C 4,7 °C 0,0 km/h (0 Bft)
10.11.2025 19:34 21,4 °C 4,6 °C 56 % 89 % 1014,6 hPa 0,0 l/m² 0,0 km/h (0 Bft) S 180 ° 0 min 0 W/m² 2,9 °C 4,6 °C 0,0 km/h (0 Bft)
10.11.2025 19:35 21,4 °C 4,6 °C 56 % 89 % 1014,5 hPa 0,0 l/m² 0,0 km/h (0 Bft) S 180 ° 0 min 0 W/m² 2,9 °C 4,6 °C 0,0 km/h (0 Bft)
10.11.2025 19:36 21,4 °C 4,6 °C 56 % 89 % 1014,5 hPa 0,0 l/m² 0,0 km/h (0 Bft) S 180 ° 0 min 0 W/m² 2,9 °C 4,6 °C 0,0 km/h (0 Bft)
10.11.2025 19:37 21,4 °C 4,5 °C 56 % 89 % 1014,5 hPa 0,0 l/m² 0,0 km/h (0 Bft) S 180 ° 0 min 0 W/m² 2,8 °C 4,5 °C 0,0 km/h (0 Bft)
10.11.2025 19:38 21,4 °C 4,5 °C 56 % 89 % 1014,5 hPa 0,0 l/m² 0,0 km/h (0 Bft) S 180 ° 0 min 0 W/m² 2,8 °C 4,5 °C 0,0 km/h (0 Bft)
10.11.2025 19:39 21,4 °C 4,4 °C 56 % 89 % 1014,5 hPa 0,0 l/m² 0,0 km/h (0 Bft) S 180 ° 0 min 0 W/m² 2,7 °C 4,4 °C 0,0 km/h (0 Bft)
10.11.2025 19:40 21,4 °C 4,4 °C 56 % 89 % 1014,5 hPa 0,0 l/m² 0,0 km/h (0 Bft) S 180 ° 0 min 0 W/m² 2,7 °C 4,4 °C 0,0 km/h (0 Bft)
10.11.2025 19:41 21,4 °C 4,4 °C 56 % 89 % 1014,6 hPa 0,0 l/m² 0,0 km/h (0 Bft) S 180 ° 0 min 0 W/m² 2,7 °C 4,4 °C 0,0 km/h (0 Bft)
10.11.2025 19:42 21,4 °C 4,4 °C 56 % 89 % 1014,6 hPa 0,0 l/m² 0,0 km/h (0 Bft) S 180 ° 0 min 0 W/m² 2,7 °C 4,4 °C 0,0 km/h (0 Bft)
10.11.2025 19:43 21,4 °C 4,4 °C 56 % 89 % 1014,6 hPa 0,0 l/m² 0,0 km/h (0 Bft) S 180 ° 0 min 0 W/m² 2,7 °C 4,4 °C 0,0 km/h (0 Bft)
10.11.2025 19:44 21,4 °C 4,4 °C 56 % 89 % 1014,5 hPa 0,0 l/m² 0,0 km/h (0 Bft) S 180 ° 0 min 0 W/m² 2,7 °C 4,4 °C 0,0 km/h (0 Bft)
10.11.2025 19:45 21,4 °C 4,3 °C 56 % 89 % 1014,6 hPa 0,0 l/m² 0,0 km/h (0 Bft) S 180 ° 0 min 0 W/m² 2,7 °C 4,3 °C 0,0 km/h (0 Bft)
10.11.2025 19:46 21,4 °C 4,3 °C 56 % 89 % 1014,5 hPa 0,0 l/m² 0,0 km/h (0 Bft) S 180 ° 0 min 0 W/m² 2,7 °C 4,3 °C 0,0 km/h (0 Bft)
10.11.2025 19:47 21,4 °C 4,3 °C 56 % 89 % 1014,5 hPa 0,0 l/m² 0,0 km/h (0 Bft) S 180 ° 0 min 0 W/m² 2,7 °C 4,3 °C 0,0 km/h (0 Bft)
10.11.2025 19:48 21,4 °C 4,3 °C 56 % 89 % 1014,5 hPa 0,0 l/m² 0,0 km/h (0 Bft) S 180 ° 0 min 0 W/m² 2,7 °C 4,3 °C 0,0 km/h (0 Bft)
10.11.2025 19:49 21,4 °C 4,2 °C 56 % 89 % 1014,5 hPa 0,0 l/m² 0,0 km/h (0 Bft) S 180 ° 0 min 0 W/m² 2,6 °C 4,2 °C 0,0 km/h (0 Bft)
10.11.2025 19:50 21,4 °C 4,2 °C 56 % 89 % 1014,5 hPa 0,0 l/m² 0,0 km/h (0 Bft) S 180 ° 0 min 0 W/m² 2,6 °C 4,2 °C 0,0 km/h (0 Bft)
10.11.2025 19:51 21,4 °C 4,2 °C 56 % 89 % 1014,5 hPa 0,0 l/m² 0,0 km/h (0 Bft) S 180 ° 0 min 0 W/m² 2,6 °C 4,2 °C 0,0 km/h (0 Bft)
10.11.2025 19:52 21,4 °C 4,2 °C 56 % 89 % 1014,5 hPa 0,0 l/m² 0,0 km/h (0 Bft) S 180 ° 0 min 0 W/m² 2,6 °C 4,2 °C 0,0 km/h (0 Bft)
10.11.2025 19:53 21,4 °C 4,2 °C 56 % 89 % 1014,5 hPa 0,0 l/m² 0,0 km/h (0 Bft) S 180 ° 0 min 0 W/m² 2,6 °C 4,2 °C 0,0 km/h (0 Bft)
10.11.2025 19:54 21,4 °C 4,1 °C 56 % 89 % 1014,4 hPa 0,0 l/m² 0,0 km/h (0 Bft) S 180 ° 0 min 0 W/m² 2,5 °C 4,1 °C 0,0 km/h (0 Bft)
10.11.2025 19:55 21,4 °C 4,1 °C 56 % 89 % 1014,5 hPa 0,0 l/m² 0,0 km/h (0 Bft) S 180 ° 0 min 0 W/m² 2,5 °C 4,1 °C 0,0 km/h (0 Bft)
10.11.2025 19:56 21,4 °C 4,1 °C 56 % 89 % 1014,5 hPa 0,0 l/m² 0,0 km/h (0 Bft) S 180 ° 0 min 0 W/m² 2,5 °C 4,1 °C 0,0 km/h (0 Bft)
10.11.2025 19:57 21,4 °C 4,1 °C 56 % 89 % 1014,5 hPa 0,0 l/m² 0,0 km/h (0 Bft) S 180 ° 0 min 0 W/m² 2,5 °C 4,1 °C 0,0 km/h (0 Bft)
10.11.2025 19:58 21,4 °C 4,0 °C 56 % 89 % 1014,4 hPa 0,0 l/m² 0,0 km/h (0 Bft) S 180 ° 0 min 0 W/m² 2,4 °C 4,0 °C 0,0 km/h (0 Bft)
10.11.2025 19:59 21,5 °C 4,0 °C 56 % 89 % 1014,4 hPa 0,0 l/m² 0,0 km/h (0 Bft) S 180 ° 0 min 0 W/m² 2,4 °C 4,0 °C 0,0 km/h (0 Bft)
10.11.2025 20:00 21,4 °C 4,0 °C 56 % 89 % 1014,5 hPa 0,0 l/m² 0,0 km/h (0 Bft) S 180 ° 0 min 0 W/m² 2,4 °C 4,0 °C 0,0 km/h (0 Bft)
10.11.2025 20:01 21,4 °C 4,0 °C 56 % 89 % 1014,4 hPa 0,0 l/m² 0,0 km/h (0 Bft) S 180 ° 0 min 0 W/m² 2,4 °C 4,0 °C 0,0 km/h (0 Bft)
10.11.2025 20:02 21,5 °C 3,9 °C 56 % 89 % 1014,4 hPa 0,0 l/m² 0,0 km/h (0 Bft) S 180 ° 0 min 0 W/m² 2,3 °C 3,9 °C 0,0 km/h (0 Bft)
10.11.2025 20:03 21,4 °C 3,9 °C 56 % 89 % 1014,4 hPa 0,0 l/m² 0,0 km/h (0 Bft) S 180 ° 0 min 0 W/m² 2,3 °C 3,9 °C 0,0 km/h (0 Bft)
10.11.2025 20:04 21,4 °C 3,9 °C 56 % 89 % 1014,4 hPa 0,0 l/m² 0,0 km/h (0 Bft) S 180 ° 0 min 0 W/m² 2,3 °C 3,9 °C 0,0 km/h (0 Bft)
10.11.2025 20:05 21,5 °C 3,8 °C 56 % 89 % 1014,3 hPa 0,0 l/m² 0,0 km/h (0 Bft) S 180 ° 0 min 0 W/m² 2,2 °C 3,8 °C 0,0 km/h (0 Bft)
10.11.2025 20:06 21,4 °C 3,8 °C 56 % 89 % 1014,4 hPa 0,0 l/m² 0,0 km/h (0 Bft) S 180 ° 0 min 0 W/m² 2,2 °C 3,8 °C 0,0 km/h (0 Bft)
10.11.2025 20:07 21,5 °C 3,8 °C 56 % 89 % 1014,4 hPa 0,0 l/m² 0,0 km/h (0 Bft) S 180 ° 0 min 0 W/m² 2,2 °C 3,8 °C 0,0 km/h (0 Bft)
10.11.2025 20:08 21,5 °C 3,8 °C 56 % 89 % 1014,2 hPa 0,0 l/m² 0,0 km/h (0 Bft) S 180 ° 0 min 0 W/m² 2,2 °C 3,8 °C 0,0 km/h (0 Bft)
10.11.2025 20:09 21,6 °C 3,8 °C 57 % 89 % 1014,3 hPa 0,0 l/m² 0,0 km/h (0 Bft) S 180 ° 0 min 0 W/m² 2,2 °C 3,8 °C 0,0 km/h (0 Bft)
10.11.2025 20:10 21,5 °C 3,8 °C 57 % 89 % 1014,3 hPa 0,0 l/m² 0,0 km/h (0 Bft) S 180 ° 0 min 0 W/m² 2,2 °C 3,8 °C 0,0 km/h (0 Bft)
10.11.2025 20:11 21,5 °C 3,8 °C 57 % 89 % 1014,4 hPa 0,0 l/m² 0,0 km/h (0 Bft) S 180 ° 0 min 0 W/m² 2,2 °C 3,8 °C 0,0 km/h (0 Bft)
10.11.2025 20:12 21,5 °C 3,7 °C 57 % 89 % 1014,4 hPa 0,0 l/m² 0,0 km/h (0 Bft) S 180 ° 0 min 0 W/m² 2,1 °C 3,7 °C 0,0 km/h (0 Bft)
10.11.2025 20:13 21,5 °C 3,7 °C 57 % 89 % 1014,4 hPa 0,0 l/m² 0,0 km/h (0 Bft) S 180 ° 0 min 0 W/m² 2,1 °C 3,7 °C 0,0 km/h (0 Bft)
10.11.2025 20:14 21,6 °C 3,7 °C 57 % 89 % 1014,3 hPa 0,0 l/m² 0,0 km/h (0 Bft) S 180 ° 0 min 0 W/m² 2,1 °C 3,7 °C 0,0 km/h (0 Bft)
10.11.2025 20:15 21,6 °C 3,7 °C 57 % 89 % 1014,4 hPa 0,0 l/m² 0,0 km/h (0 Bft) S 180 ° 0 min 0 W/m² 2,1 °C 3,7 °C 0,0 km/h (0 Bft)
10.11.2025 20:16 21,6 °C 3,7 °C 57 % 89 % 1014,3 hPa 0,0 l/m² 0,0 km/h (0 Bft) S 180 ° 0 min 0 W/m² 2,1 °C 3,7 °C 0,0 km/h (0 Bft)
10.11.2025 20:17 21,6 °C 3,7 °C 57 % 89 % 1014,4 hPa 0,0 l/m² 0,0 km/h (0 Bft) S 180 ° 0 min 0 W/m² 2,1 °C 3,7 °C 0,0 km/h (0 Bft)
10.11.2025 20:18 21,6 °C 3,6 °C 57 % 89 % 1014,4 hPa 0,0 l/m² 0,0 km/h (0 Bft) S 180 ° 0 min 0 W/m² 2,0 °C 3,6 °C 0,0 km/h (0 Bft)
10.11.2025 20:19 21,6 °C 3,6 °C 57 % 89 % 1014,4 hPa 0,0 l/m² 0,0 km/h (0 Bft) S 180 ° 0 min 0 W/m² 2,0 °C 3,6 °C 0,0 km/h (0 Bft)
10.11.2025 20:20 21,6 °C 3,6 °C 57 % 89 % 1014,3 hPa 0,0 l/m² 0,2 km/h (0 Bft) S 180 ° 0 min 0 W/m² 2,0 °C 3,6 °C 1,6 km/h (1 Bft)
10.11.2025 20:21 21,6 °C 3,6 °C 57 % 89 % 1014,4 hPa 0,0 l/m² 0,0 km/h (0 Bft) S 180 ° 0 min 0 W/m² 2,0 °C 3,6 °C 0,0 km/h (0 Bft)
10.11.2025 20:22 21,6 °C 3,6 °C 57 % 89 % 1014,3 hPa 0,0 l/m² 0,0 km/h (0 Bft) S 180 ° 0 min 0 W/m² 2,0 °C 3,6 °C 0,0 km/h (0 Bft)
10.11.2025 20:23 21,6 °C 3,6 °C 57 % 89 % 1014,2 hPa 0,0 l/m² 0,0 km/h (0 Bft) S 180 ° 0 min 0 W/m² 2,0 °C 3,6 °C 0,0 km/h (0 Bft)
10.11.2025 20:24 21,6 °C 3,5 °C 57 % 89 % 1014,3 hPa 0,0 l/m² 0,0 km/h (0 Bft) S 180 ° 0 min 0 W/m² 1,9 °C 3,5 °C 0,0 km/h (0 Bft)
10.11.2025 20:25 21,6 °C 3,5 °C 57 % 89 % 1014,3 hPa 0,0 l/m² 0,0 km/h (0 Bft) S 180 ° 0 min 0 W/m² 1,9 °C 3,5 °C 0,0 km/h (0 Bft)
10.11.2025 20:26 21,6 °C 3,5 °C 57 % 89 % 1014,3 hPa 0,0 l/m² 0,0 km/h (0 Bft) S 180 ° 0 min 0 W/m² 1,9 °C 3,5 °C 0,0 km/h (0 Bft)
10.11.2025 20:27 21,6 °C 3,5 °C 57 % 89 % 1014,2 hPa 0,0 l/m² 0,0 km/h (0 Bft) S 180 ° 0 min 0 W/m² 1,9 °C 3,5 °C 0,0 km/h (0 Bft)
10.11.2025 20:28 21,6 °C 3,4 °C 57 % 89 % 1014,2 hPa 0,0 l/m² 0,0 km/h (0 Bft) S 180 ° 0 min 0 W/m² 1,8 °C 3,4 °C 0,0 km/h (0 Bft)
10.11.2025 20:29 21,6 °C 3,4 °C 57 % 89 % 1014,3 hPa 0,0 l/m² 0,0 km/h (0 Bft) S 180 ° 0 min 0 W/m² 1,8 °C 3,4 °C 0,0 km/h (0 Bft)
10.11.2025 20:30 21,6 °C 3,4 °C 57 % 89 % 1014,3 hPa 0,0 l/m² 0,0 km/h (0 Bft) S 180 ° 0 min 0 W/m² 1,8 °C 3,4 °C 0,0 km/h (0 Bft)
10.11.2025 20:31 21,6 °C 3,4 °C 57 % 89 % 1014,2 hPa 0,0 l/m² 0,0 km/h (0 Bft) S 180 ° 0 min 0 W/m² 1,8 °C 3,4 °C 0,0 km/h (0 Bft)
10.11.2025 20:32 21,6 °C 3,4 °C 57 % 89 % 1014,2 hPa 0,0 l/m² 0,0 km/h (0 Bft) S 180 ° 0 min 0 W/m² 1,8 °C 3,4 °C 0,0 km/h (0 Bft)
10.11.2025 20:33 21,6 °C 3,3 °C 57 % 89 % 1014,2 hPa 0,0 l/m² 0,0 km/h (0 Bft) S 180 ° 0 min 0 W/m² 1,7 °C 3,3 °C 0,0 km/h (0 Bft)
10.11.2025 20:34 21,6 °C 3,3 °C 57 % 89 % 1014,2 hPa 0,0 l/m² 0,0 km/h (0 Bft) S 180 ° 0 min 0 W/m² 1,7 °C 3,3 °C 0,0 km/h (0 Bft)
10.11.2025 20:35 21,6 °C 3,3 °C 57 % 89 % 1014,2 hPa 0,0 l/m² 1,3 km/h (1 Bft) S 180 ° 0 min 0 W/m² 1,7 °C 3,3 °C 3,2 km/h (1 Bft)
10.11.2025 20:36 21,6 °C 3,2 °C 57 % 89 % 1014,2 hPa 0,0 l/m² 0,0 km/h (0 Bft) S 180 ° 0 min 0 W/m² 1,6 °C 3,2 °C 0,0 km/h (0 Bft)
10.11.2025 20:37 21,6 °C 3,2 °C 57 % 89 % 1014,3 hPa 0,0 l/m² 0,1 km/h (0 Bft) S 180 ° 0 min 0 W/m² 1,6 °C 3,2 °C 1,6 km/h (1 Bft)
10.11.2025 20:38 21,6 °C 3,2 °C 57 % 89 % 1014,3 hPa 0,0 l/m² 0,1 km/h (0 Bft) S 180 ° 0 min 0 W/m² 1,6 °C 3,2 °C 1,6 km/h (1 Bft)
10.11.2025 20:39 21,6 °C 3,1 °C 57 % 89 % 1014,3 hPa 0,0 l/m² 0,0 km/h (0 Bft) S 180 ° 0 min 0 W/m² 1,5 °C 3,1 °C 0,0 km/h (0 Bft)
10.11.2025 20:40 21,6 °C 3,1 °C 57 % 90 % 1014,3 hPa 0,0 l/m² 0,0 km/h (0 Bft) S 180 ° 0 min 0 W/m² 1,6 °C 3,1 °C 0,0 km/h (0 Bft)
10.11.2025 20:41 21,6 °C 3,1 °C 57 % 90 % 1014,2 hPa 0,0 l/m² 0,0 km/h (0 Bft) S 180 ° 0 min 0 W/m² 1,6 °C 3,1 °C 0,0 km/h (0 Bft)
10.11.2025 20:42 21,7 °C 3,1 °C 57 % 90 % 1014,3 hPa 0,0 l/m² 0,0 km/h (0 Bft) S 180 ° 0 min 0 W/m² 1,6 °C 3,1 °C 0,0 km/h (0 Bft)
10.11.2025 20:43 21,6 °C 3,1 °C 57 % 90 % 1014,2 hPa 0,0 l/m² 0,0 km/h (0 Bft) S 180 ° 0 min 0 W/m² 1,6 °C 3,1 °C 0,0 km/h (0 Bft)
10.11.2025 20:44 21,6 °C 3,1 °C 57 % 90 % 1014,3 hPa 0,0 l/m² 0,7 km/h (0 Bft) S 180 ° 0 min 0 W/m² 1,6 °C 3,1 °C 1,6 km/h (1 Bft)
10.11.2025 20:45 21,7 °C 3,0 °C 57 % 90 % 1014,3 hPa 0,0 l/m² 2,3 km/h (1 Bft) S 180 ° 0 min 0 W/m² 1,5 °C 3,0 °C 4,8 km/h (1 Bft)
10.11.2025 20:46 21,7 °C 3,0 °C 57 % 90 % 1014,3 hPa 0,0 l/m² 3,2 km/h (1 Bft) S 180 ° 0 min 0 W/m² 1,5 °C 3,0 °C 4,8 km/h (1 Bft)
10.11.2025 20:47 21,6 °C 2,9 °C 57 % 90 % 1014,2 hPa 0,0 l/m² 2,1 km/h (1 Bft) S 180 ° 0 min 0 W/m² 1,4 °C 2,9 °C 4,8 km/h (1 Bft)
10.11.2025 20:48 21,7 °C 3,0 °C 57 % 90 % 1014,1 hPa 0,0 l/m² 2,7 km/h (1 Bft) S-SO 161 ° 0 min 0 W/m² 1,5 °C 3,0 °C 6,4 km/h (2 Bft)
10.11.2025 20:49 21,7 °C 2,9 °C 57 % 90 % 1014,1 hPa 0,0 l/m² 2,3 km/h (1 Bft) SO 140 ° 0 min 0 W/m² 1,4 °C 2,9 °C 4,8 km/h (1 Bft)
10.11.2025 20:50 21,6 °C 2,9 °C 57 % 90 % 1014,1 hPa 0,0 l/m² 3,4 km/h (1 Bft) O-SO 118 ° 0 min 0 W/m² 1,4 °C 2,9 °C 4,8 km/h (1 Bft)
10.11.2025 20:51 21,6 °C 2,9 °C 57 % 90 % 1014,2 hPa 0,0 l/m² 3,8 km/h (1 Bft) O-SO 109 ° 0 min 0 W/m² 1,4 °C 2,9 °C 6,4 km/h (2 Bft)
10.11.2025 20:52 21,7 °C 2,9 °C 57 % 90 % 1014,1 hPa 0,0 l/m² 3,4 km/h (1 Bft) O-SO 109 ° 0 min 0 W/m² 1,4 °C 2,9 °C 4,8 km/h (1 Bft)
10.11.2025 20:53 21,7 °C 2,9 °C 57 % 90 % 1014,1 hPa 0,0 l/m² 4,3 km/h (1 Bft) O 99 ° 0 min 0 W/m² 1,4 °C 2,9 °C 9,7 km/h (2 Bft)
10.11.2025 20:54 21,6 °C 2,9 °C 57 % 90 % 1014,1 hPa 0,0 l/m² 3,2 km/h (1 Bft) O 99 ° 0 min 0 W/m² 1,4 °C 2,9 °C 4,8 km/h (1 Bft)
10.11.2025 20:55 21,7 °C 3,0 °C 57 % 90 % 1014,1 hPa 0,0 l/m² 3,2 km/h (1 Bft) O 99 ° 0 min 0 W/m² 1,5 °C 3,0 °C 4,8 km/h (1 Bft)
10.11.2025 20:56 21,7 °C 3,0 °C 57 % 90 % 1014,1 hPa 0,0 l/m² 2,1 km/h (1 Bft) O 98 ° 0 min 0 W/m² 1,5 °C 3,0 °C 4,8 km/h (1 Bft)
10.11.2025 20:57 21,7 °C 3,0 °C 57 % 90 % 1014,2 hPa 0,0 l/m² 0,3 km/h (0 Bft) O 98 ° 0 min 0 W/m² 1,5 °C 3,0 °C 1,6 km/h (1 Bft)
10.11.2025 20:58 21,7 °C 2,9 °C 57 % 90 % 1014,2 hPa 0,0 l/m² 0,0 km/h (0 Bft) O 98 ° 0 min 0 W/m² 1,4 °C 2,9 °C 0,0 km/h (0 Bft)
10.11.2025 20:59 21,7 °C 3,0 °C 57 % 91 % 1014,2 hPa 0,0 l/m² 0,0 km/h (0 Bft) O 98 ° 0 min 0 W/m² 1,7 °C 3,0 °C 0,0 km/h (0 Bft)
10.11.2025 21:00 21,7 °C 2,9 °C 57 % 90 % 1014,2 hPa 0,0 l/m² 0,1 km/h (0 Bft) O 98 ° 0 min 0 W/m² 1,4 °C 2,9 °C 1,6 km/h (1 Bft)
10.11.2025 21:01 21,7 °C 2,9 °C 57 % 90 % 1014,2 hPa 0,0 l/m² 0,0 km/h (0 Bft) O 98 ° 0 min 0 W/m² 1,4 °C 2,9 °C 0,0 km/h (0 Bft)
10.11.2025 21:03 21,7 °C 3,0 °C 57 % 91 % 1014,2 hPa 0,0 l/m² 0,0 km/h (0 Bft) O 98 ° 0 min 0 W/m² 1,7 °C 3,0 °C 0,0 km/h (0 Bft)
10.11.2025 21:04 21,7 °C 3,0 °C 57 % 91 % 1014,2 hPa 0,0 l/m² 0,0 km/h (0 Bft) O 98 ° 0 min 0 W/m² 1,7 °C 3,0 °C 0,0 km/h (0 Bft)
10.11.2025 21:05 21,7 °C 3,0 °C 57 % 91 % 1014,2 hPa 0,0 l/m² 0,0 km/h (0 Bft) O 98 ° 0 min 0 W/m² 1,7 °C 3,0 °C 0,0 km/h (0 Bft)
10.11.2025 21:06 21,7 °C 3,1 °C 57 % 91 % 1014,2 hPa 0,0 l/m² 0,0 km/h (0 Bft) O 98 ° 0 min 0 W/m² 1,8 °C 3,1 °C 0,0 km/h (0 Bft)
10.11.2025 21:08 21,7 °C 3,1 °C 57 % 91 % 1014,2 hPa 0,0 l/m² 0,0 km/h (0 Bft) O 98 ° 0 min 0 W/m² 1,8 °C 3,1 °C 0,0 km/h (0 Bft)
10.11.2025 21:09 21,7 °C 3,1 °C 57 % 91 % 1014,2 hPa 0,0 l/m² 0,0 km/h (0 Bft) O 98 ° 0 min 0 W/m² 1,8 °C 3,1 °C 0,0 km/h (0 Bft)
10.11.2025 21:10 21,7 °C 3,1 °C 57 % 91 % 1014,2 hPa 0,0 l/m² 0,0 km/h (0 Bft) O 98 ° 0 min 0 W/m² 1,8 °C 3,1 °C 0,0 km/h (0 Bft)
10.11.2025 21:11 21,7 °C 3,1 °C 57 % 91 % 1014,2 hPa 0,0 l/m² 0,0 km/h (0 Bft) O 98 ° 0 min 0 W/m² 1,8 °C 3,1 °C 0,0 km/h (0 Bft)
10.11.2025 21:13 21,7 °C 3,1 °C 57 % 91 % 1014,2 hPa 0,0 l/m² 0,0 km/h (0 Bft) O 98 ° 0 min 0 W/m² 1,8 °C 3,1 °C 0,0 km/h (0 Bft)
10.11.2025 21:14 21,7 °C 3,1 °C 57 % 91 % 1014,2 hPa 0,0 l/m² 0,0 km/h (0 Bft) O 98 ° 0 min 0 W/m² 1,8 °C 3,1 °C 0,0 km/h (0 Bft)
10.11.2025 21:15 21,7 °C 3,1 °C 57 % 91 % 1014,2 hPa 0,0 l/m² 0,0 km/h (0 Bft) O 98 ° 0 min 0 W/m² 1,8 °C 3,1 °C 0,0 km/h (0 Bft)
10.11.2025 21:16 21,7 °C 3,1 °C 57 % 91 % 1014,2 hPa 0,0 l/m² 0,0 km/h (0 Bft) O 98 ° 0 min 0 W/m² 1,8 °C 3,1 °C 0,0 km/h (0 Bft)
10.11.2025 21:18 21,7 °C 3,1 °C 57 % 91 % 1014,2 hPa 0,0 l/m² 0,0 km/h (0 Bft) O 98 ° 0 min 0 W/m² 1,8 °C 3,1 °C 0,0 km/h (0 Bft)
10.11.2025 21:19 21,7 °C 3,1 °C 57 % 91 % 1014,2 hPa 0,0 l/m² 0,0 km/h (0 Bft) O 98 ° 0 min 0 W/m² 1,8 °C 3,1 °C 0,0 km/h (0 Bft)
10.11.2025 21:20 21,7 °C 3,1 °C 57 % 91 % 1014,2 hPa 0,0 l/m² 0,0 km/h (0 Bft) O 98 ° 0 min 0 W/m² 1,8 °C 3,1 °C 0,0 km/h (0 Bft)
10.11.2025 21:21 21,7 °C 3,1 °C 57 % 91 % 1014,1 hPa 0,0 l/m² 0,0 km/h (0 Bft) O 98 ° 0 min 0 W/m² 1,8 °C 3,1 °C 0,0 km/h (0 Bft)
10.11.2025 21:23 21,7 °C 3,1 °C 57 % 91 % 1014,1 hPa 0,0 l/m² 0,0 km/h (0 Bft) O 98 ° 0 min 0 W/m² 1,8 °C 3,1 °C 0,0 km/h (0 Bft)
10.11.2025 21:24 21,7 °C 3,1 °C 57 % 91 % 1014,1 hPa 0,0 l/m² 0,0 km/h (0 Bft) O 98 ° 0 min 0 W/m² 1,8 °C 3,1 °C 0,0 km/h (0 Bft)
10.11.2025 21:25 21,7 °C 3,1 °C 57 % 91 % 1014,2 hPa 0,0 l/m² 0,0 km/h (0 Bft) O 98 ° 0 min 0 W/m² 1,8 °C 3,1 °C 0,0 km/h (0 Bft)
10.11.2025 21:26 21,7 °C 3,0 °C 57 % 91 % 1014,1 hPa 0,0 l/m² 0,0 km/h (0 Bft) O 98 ° 0 min 0 W/m² 1,7 °C 3,0 °C 0,0 km/h (0 Bft)
10.11.2025 21:27 21,7 °C 3,0 °C 57 % 91 % 1014,1 hPa 0,0 l/m² 0,0 km/h (0 Bft) O 98 ° 0 min 0 W/m² 1,7 °C 3,0 °C 0,0 km/h (0 Bft)
10.11.2025 21:28 21,7 °C 3,0 °C 57 % 91 % 1014,1 hPa 0,0 l/m² 0,0 km/h (0 Bft) O 98 ° 0 min 0 W/m² 1,7 °C 3,0 °C 0,0 km/h (0 Bft)
10.11.2025 21:29 21,7 °C 3,0 °C 57 % 91 % 1014,1 hPa 0,0 l/m² 0,0 km/h (0 Bft) O 98 ° 0 min 0 W/m² 1,7 °C 3,0 °C 0,0 km/h (0 Bft)
10.11.2025 21:30 21,7 °C 2,9 °C 57 % 91 % 1014,2 hPa 0,0 l/m² 0,0 km/h (0 Bft) O 98 ° 0 min 0 W/m² 1,6 °C 2,9 °C 0,0 km/h (0 Bft)
10.11.2025 21:31 21,7 °C 2,9 °C 57 % 91 % 1014,2 hPa 0,0 l/m² 0,0 km/h (0 Bft) O 98 ° 0 min 0 W/m² 1,6 °C 2,9 °C 0,0 km/h (0 Bft)
10.11.2025 21:32 21,7 °C 2,9 °C 57 % 91 % 1014,2 hPa 0,0 l/m² 0,0 km/h (0 Bft) O 98 ° 0 min 0 W/m² 1,6 °C 2,9 °C 0,0 km/h (0 Bft)
10.11.2025 21:33 21,7 °C 2,9 °C 57 % 91 % 1014,2 hPa 0,0 l/m² 0,0 km/h (0 Bft) O 98 ° 0 min 0 W/m² 1,6 °C 2,9 °C 0,0 km/h (0 Bft)
10.11.2025 21:34 21,7 °C 2,9 °C 57 % 91 % 1014,1 hPa 0,0 l/m² 0,0 km/h (0 Bft) O 98 ° 0 min 0 W/m² 1,6 °C 2,9 °C 0,0 km/h (0 Bft)
10.11.2025 21:35 21,7 °C 2,9 °C 57 % 91 % 1014,1 hPa 0,0 l/m² 0,0 km/h (0 Bft) O 98 ° 0 min 0 W/m² 1,6 °C 2,9 °C 0,0 km/h (0 Bft)
10.11.2025 21:36 21,7 °C 2,9 °C 57 % 91 % 1014,2 hPa 0,0 l/m² 0,0 km/h (0 Bft) O 98 ° 0 min 0 W/m² 1,6 °C 2,9 °C 0,0 km/h (0 Bft)
10.11.2025 21:37 21,7 °C 2,9 °C 57 % 91 % 1014,2 hPa 0,0 l/m² 0,0 km/h (0 Bft) O 98 ° 0 min 0 W/m² 1,6 °C 2,9 °C 0,0 km/h (0 Bft)
10.11.2025 21:38 21,7 °C 2,9 °C 57 % 91 % 1014,1 hPa 0,0 l/m² 0,0 km/h (0 Bft) O 98 ° 0 min 0 W/m² 1,6 °C 2,9 °C 0,0 km/h (0 Bft)
10.11.2025 21:39 21,7 °C 2,9 °C 57 % 91 % 1014,2 hPa 0,0 l/m² 0,0 km/h (0 Bft) O 98 ° 0 min 0 W/m² 1,6 °C 2,9 °C 0,0 km/h (0 Bft)
10.11.2025 21:40 21,7 °C 2,9 °C 57 % 91 % 1014,2 hPa 0,0 l/m² 0,0 km/h (0 Bft) O 98 ° 0 min 0 W/m² 1,6 °C 2,9 °C 0,0 km/h (0 Bft)
10.11.2025 21:41 21,7 °C 2,8 °C 57 % 91 % 1014,2 hPa 0,0 l/m² 0,0 km/h (0 Bft) O 98 ° 0 min 0 W/m² 1,5 °C 2,8 °C 0,0 km/h (0 Bft)
10.11.2025 21:42 21,7 °C 2,8 °C 57 % 91 % 1014,2 hPa 0,0 l/m² 0,0 km/h (0 Bft) O 98 ° 0 min 0 W/m² 1,5 °C 2,8 °C 0,0 km/h (0 Bft)
10.11.2025 21:43 21,7 °C 2,8 °C 57 % 91 % 1014,2 hPa 0,0 l/m² 0,0 km/h (0 Bft) O 98 ° 0 min 0 W/m² 1,5 °C 2,8 °C 0,0 km/h (0 Bft)
10.11.2025 21:45 21,7 °C 2,8 °C 57 % 91 % 1014,2 hPa 0,0 l/m² 0,0 km/h (0 Bft) O 98 ° 0 min 0 W/m² 1,5 °C 2,8 °C 0,0 km/h (0 Bft)
10.11.2025 21:46 21,7 °C 2,8 °C 57 % 91 % 1014,1 hPa 0,0 l/m² 0,0 km/h (0 Bft) O 98 ° 0 min 0 W/m² 1,5 °C 2,8 °C 0,0 km/h (0 Bft)
10.11.2025 21:47 21,7 °C 2,8 °C 57 % 91 % 1014,1 hPa 0,0 l/m² 0,0 km/h (0 Bft) O 98 ° 0 min 0 W/m² 1,5 °C 2,8 °C 0,0 km/h (0 Bft)
10.11.2025 21:48 21,7 °C 2,8 °C 57 % 91 % 1014,2 hPa 0,0 l/m² 0,0 km/h (0 Bft) O 98 ° 0 min 0 W/m² 1,5 °C 2,8 °C 0,0 km/h (0 Bft)
10.11.2025 21:49 21,7 °C 2,8 °C 57 % 91 % 1014,2 hPa 0,0 l/m² 0,0 km/h (0 Bft) O 98 ° 0 min 0 W/m² 1,5 °C 2,8 °C 0,0 km/h (0 Bft)
10.11.2025 21:50 21,7 °C 2,8 °C 57 % 91 % 1014,2 hPa 0,0 l/m² 0,0 km/h (0 Bft) O 98 ° 0 min 0 W/m² 1,5 °C 2,8 °C 0,0 km/h (0 Bft)
10.11.2025 21:51 21,7 °C 2,8 °C 57 % 91 % 1014,2 hPa 0,0 l/m² 0,0 km/h (0 Bft) O 98 ° 0 min 0 W/m² 1,5 °C 2,8 °C 0,0 km/h (0 Bft)
10.11.2025 21:52 21,6 °C 2,8 °C 57 % 91 % 1014,2 hPa 0,0 l/m² 0,0 km/h (0 Bft) O 98 ° 0 min 0 W/m² 1,5 °C 2,8 °C 0,0 km/h (0 Bft)
10.11.2025 21:53 21,7 °C 2,8 °C 57 % 91 % 1014,2 hPa 0,0 l/m² 0,0 km/h (0 Bft) O 98 ° 0 min 0 W/m² 1,5 °C 2,8 °C 0,0 km/h (0 Bft)
10.11.2025 21:54 21,7 °C 2,8 °C 56 % 91 % 1014,2 hPa 0,0 l/m² 0,0 km/h (0 Bft) O 98 ° 0 min 0 W/m² 1,5 °C 2,8 °C 0,0 km/h (0 Bft)
10.11.2025 21:55 21,7 °C 2,8 °C 56 % 91 % 1014,2 hPa 0,0 l/m² 0,0 km/h (0 Bft) O 98 ° 0 min 0 W/m² 1,5 °C 2,8 °C 0,0 km/h (0 Bft)
10.11.2025 21:56 21,6 °C 2,8 °C 56 % 91 % 1014,2 hPa 0,0 l/m² 0,0 km/h (0 Bft) O 98 ° 0 min 0 W/m² 1,5 °C 2,8 °C 0,0 km/h (0 Bft)
10.11.2025 21:57 21,6 °C 2,7 °C 56 % 91 % 1014,2 hPa 0,0 l/m² 0,0 km/h (0 Bft) O 98 ° 0 min 0 W/m² 1,4 °C 2,7 °C 0,0 km/h (0 Bft)
10.11.2025 21:58 21,7 °C 2,7 °C 56 % 91 % 1014,2 hPa 0,0 l/m² 0,0 km/h (0 Bft) O 98 ° 0 min 0 W/m² 1,4 °C 2,7 °C 0,0 km/h (0 Bft)
10.11.2025 21:59 21,6 °C 2,7 °C 56 % 91 % 1014,1 hPa 0,0 l/m² 0,0 km/h (0 Bft) O 98 ° 0 min 0 W/m² 1,4 °C 2,7 °C 0,0 km/h (0 Bft)
10.11.2025 22:00 21,7 °C 2,6 °C 56 % 91 % 1014,2 hPa 0,0 l/m² 0,0 km/h (0 Bft) O 98 ° 0 min 0 W/m² 1,3 °C 2,6 °C 0,0 km/h (0 Bft)
10.11.2025 22:01 21,6 °C 2,6 °C 56 % 91 % 1014,2 hPa 0,0 l/m² 0,0 km/h (0 Bft) O 98 ° 0 min 0 W/m² 1,3 °C 2,6 °C 0,0 km/h (0 Bft)
10.11.2025 22:02 21,6 °C 2,6 °C 56 % 91 % 1014,1 hPa 0,0 l/m² 0,0 km/h (0 Bft) O 98 ° 0 min 0 W/m² 1,3 °C 2,6 °C 0,0 km/h (0 Bft)
10.11.2025 22:03 21,6 °C 2,5 °C 56 % 91 % 1014,1 hPa 0,0 l/m² 0,0 km/h (0 Bft) O 98 ° 0 min 0 W/m² 1,2 °C 2,5 °C 0,0 km/h (0 Bft)
10.11.2025 22:04 21,6 °C 2,4 °C 56 % 91 % 1014,1 hPa 0,0 l/m² 2,3 km/h (1 Bft) O 98 ° 0 min 0 W/m² 1,1 °C 2,4 °C 4,8 km/h (1 Bft)
10.11.2025 22:05 21,6 °C 2,4 °C 56 % 91 % 1014,1 hPa 0,0 l/m² 4,1 km/h (1 Bft) O 98 ° 0 min 0 W/m² 1,1 °C 2,4 °C 4,8 km/h (1 Bft)
10.11.2025 22:06 21,6 °C 2,4 °C 56 % 91 % 1014,1 hPa 0,0 l/m² 4,5 km/h (1 Bft) O 98 ° 0 min 0 W/m² 1,1 °C 2,4 °C 6,4 km/h (2 Bft)
10.11.2025 22:07 21,6 °C 2,4 °C 56 % 91 % 1014,0 hPa 0,0 l/m² 4,3 km/h (1 Bft) O 98 ° 0 min 0 W/m² 1,1 °C 2,4 °C 4,8 km/h (1 Bft)
10.11.2025 22:08 21,6 °C 2,4 °C 56 % 91 % 1014,0 hPa 0,0 l/m² 4,4 km/h (1 Bft) O 98 ° 0 min 0 W/m² 1,1 °C 2,4 °C 4,8 km/h (1 Bft)
10.11.2025 22:09 21,6 °C 2,3 °C 57 % 91 % 1014,0 hPa 0,0 l/m² 3,6 km/h (1 Bft) O 98 ° 0 min 0 W/m² 1,0 °C 2,3 °C 4,8 km/h (1 Bft)
10.11.2025 22:10 21,6 °C 2,3 °C 56 % 91 % 1014,0 hPa 0,0 l/m² 3,4 km/h (1 Bft) O 98 ° 0 min 0 W/m² 1,0 °C 2,3 °C 4,8 km/h (1 Bft)
10.11.2025 22:11 21,6 °C 2,3 °C 57 % 91 % 1014,0 hPa 0,0 l/m² 3,7 km/h (1 Bft) O 98 ° 0 min 0 W/m² 1,0 °C 2,3 °C 4,8 km/h (1 Bft)
10.11.2025 22:12 21,6 °C 2,3 °C 56 % 91 % 1014,0 hPa 0,0 l/m² 2,2 km/h (1 Bft) O 98 ° 0 min 0 W/m² 1,0 °C 2,3 °C 3,2 km/h (1 Bft)
10.11.2025 22:13 21,6 °C 2,3 °C 57 % 91 % 1014,0 hPa 0,0 l/m² 0,1 km/h (0 Bft) O 98 ° 0 min 0 W/m² 1,0 °C 2,3 °C 1,6 km/h (1 Bft)
10.11.2025 22:14 21,6 °C 2,3 °C 57 % 91 % 1014,0 hPa 0,0 l/m² 0,3 km/h (0 Bft) O 98 ° 0 min 0 W/m² 1,0 °C 2,3 °C 1,6 km/h (1 Bft)
10.11.2025 22:15 21,6 °C 2,3 °C 57 % 91 % 1014,0 hPa 0,0 l/m² 0,4 km/h (0 Bft) O 98 ° 0 min 0 W/m² 1,0 °C 2,3 °C 1,6 km/h (1 Bft)
10.11.2025 22:16 21,6 °C 2,3 °C 57 % 91 % 1014,0 hPa 0,0 l/m² 0,0 km/h (0 Bft) O 98 ° 0 min 0 W/m² 1,0 °C 2,3 °C 0,0 km/h (0 Bft)
10.11.2025 22:17 21,6 °C 2,3 °C 57 % 92 % 1014,0 hPa 0,0 l/m² 0,0 km/h (0 Bft) O 98 ° 0 min 0 W/m² 1,1 °C 2,3 °C 0,0 km/h (0 Bft)
10.11.2025 22:18 21,6 °C 2,3 °C 57 % 92 % 1014,0 hPa 0,0 l/m² 0,1 km/h (0 Bft) O 98 ° 0 min 0 W/m² 1,1 °C 2,3 °C 1,6 km/h (1 Bft)
10.11.2025 22:19 21,6 °C 2,3 °C 57 % 91 % 1014,0 hPa 0,0 l/m² 0,2 km/h (0 Bft) O 98 ° 0 min 0 W/m² 1,0 °C 2,3 °C 1,6 km/h (1 Bft)
10.11.2025 22:20 21,6 °C 2,3 °C 57 % 91 % 1014,0 hPa 0,0 l/m² 0,0 km/h (0 Bft) O 98 ° 0 min 0 W/m² 1,0 °C 2,3 °C 0,0 km/h (0 Bft)
10.11.2025 22:22 21,6 °C 2,3 °C 57 % 92 % 1014,0 hPa 0,0 l/m² 0,0 km/h (0 Bft) O 98 ° 0 min 0 W/m² 1,1 °C 2,3 °C 0,0 km/h (0 Bft)
10.11.2025 22:23 21,6 °C 2,3 °C 57 % 92 % 1014,0 hPa 0,0 l/m² 0,0 km/h (0 Bft) O 98 ° 0 min 0 W/m² 1,1 °C 2,3 °C 0,0 km/h (0 Bft)
10.11.2025 22:24 21,6 °C 2,3 °C 57 % 92 % 1014,1 hPa 0,0 l/m² 0,0 km/h (0 Bft) O 98 ° 0 min 0 W/m² 1,1 °C 2,3 °C 0,0 km/h (0 Bft)
10.11.2025 22:25 21,6 °C 2,3 °C 57 % 92 % 1014,1 hPa 0,0 l/m² 0,0 km/h (0 Bft) O 98 ° 0 min 0 W/m² 1,1 °C 2,3 °C 0,0 km/h (0 Bft)
10.11.2025 22:26 21,6 °C 2,3 °C 57 % 92 % 1014,1 hPa 0,0 l/m² 0,0 km/h (0 Bft) O 98 ° 0 min 0 W/m² 1,1 °C 2,3 °C 0,0 km/h (0 Bft)
10.11.2025 22:27 21,6 °C 2,3 °C 57 % 92 % 1014,0 hPa 0,0 l/m² 0,0 km/h (0 Bft) O 98 ° 0 min 0 W/m² 1,1 °C 2,3 °C 0,0 km/h (0 Bft)
10.11.2025 22:28 21,6 °C 2,3 °C 57 % 92 % 1014,0 hPa 0,0 l/m² 0,0 km/h (0 Bft) O 98 ° 0 min 0 W/m² 1,1 °C 2,3 °C 0,0 km/h (0 Bft)
10.11.2025 22:29 21,6 °C 2,3 °C 57 % 92 % 1014,0 hPa 0,0 l/m² 0,0 km/h (0 Bft) O 98 ° 0 min 0 W/m² 1,1 °C 2,3 °C 0,0 km/h (0 Bft)
10.11.2025 22:30 21,6 °C 2,3 °C 57 % 92 % 1014,0 hPa 0,0 l/m² 0,1 km/h (0 Bft) O 98 ° 0 min 0 W/m² 1,1 °C 2,3 °C 1,6 km/h (1 Bft)
10.11.2025 22:31 21,6 °C 2,3 °C 57 % 92 % 1014,0 hPa 0,0 l/m² 0,9 km/h (0 Bft) O 98 ° 0 min 0 W/m² 1,1 °C 2,3 °C 1,6 km/h (1 Bft)
10.11.2025 22:32 21,6 °C 2,3 °C 57 % 91 % 1014,0 hPa 0,0 l/m² 1,6 km/h (1 Bft) O 98 ° 0 min 0 W/m² 1,0 °C 2,3 °C 1,6 km/h (1 Bft)
10.11.2025 22:33 21,6 °C 2,2 °C 57 % 91 % 1013,9 hPa 0,0 l/m² 1,2 km/h (1 Bft) O 98 ° 0 min 0 W/m² 0,9 °C 2,2 °C 1,6 km/h (1 Bft)
10.11.2025 22:34 21,6 °C 2,2 °C 57 % 91 % 1014,0 hPa 0,0 l/m² 0,1 km/h (0 Bft) O 98 ° 0 min 0 W/m² 0,9 °C 2,2 °C 1,6 km/h (1 Bft)
10.11.2025 22:35 21,6 °C 2,2 °C 57 % 91 % 1013,9 hPa 0,0 l/m² 0,1 km/h (0 Bft) O 98 ° 0 min 0 W/m² 0,9 °C 2,2 °C 1,6 km/h (1 Bft)
10.11.2025 22:36 21,6 °C 2,2 °C 57 % 91 % 1014,0 hPa 0,0 l/m² 0,0 km/h (0 Bft) O 98 ° 0 min 0 W/m² 0,9 °C 2,2 °C 0,0 km/h (0 Bft)
10.11.2025 22:37 21,6 °C 2,2 °C 57 % 91 % 1014,0 hPa 0,0 l/m² 0,0 km/h (0 Bft) O 98 ° 0 min 0 W/m² 0,9 °C 2,2 °C 0,0 km/h (0 Bft)
10.11.2025 22:38 21,6 °C 2,1 °C 57 % 91 % 1014,1 hPa 0,0 l/m² 0,4 km/h (0 Bft) O-SO 103 ° 0 min 0 W/m² 0,8 °C 2,1 °C 3,2 km/h (1 Bft)
10.11.2025 22:39 21,6 °C 2,1 °C 57 % 91 % 1014,0 hPa 0,0 l/m² 2,5 km/h (1 Bft) O-SO 116 ° 0 min 0 W/m² 0,8 °C 2,1 °C 3,2 km/h (1 Bft)
10.11.2025 22:40 21,6 °C 2,1 °C 57 % 91 % 1014,1 hPa 0,0 l/m² 2,1 km/h (1 Bft) O-SO 117 ° 0 min 0 W/m² 0,8 °C 2,1 °C 3,2 km/h (1 Bft)
10.11.2025 22:42 21,6 °C 2,0 °C 57 % 91 % 1014,1 hPa 0,0 l/m² 1,7 km/h (1 Bft) O-SO 120 ° 0 min 0 W/m² 0,7 °C 2,0 °C 3,2 km/h (1 Bft)
10.11.2025 22:43 21,6 °C 2,0 °C 57 % 91 % 1014,1 hPa 0,0 l/m² 0,3 km/h (0 Bft) O-SO 120 ° 0 min 0 W/m² 0,7 °C 2,0 °C 1,6 km/h (1 Bft)
10.11.2025 22:44 21,6 °C 2,0 °C 57 % 92 % 1014,1 hPa 0,0 l/m² 0,0 km/h (0 Bft) O-SO 120 ° 0 min 0 W/m² 0,8 °C 2,0 °C 0,0 km/h (0 Bft)
10.11.2025 22:45 21,6 °C 1,9 °C 57 % 92 % 1014,1 hPa 0,0 l/m² 0,0 km/h (0 Bft) O-SO 120 ° 0 min 0 W/m² 0,7 °C 1,9 °C 0,0 km/h (0 Bft)
10.11.2025 22:46 21,6 °C 1,9 °C 57 % 92 % 1014,1 hPa 0,0 l/m² 0,0 km/h (0 Bft) O-SO 120 ° 0 min 0 W/m² 0,7 °C 1,9 °C 0,0 km/h (0 Bft)
10.11.2025 22:47 21,6 °C 1,9 °C 57 % 91 % 1014,1 hPa 0,0 l/m² 0,0 km/h (0 Bft) O-SO 120 ° 0 min 0 W/m² 0,6 °C 1,9 °C 0,0 km/h (0 Bft)
10.11.2025 22:48 21,6 °C 1,9 °C 57 % 91 % 1014,0 hPa 0,0 l/m² 0,0 km/h (0 Bft) O-SO 120 ° 0 min 0 W/m² 0,6 °C 1,9 °C 0,0 km/h (0 Bft)
10.11.2025 22:49 21,6 °C 1,9 °C 57 % 91 % 1014,2 hPa 0,0 l/m² 0,0 km/h (0 Bft) O-SO 120 ° 0 min 0 W/m² 0,6 °C 1,9 °C 0,0 km/h (0 Bft)
10.11.2025 22:50 21,6 °C 1,9 °C 57 % 91 % 1014,1 hPa 0,0 l/m² 0,0 km/h (0 Bft) O-SO 120 ° 0 min 0 W/m² 0,6 °C 1,9 °C 0,0 km/h (0 Bft)
10.11.2025 22:51 21,6 °C 1,9 °C 57 % 91 % 1014,1 hPa 0,0 l/m² 0,0 km/h (0 Bft) O-SO 120 ° 0 min 0 W/m² 0,6 °C 1,9 °C 0,0 km/h (0 Bft)
10.11.2025 22:52 21,6 °C 1,8 °C 57 % 91 % 1014,1 hPa 0,0 l/m² 0,0 km/h (0 Bft) O-SO 120 ° 0 min 0 W/m² 0,5 °C 1,8 °C 0,0 km/h (0 Bft)
10.11.2025 22:53 21,6 °C 1,8 °C 57 % 91 % 1014,2 hPa 0,0 l/m² 0,0 km/h (0 Bft) O-SO 120 ° 0 min 0 W/m² 0,5 °C 1,8 °C 0,0 km/h (0 Bft)
10.11.2025 22:54 21,6 °C 1,8 °C 57 % 92 % 1014,0 hPa 0,0 l/m² 0,0 km/h (0 Bft) O-SO 120 ° 0 min 0 W/m² 0,6 °C 1,8 °C 0,0 km/h (0 Bft)
10.11.2025 22:55 21,6 °C 1,8 °C 57 % 92 % 1014,1 hPa 0,0 l/m² 0,0 km/h (0 Bft) O-SO 120 ° 0 min 0 W/m² 0,6 °C 1,8 °C 0,0 km/h (0 Bft)
10.11.2025 22:56 21,6 °C 1,8 °C 57 % 92 % 1014,1 hPa 0,0 l/m² 0,0 km/h (0 Bft) O-SO 120 ° 0 min 0 W/m² 0,6 °C 1,8 °C 0,0 km/h (0 Bft)
10.11.2025 22:57 21,6 °C 1,8 °C 57 % 92 % 1014,1 hPa 0,0 l/m² 0,0 km/h (0 Bft) O-SO 120 ° 0 min 0 W/m² 0,6 °C 1,8 °C 0,0 km/h (0 Bft)
10.11.2025 22:58 21,6 °C 1,8 °C 57 % 92 % 1014,1 hPa 0,0 l/m² 0,0 km/h (0 Bft) O-SO 120 ° 0 min 0 W/m² 0,6 °C 1,8 °C 0,0 km/h (0 Bft)
10.11.2025 22:59 21,6 °C 1,8 °C 57 % 92 % 1014,0 hPa 0,0 l/m² 0,0 km/h (0 Bft) O-SO 120 ° 0 min 0 W/m² 0,6 °C 1,8 °C 0,0 km/h (0 Bft)
10.11.2025 23:00 21,6 °C 1,8 °C 57 % 92 % 1014,1 hPa 0,0 l/m² 0,0 km/h (0 Bft) O-SO 120 ° 0 min 0 W/m² 0,6 °C 1,8 °C 0,0 km/h (0 Bft)
10.11.2025 23:02 21,6 °C 1,7 °C 57 % 92 % 1014,0 hPa 0,0 l/m² 0,0 km/h (0 Bft) O-SO 120 ° 0 min 0 W/m² 0,5 °C 1,7 °C 0,0 km/h (0 Bft)
10.11.2025 23:03 21,6 °C 1,7 °C 57 % 92 % 1014,0 hPa 0,0 l/m² 0,0 km/h (0 Bft) O-SO 120 ° 0 min 0 W/m² 0,5 °C 1,7 °C 0,0 km/h (0 Bft)
10.11.2025 23:04 21,6 °C 1,7 °C 57 % 92 % 1014,1 hPa 0,0 l/m² 0,0 km/h (0 Bft) O-SO 120 ° 0 min 0 W/m² 0,5 °C 1,7 °C 0,0 km/h (0 Bft)
10.11.2025 23:05 21,6 °C 1,7 °C 57 % 92 % 1014,1 hPa 0,0 l/m² 0,0 km/h (0 Bft) O-SO 120 ° 0 min 0 W/m² 0,5 °C 1,7 °C 0,0 km/h (0 Bft)
10.11.2025 23:06 21,6 °C 1,7 °C 57 % 92 % 1014,0 hPa 0,0 l/m² 0,0 km/h (0 Bft) O-SO 120 ° 0 min 0 W/m² 0,5 °C 1,7 °C 0,0 km/h (0 Bft)
10.11.2025 23:08 21,6 °C 1,7 °C 57 % 92 % 1014,1 hPa 0,0 l/m² 0,0 km/h (0 Bft) O-SO 120 ° 0 min 0 W/m² 0,5 °C 1,7 °C 0,0 km/h (0 Bft)
10.11.2025 23:09 21,6 °C 1,7 °C 57 % 92 % 1014,1 hPa 0,0 l/m² 0,0 km/h (0 Bft) O-SO 120 ° 0 min 0 W/m² 0,5 °C 1,7 °C 0,0 km/h (0 Bft)
10.11.2025 23:10 21,6 °C 1,7 °C 57 % 92 % 1014,0 hPa 0,0 l/m² 0,0 km/h (0 Bft) O-SO 120 ° 0 min 0 W/m² 0,5 °C 1,7 °C 0,0 km/h (0 Bft)
10.11.2025 23:11 21,6 °C 1,7 °C 57 % 92 % 1014,0 hPa 0,0 l/m² 0,0 km/h (0 Bft) O-SO 120 ° 0 min 0 W/m² 0,5 °C 1,7 °C 0,0 km/h (0 Bft)
10.11.2025 23:12 21,6 °C 1,7 °C 57 % 92 % 1014,1 hPa 0,0 l/m² 0,0 km/h (0 Bft) O-SO 120 ° 0 min 0 W/m² 0,5 °C 1,7 °C 0,0 km/h (0 Bft)
10.11.2025 23:13 21,6 °C 1,7 °C 57 % 92 % 1014,1 hPa 0,0 l/m² 0,0 km/h (0 Bft) O-SO 120 ° 0 min 0 W/m² 0,5 °C 1,7 °C 0,0 km/h (0 Bft)
10.11.2025 23:14 21,6 °C 1,7 °C 57 % 92 % 1014,1 hPa 0,0 l/m² 0,0 km/h (0 Bft) O-SO 120 ° 0 min 0 W/m² 0,5 °C 1,7 °C 0,0 km/h (0 Bft)
10.11.2025 23:15 21,6 °C 1,7 °C 57 % 92 % 1014,1 hPa 0,0 l/m² 0,0 km/h (0 Bft) O-SO 120 ° 0 min 0 W/m² 0,5 °C 1,7 °C 0,0 km/h (0 Bft)
10.11.2025 23:16 21,6 °C 1,7 °C 57 % 92 % 1014,1 hPa 0,0 l/m² 0,0 km/h (0 Bft) N 0 ° 0 min 0 W/m² 0,5 °C 1,7 °C 0,0 km/h (0 Bft)
10.11.2025 23:17 21,6 °C 1,7 °C 57 % 92 % 1014,0 hPa 0,0 l/m² 0,0 km/h (0 Bft) N 0 ° 0 min 0 W/m² 0,5 °C 1,7 °C 0,0 km/h (0 Bft)
10.11.2025 23:18 21,6 °C 1,7 °C 57 % 92 % 1014,0 hPa 0,0 l/m² 0,0 km/h (0 Bft) N 0 ° 0 min 0 W/m² 0,5 °C 1,7 °C 0,0 km/h (0 Bft)
10.11.2025 23:19 21,5 °C 1,7 °C 57 % 92 % 1014,0 hPa 0,0 l/m² 0,0 km/h (0 Bft) N 0 ° 0 min 0 W/m² 0,5 °C 1,7 °C 0,0 km/h (0 Bft)
10.11.2025 23:20 21,6 °C 1,7 °C 57 % 92 % 1014,0 hPa 0,0 l/m² 0,0 km/h (0 Bft) N 0 ° 0 min 0 W/m² 0,5 °C 1,7 °C 0,0 km/h (0 Bft)
10.11.2025 23:21 21,5 °C 1,7 °C 57 % 92 % 1014,0 hPa 0,0 l/m² 0,0 km/h (0 Bft) N 0 ° 0 min 0 W/m² 0,5 °C 1,7 °C 0,0 km/h (0 Bft)
10.11.2025 23:27 21,5 °C 1,8 °C 57 % 92 % 1014,0 hPa 0,0 l/m² 0,1 km/h (0 Bft) O-SO 120 ° 0 min 0 W/m² 0,6 °C 1,8 °C 1,6 km/h (1 Bft)
10.11.2025 23:29 21,5 °C 1,8 °C 57 % 92 % 1013,9 hPa 0,0 l/m² 0,0 km/h (0 Bft) O-SO 120 ° 0 min 0 W/m² 0,6 °C 1,8 °C 0,0 km/h (0 Bft)
10.11.2025 23:30 21,5 °C 1,8 °C 57 % 92 % 1013,9 hPa 0,0 l/m² 0,0 km/h (0 Bft) O-SO 120 ° 0 min 0 W/m² 0,6 °C 1,8 °C 0,0 km/h (0 Bft)
10.11.2025 23:32 21,5 °C 1,9 °C 57 % 92 % 1013,9 hPa 0,0 l/m² 0,0 km/h (0 Bft) O-SO 120 ° 0 min 0 W/m² 0,7 °C 1,9 °C 1,6 km/h (1 Bft)
10.11.2025 23:33 21,5 °C 1,8 °C 57 % 92 % 1013,9 hPa 0,0 l/m² 0,0 km/h (0 Bft) O-SO 120 ° 0 min 0 W/m² 0,6 °C 1,8 °C 0,0 km/h (0 Bft)
10.11.2025 23:35 21,5 °C 1,9 °C 57 % 92 % 1013,9 hPa 0,0 l/m² 0,0 km/h (0 Bft) O-SO 120 ° 0 min 0 W/m² 0,7 °C 1,9 °C 0,0 km/h (0 Bft)
10.11.2025 23:37 21,5 °C 1,9 °C 57 % 92 % 1013,8 hPa 0,0 l/m² 0,0 km/h (0 Bft) O-SO 120 ° 0 min 0 W/m² 0,7 °C 1,9 °C 0,0 km/h (0 Bft)
10.11.2025 23:39 21,5 °C 1,9 °C 57 % 92 % 1013,9 hPa 0,0 l/m² 0,0 km/h (0 Bft) O-SO 120 ° 0 min 0 W/m² 0,7 °C 1,9 °C 0,0 km/h (0 Bft)
10.11.2025 23:40 21,4 °C 1,9 °C 57 % 92 % 1013,8 hPa 0,0 l/m² 0,3 km/h (0 Bft) O-SO 120 ° 0 min 0 W/m² 0,7 °C 1,9 °C 1,6 km/h (1 Bft)
10.11.2025 23:41 21,4 °C 2,0 °C 57 % 92 % 1013,8 hPa 0,0 l/m² 2,1 km/h (1 Bft) O-SO 120 ° 0 min 0 W/m² 0,8 °C 2,0 °C 3,2 km/h (1 Bft)
10.11.2025 23:42 21,5 °C 2,0 °C 57 % 92 % 1013,8 hPa 0,0 l/m² 2,3 km/h (1 Bft) O-SO 120 ° 0 min 0 W/m² 0,8 °C 2,0 °C 3,2 km/h (1 Bft)
10.11.2025 23:44 21,5 °C 2,0 °C 57 % 92 % 1013,9 hPa 0,0 l/m² 1,8 km/h (1 Bft) O-SO 120 ° 0 min 0 W/m² 0,8 °C 2,0 °C 3,2 km/h (1 Bft)
10.11.2025 23:46 21,5 °C 2,0 °C 57 % 92 % 1013,9 hPa 0,0 l/m² 0,7 km/h (0 Bft) O-SO 120 ° 0 min 0 W/m² 0,8 °C 2,0 °C 3,2 km/h (1 Bft)
10.11.2025 23:48 21,5 °C 2,1 °C 57 % 92 % 1013,9 hPa 0,0 l/m² 0,0 km/h (0 Bft) O-SO 120 ° 0 min 0 W/m² 0,9 °C 2,1 °C 0,0 km/h (0 Bft)
10.11.2025 23:50 21,5 °C 2,1 °C 57 % 92 % 1013,9 hPa 0,0 l/m² 0,0 km/h (0 Bft) O-SO 120 ° 0 min 0 W/m² 0,9 °C 2,1 °C 0,0 km/h (0 Bft)
10.11.2025 23:51 21,5 °C 2,1 °C 57 % 92 % 1013,9 hPa 0,0 l/m² 0,0 km/h (0 Bft) O-SO 120 ° 0 min 0 W/m² 0,9 °C 2,1 °C 0,0 km/h (0 Bft)
10.11.2025 23:52 21,5 °C 2,1 °C 57 % 92 % 1013,9 hPa 0,0 l/m² 0,0 km/h (0 Bft) O-SO 120 ° 0 min 0 W/m² 0,9 °C 2,1 °C 0,0 km/h (0 Bft)
10.11.2025 23:53 21,5 °C 2,1 °C 57 % 92 % 1013,9 hPa 0,0 l/m² 0,0 km/h (0 Bft) O-SO 120 ° 0 min 0 W/m² 0,9 °C 2,1 °C 0,0 km/h (0 Bft)
10.11.2025 23:55 21,5 °C 2,1 °C 57 % 92 % 1013,9 hPa 0,0 l/m² 0,0 km/h (0 Bft) O-SO 120 ° 0 min 0 W/m² 0,9 °C 2,1 °C 0,0 km/h (0 Bft)
10.11.2025 23:57 21,5 °C 2,1 °C 57 % 92 % 1013,8 hPa 0,0 l/m² 0,2 km/h (0 Bft) O-SO 120 ° 0 min 0 W/m² 0,9 °C 2,1 °C 1,6 km/h (1 Bft)
10.11.2025 23:59 21,4 °C 2,2 °C 57 % 93 % 1013,9 hPa 0,0 l/m² 0,8 km/h (0 Bft) O-SO 120 ° 0 min 0 W/m² 1,2 °C 2,2 °C 1,6 km/h (1 Bft)
_ Min-Zeit 07:35 23:21 17:22 14:13 23:57 - 23:55 - - - - 22:53 23:21 23:55
Minimum _ 21,1 °C 1,7 °C 55 % 77 % 1013,8 hPa - 0,0 km/h (0 Bft) - - - - 0,5 °C 1,7 °C 0,0 km/h (0 Bft)
_ Max-Zeit 22:00 13:43 07:11 10:33 09:40 01:56 14:42 - - 13:18 11:39 12:27 13:40 14:42
Maximum _ 21,7 °C 14,1 °C 58 % 96 % 1016,4 hPa 0,2 l/m² 12,0 km/h
S-SW (2 Bft)
- - 6 min 482 W/m² 11,3 °C 14,1 °C 14,5 km/h
S-SW (3 Bft)
Durchschnitt _ 21,4 °C 8,1 °C 57 % 90 % 1015,2 hPa #0,6 l/m² 1,2 km/h (1 Bft) SW - #6:33 h 70 W/m² 6,5 °C 8,0 °C 2,0 km/h (1 Bft)
© 2009 Mathias Hoßbach